Date StartTime U_cm/s V_cm/s W_cm/s Ustd_cm/s Vstd_cm/s Wstd_cm/s Uvar_(cm/s)^2 Vvar_(cm/s)^2 Wvar_(cm/s)^2 KE_(m/s)^2 TurbulentKE_(m/s)^2 HorizWindSpeed_cm/s FrictionSpeec_cm/s DragCoef SpeedOfSound_m/s SonicTemperature_C Pressure_mb 
04/23/2014  00:00:00     -298.696      -45.946      -19.461       81.796       78.941       38.202     6690.643     6231.736     1459.417        5.304        0.719      302.209       34.747        0.013      335.249        5.753      860.405
04/23/2014  00:01:00     -315.772     -159.483       -3.315      102.883       73.996       55.323    10584.984     5475.426     3060.620        7.214        0.956      353.761       47.664        0.018      335.221        5.706      860.403
04/23/2014  00:02:00     -340.683      -97.735      -28.087      102.644       93.294       57.130    10535.875     8703.711     3263.819        7.445        1.125      354.425       52.066        0.022      335.234        5.730      860.413
04/23/2014  00:03:00     -276.953       11.592       -7.087      111.526       92.090       56.520    12438.117     8480.489     3194.534        5.050        1.206      277.196       58.522        0.045      335.223        5.710      860.426
04/23/2014  00:04:00     -244.128      -50.739      -17.891      128.912       65.726       44.336    16618.204     4319.931     1965.691        4.269        1.145      249.345       51.145        0.042      335.232        5.726      860.440
04/23/2014  00:05:00     -340.892      -30.863      -26.405      109.949       95.370       55.033    12088.710     9095.429     3028.606        7.103        1.211      342.287       55.839        0.027      335.242        5.742      860.450
04/23/2014  00:06:00     -259.921     -107.248       -4.963      128.602      104.080       55.416    16538.458    10832.735     3070.908        5.476        1.522      281.178       60.696        0.047      335.240        5.739      860.453
04/23/2014  00:07:00     -248.838      -26.494      -18.400      170.169       71.182       54.581    28957.356     5066.912     2979.104        4.997        1.850      250.244       75.938        0.092      335.257        5.767      860.479
04/23/2014  00:08:00     -295.196      -54.941       -6.404      150.838      117.737       67.643    22752.073    13861.969     4575.531        6.569        2.059      300.265       74.038        0.061      335.243        5.743      860.490
04/23/2014  00:09:00     -144.043       -8.428       -4.959      135.939       71.690       52.945    18479.468     5139.429     2803.162        2.363        1.321      144.289       59.978        0.173      335.275        5.798      860.472
04/23/2014  00:10:00     -292.483      -59.781      -33.552       73.374      111.573       46.767     5383.810    12448.564     2187.156        5.513        1.001      298.530       36.817        0.015      335.271        5.789      860.471
04/23/2014  00:11:00     -264.692        7.381      -25.020      120.354      138.528       57.870    14484.991    19189.904     3348.978        5.388        1.851      264.795       41.366        0.024      335.257        5.767      860.455
04/23/2014  00:12:00     -156.410      -20.599       -7.839      104.466       70.496       54.139    10913.173     4969.621     2931.030        2.188        0.941      157.761       55.888        0.125      335.301        5.841      860.442
04/23/2014  00:13:00     -216.106      -41.868       -5.852       94.450       79.169       45.628     8920.872     6267.652     2081.918        3.288        0.864      220.124       45.207        0.042      335.259        5.770      860.454
04/23/2014  00:14:00     -186.515      -74.025        5.617       89.127       63.476       40.313     7943.661     4029.180     1625.159        2.695        0.680      200.668       36.204        0.033      335.251        5.757      860.465
04/23/2014  00:15:00     -122.007      -10.422        6.791      106.096       71.087       55.814    11256.364     5053.300     3115.251        1.723        0.971      122.451       65.885        0.290      335.304        5.846      860.465
04/23/2014  00:16:00     -230.533      -38.584      -18.045      119.968       80.570       40.382    14392.301     6491.464     1630.706        3.873        1.126      233.740       49.494        0.045      335.265        5.782      860.480
04/23/2014  00:17:00     -278.193      -47.578       -9.197      101.627      112.644       56.995    10328.078    12688.597     3248.377        5.300        1.313      282.232       52.323        0.034      335.251        5.756      860.473
04/23/2014  00:18:00     -310.963     -110.732      -20.764       83.337       77.496       44.431     6945.033     6005.587     1974.145        6.215        0.746      330.090       45.978        0.019      335.226        5.713      860.459
04/23/2014  00:19:00     -207.937        4.630       -6.661       68.712       66.013       42.546     4721.407     4357.743     1810.191        2.709        0.544      207.988       38.237        0.034      335.262        5.775      860.461
04/23/2014  00:20:00     -202.998      -14.323      -12.896      126.293      106.734       58.181    15950.002    11392.164     3384.973        3.615        1.536      203.503       68.667        0.114      335.273        5.795      860.468
04/23/2014  00:21:00     -259.865      -54.681       -8.496       93.408      134.002       53.170     8725.097    17956.433     2827.013        5.004        1.475      265.556       48.698        0.034      335.255        5.763      860.480
04/23/2014  00:22:00     -289.053      -82.050      -13.691       92.038       67.974       45.382     8471.005     4620.415     2059.563        5.281        0.758      300.472       47.529        0.025      335.284        5.812      860.494
04/23/2014  00:23:00     -241.925      -13.591      -23.024      103.507       85.928       47.096    10713.660     7383.650     2217.991        3.977        1.016      242.307       47.655        0.039      335.296        5.831      860.504
04/23/2014  00:24:00     -229.927        9.902      -18.032       69.479       85.783       38.207     4827.317     7358.788     1459.786        3.347        0.682      230.140       35.710        0.024      335.299        5.835      860.513
04/23/2014  00:25:00     -324.342       43.612      -31.821       87.641       70.734       41.818     7680.859     5003.239     1748.703        6.127        0.722      327.261       40.462        0.015      335.291        5.824      860.514
04/23/2014  00:26:00     -205.231      -79.099       -5.315      118.567       98.544       46.191    14058.044     9710.963     2133.646        3.715        1.295      219.947       45.106        0.042      335.312        5.858      860.492
04/23/2014  00:27:00     -231.324      -41.717       -9.589      116.465       63.878       41.657    13564.142     4080.340     1735.329        3.736        0.969      235.056       49.199        0.044      335.296        5.832      860.482
04/23/2014  00:28:00     -320.532      -49.621      -11.246       97.894       65.579       43.624     9583.326     4300.633     1903.023        6.056        0.789      324.350       44.222        0.019      335.270        5.788      860.476
04/23/2014  00:29:00     -235.617       13.079      -13.416       92.077       70.182       42.070     8478.220     4925.475     1769.877        3.552        0.759      235.980       39.500        0.028      335.299        5.837      860.475
04/23/2014  00:30:00     -243.035     -102.206      -10.688       86.323       69.474       43.243     7451.637     4826.687     1869.944        4.188        0.707      263.652       33.548        0.016      335.310        5.854      860.479
04/23/2014  00:31:00     -240.611      -47.213      -12.453      109.194       90.318       43.151    11923.311     8157.295     1862.052        4.111        1.097      245.199       45.128        0.034      335.312        5.858      860.494
04/23/2014  00:32:00     -170.165      -53.704       -3.111       89.365       70.278       47.485     7986.075     4939.009     2254.821        2.351        0.759      178.439       46.825        0.069      335.313        5.860      860.504
04/23/2014  00:33:00     -166.953     -102.685       -2.387       79.480       70.123       48.173     6317.115     4917.209     2320.613        2.599        0.678      196.004       34.498        0.031      335.373        5.962      860.492
04/23/2014  00:34:00     -147.960      -56.855       -0.747       86.743       62.427       39.495     7524.299     3897.190     1559.868        1.905        0.649      158.508       42.365        0.071      335.328        5.885      860.486
04/23/2014  00:35:00      -50.998       -6.097        7.219       56.939       53.816       32.032     3242.031     2896.116     1026.023        0.493        0.358       51.361       32.505        0.401      335.352        5.928      860.460
04/23/2014  00:36:00      -98.391      117.762      -23.113       70.979       59.267       40.238     5038.065     3512.530     1619.133        1.712        0.508      153.456       40.548        0.070      335.340        5.906      860.431
04/23/2014  00:37:00      -60.420       77.777       10.574       76.680       90.053       49.843     5879.896     8109.461     2484.279        1.314        0.824       98.487       47.800        0.236      335.378        5.971      860.403
04/23/2014  00:38:00     -177.506        9.723      -14.275      105.299       80.125       42.820    11087.841     6420.022     1833.516        2.557        0.967      177.772       25.829        0.021      335.354        5.929      860.379
04/23/2014  00:39:00     -125.239       -0.739      -25.477       83.571       67.356       38.131     6984.029     4536.779     1453.954        1.465        0.649      125.241       17.144        0.019      335.342        5.910      860.367
04/23/2014  00:40:00      -86.071        4.044       -2.376       74.459       50.196       33.285     5544.203     2519.669     1107.863        0.830        0.459       86.166       27.259        0.100      335.330        5.892      860.378
04/23/2014  00:41:00     -108.022      -12.236       -7.194       63.330       63.639       30.706     4010.705     4049.873      942.845        1.043        0.450      108.713       22.300        0.042      335.381        5.974      860.384
04/23/2014  00:42:00      -87.402      -35.027       -2.867       76.255       44.689       33.060     5814.891     1997.084     1092.939        0.889        0.445       94.160       38.313        0.166      335.393        5.996      860.395
04/23/2014  00:43:00      -65.016       39.087      -14.086       53.054       41.521       40.276     2814.755     1723.960     1622.186        0.606        0.308       75.861       31.466        0.172      335.369        5.957      860.405
04/23/2014  00:44:00      -72.239       -1.607       -2.434       53.201       45.199       39.301     2830.398     2042.941     1544.585        0.582        0.321       72.257       20.995        0.084      335.372        5.963      860.422
04/23/2014  00:45:00      -59.024       35.728      -10.294       45.283       59.243       35.230     2050.568     3509.693     1241.183        0.583        0.340       68.995       30.814        0.199      335.361        5.944      860.439
04/23/2014  00:46:00     -121.201       44.436      -16.736       64.744       46.476       37.080     4191.793     2159.995     1374.889        1.233        0.386      129.090       29.465        0.052      335.354        5.930      860.453
04/23/2014  00:47:00      -82.011       57.304      -13.030       45.591       69.392       30.168     2078.576     4815.293      910.097        0.899        0.390      100.048       20.153        0.041      335.388        5.988      860.470
04/23/2014  00:48:00     -111.270      -18.037       -7.407       44.233       45.739       28.687     1956.597     2092.082      822.944        0.882        0.244      112.722       24.605        0.048      335.451        6.094      860.482
04/23/2014  00:49:00     -135.673      -26.857      -14.812       62.129       84.278       39.646     3860.009     7102.806     1571.796        1.594        0.627      138.306       39.908        0.083      335.400        6.006      860.507
04/23/2014  00:50:00      -99.155       29.137      -10.827       61.432       74.365       29.794     3773.938     5530.133      887.699        1.049        0.510      103.348       21.137        0.042      335.362        5.945      860.508
04/23/2014  00:51:00     -108.274      -14.665       -3.179      104.670       75.428       34.172    10955.812     5689.374     1167.739        1.488        0.891      109.263       40.711        0.139      335.396        6.001      860.497
04/23/2014  00:52:00     -161.448      -50.972      -20.001       46.045       46.181       31.368     2120.176     2132.657      983.981        1.715        0.262      169.304       19.726        0.014      335.364        5.948      860.497
04/23/2014  00:53:00      -92.551        1.472       -4.800       65.894       40.777       27.162     4342.053     1662.754      737.758        0.767        0.337       92.562       29.291        0.100      335.356        5.934      860.501
04/23/2014  00:54:00      -75.013       64.695       -2.473       48.098       55.149       37.820     2313.445     3041.413     1430.345        0.830        0.339       99.058       20.808        0.044      335.326        5.883      860.508
04/23/2014  00:55:00      -76.500        3.411       -0.060       71.204       71.391       39.074     5069.946     5096.627     1526.762        0.878        0.585       76.576       31.048        0.164      335.428        6.054      860.496
04/23/2014  00:56:00     -122.510       19.645      -13.688       51.691       69.242       36.186     2671.965     4794.495     1309.451        1.218        0.439      124.075       29.004        0.055      335.368        5.954      860.504
04/23/2014  00:57:00      -88.329       21.878       -9.254       54.652       45.485       18.587     2986.866     2068.896      345.468        0.688        0.270       90.998       16.083        0.031      335.358        5.939      860.499
04/23/2014  00:58:00     -119.549       41.335      -21.611       59.681       48.449       24.690     3561.801     2347.331      609.592        1.149        0.326      126.493       21.938        0.030      335.359        5.939      860.497
04/23/2014  00:59:00     -128.464       18.833      -28.238       79.174       36.162       32.719     6268.565     1307.719     1070.537        1.315        0.432      129.837       36.814        0.080      335.396        6.000      860.494
04/23/2014  01:00:00     -141.488       57.439      -22.604       55.424       38.876       32.205     3071.836     1511.324     1037.146        1.472        0.281      152.702       28.164        0.034      335.338        5.903      860.510
04/23/2014  01:01:00      -86.747        3.460       -8.542       35.337       42.484       23.074     1248.730     1804.864      532.413        0.560        0.179       86.816        7.015        0.007      335.460        6.108      860.502
04/23/2014  01:02:00      -92.840       22.507      -13.134       55.410       81.659       32.321     3070.289     6668.164     1044.663        1.004        0.539       95.529       28.705        0.090      335.410        6.025      860.491
04/23/2014  01:03:00     -103.601       71.898       -8.712       69.748       75.715       30.270     4864.719     5732.709      916.291        1.374        0.576      126.105       29.837        0.056      335.362        5.945      860.476
04/23/2014  01:04:00     -178.733       69.154      -18.662       64.656       43.350       32.341     4180.451     1879.179     1045.933        2.209        0.355      191.645       27.411        0.020      335.357        5.934      860.464
04/23/2014  01:05:00      -90.477       89.464      -15.946       74.471       50.563       41.896     5545.908     2556.599     1755.282        1.315        0.493      127.240       42.218        0.110      335.353        5.930      860.455
04/23/2014  01:06:00     -145.616       43.632      -12.968       73.630       51.580       31.820     5421.304     2660.486     1012.532        1.618        0.455      152.013       26.533        0.030      335.400        6.008      860.450
04/23/2014  01:07:00     -109.717       -6.293       -3.071       53.041       48.525       29.116     2813.351     2354.657      847.742        0.905        0.301      109.898       14.951        0.019      335.400        6.008      860.446
04/23/2014  01:08:00     -119.584      -10.460        6.456       60.249       70.335       38.105     3629.947     4947.031     1452.006        1.224        0.501      120.040       32.577        0.074      335.411        6.026      860.451
04/23/2014  01:09:00      -52.855       44.835       -1.041       56.676       63.628       45.297     3212.209     4048.459     2051.785        0.706        0.466       69.310       26.316        0.144      335.417        6.036      860.458
04/23/2014  01:10:00      -64.195       50.696       -4.745       36.703       41.200       27.336     1347.128     1697.413      747.250        0.525        0.190       81.799       23.923        0.086      335.432        6.062      860.462
04/23/2014  01:11:00      -93.909      -29.974       -5.443       40.250       46.768       22.534     1620.062     2187.232      507.795        0.703        0.216       98.577       17.398        0.031      335.438        6.071      860.473
04/23/2014  01:12:00     -137.214       30.629      -12.533       56.002       34.703       33.167     3136.271     1204.308     1100.048        1.268        0.272      140.590       29.901        0.045      335.428        6.055      860.484
04/23/2014  01:13:00     -135.102       -3.461      -14.961       83.685       66.588       41.375     7003.138     4433.963     1711.873        1.582        0.657      135.146       42.445        0.099      335.396        6.001      860.485
04/23/2014  01:14:00     -147.580        1.424       -1.004      114.494       75.825       44.865    13108.972     5749.495     2012.871        2.132        1.044      147.586       51.326        0.121      335.389        5.989      860.486
04/23/2014  01:15:00     -147.449       56.539      -18.375       73.416       54.987       34.223     5389.862     3023.620     1171.188        1.743        0.479      157.917       33.897        0.046      335.342        5.909      860.487
04/23/2014  01:16:00     -136.639       -4.588      -26.484       55.036       71.573       32.049     3028.923     5122.725     1027.112        1.428        0.459      136.716       27.611        0.041      335.413        6.028      860.478
04/23/2014  01:17:00     -116.834       27.109      -16.235       75.286       90.947       38.938     5668.048     8271.307     1516.144        1.505        0.773      119.938       34.245        0.082      335.400        6.007      860.465
04/23/2014  01:18:00      -97.710      -14.019       -3.698       59.319       73.935       38.202     3518.752     5466.388     1459.365        1.010        0.522       98.711       29.051        0.087      335.417        6.037      860.446
04/23/2014  01:19:00     -131.261      -78.902      -11.197      110.958       77.717       42.388    12311.763     6039.873     1796.703        2.186        1.007      153.150       36.447        0.057      335.421        6.041      860.433
04/23/2014  01:20:00     -235.512       -1.451      -17.153      103.144       72.908       46.101    10638.648     5315.533     2125.337        3.692        0.904      235.517       57.753        0.060      335.350        5.922      860.424
04/23/2014  01:21:00     -178.362      -17.598      -21.260       69.251       47.962       29.335     4795.757     2300.330      860.520        2.026        0.398      179.228       32.698        0.033      335.345        5.915      860.414
04/23/2014  01:22:00     -181.885      -79.939       -9.739       62.087       62.261       35.385     3854.855     3876.407     1252.124        2.427        0.449      198.676       25.680        0.017      335.370        5.956      860.407
04/23/2014  01:23:00     -213.131      -53.388      -16.650       50.238       56.121       27.655     2523.878     3149.618      764.777        2.749        0.322      219.716       24.742        0.013      335.350        5.922      860.399
04/23/2014  01:24:00     -178.280      -43.713      -12.904       60.606       54.110       35.026     3673.121     2927.894     1226.847        2.084        0.391      183.561       31.823        0.030      335.351        5.926      860.399
04/23/2014  01:25:00     -173.023      -10.941      -17.102       60.715       95.868       40.778     3686.365     9190.688     1662.828        2.244        0.727      173.369       21.703        0.016      335.376        5.966      860.408
04/23/2014  01:26:00     -253.504      -64.560       -7.277       96.161       62.915       38.382     9246.967     3958.358     1473.210        4.158        0.734      261.595       44.349        0.029      335.339        5.903      860.418
04/23/2014  01:27:00     -223.999      -22.143      -17.803       76.042       79.880       35.977     5782.406     6380.841     1294.348        3.222        0.673      225.091       37.462        0.028      335.336        5.898      860.434
04/23/2014  01:28:00     -228.896      -84.855      -21.229       69.200       56.439       36.310     4788.617     3185.401     1318.394        3.467        0.465      244.119       26.065        0.011      335.368        5.950      860.443
04/23/2014  01:29:00     -214.589      -78.200      -10.670       60.810       72.129       39.757     3697.898     5202.573     1580.584        3.138        0.524      228.394       24.641        0.012      335.371        5.957      860.442
04/23/2014  01:30:00     -197.012      -16.725       -9.069       90.621       64.809       44.018     8212.099     4200.253     1937.582        2.676        0.717      197.721       44.718        0.051      335.348        5.919      860.432
04/23/2014  01:31:00     -137.869      -40.093      -10.507       99.881       60.022       41.931     9976.141     3602.683     1758.236        1.803        0.767      143.580       23.037        0.026      335.375        5.965      860.407
04/23/2014  01:32:00     -249.514      -67.858      -18.907       64.717       77.108       38.468     4188.261     5945.620     1479.774        3.941        0.581      258.577       30.581        0.014      335.342        5.907      860.382
04/23/2014  01:33:00     -246.640      -60.953       -3.711       92.297       79.122       45.570     8518.715     6260.266     2076.621        4.070        0.843      254.060       44.167        0.030      335.353        5.926      860.365
04/23/2014  01:34:00     -180.765       25.897      -15.291       83.557       47.231       35.255     6981.743     2230.759     1242.922        2.202        0.523      182.610       39.419        0.047      335.331        5.892      860.353
04/23/2014  01:35:00     -205.133       13.636      -24.476       79.615       39.502       27.541     6338.595     1560.445      758.501        2.576        0.433      205.585       31.746        0.024      335.341        5.906      860.351
04/23/2014  01:36:00     -208.732      -39.208      -34.322       45.880       50.887       30.052     2104.942     2589.478      903.136        2.594        0.280      212.383       25.623        0.015      335.370        5.955      860.359
04/23/2014  01:37:00     -153.374      -26.687      -21.428       37.291       44.519       32.071     1390.588     1981.940     1028.540        1.455        0.220      155.679       16.199        0.011      335.451        6.094      860.366
04/23/2014  01:38:00      -74.794      -20.726       -1.875       48.610       51.032       24.728     2362.892     2604.245      611.456        0.580        0.279       77.613       24.221        0.097      335.394        5.998      860.375
04/23/2014  01:39:00      -90.926      -15.725      -17.482       32.962       30.442       17.655     1086.482      926.711      311.683        0.557        0.116       92.276       13.513        0.021      335.424        6.047      860.369
04/23/2014  01:40:00     -154.525      -45.527      -13.669       47.864       50.419       23.617     2290.975     2542.077      557.773        1.576        0.270      161.092       21.885        0.018      335.358        5.939      860.351
04/23/2014  01:41:00      -98.895      -20.374       -7.365       56.901       57.990       24.342     3237.766     3362.879      592.554        0.872        0.360      100.972       29.346        0.084      335.331        5.893      860.325
04/23/2014  01:42:00      -88.847       -4.704      -21.923       32.975       37.461       21.479     1087.358     1403.303      461.343        0.567        0.148       88.971       11.736        0.017      335.331        5.891      860.304
04/23/2014  01:43:00      -65.379       66.329      -20.972       35.373       41.389       22.998     1251.234     1713.025      528.907        0.630        0.175       93.134       13.435        0.021      335.293        5.828      860.284
04/23/2014  01:44:00     -139.741       23.289      -21.372       44.615       44.048       21.204     1990.519     1940.265      449.600        1.245        0.219      141.668       18.332        0.017      335.319        5.873      860.277
04/23/2014  01:45:00     -118.630      -25.401      -17.796       43.593       43.198       25.920     1900.371     1866.031      671.822        0.974        0.222      121.319       16.807        0.019      335.330        5.890      860.263
04/23/2014  01:46:00      -75.883      -15.402       -5.256       38.977       34.881       21.391     1519.217     1216.700      457.558        0.461        0.160       77.431       15.964        0.043      335.320        5.873      860.243
04/23/2014  01:47:00      -42.844      -17.609        7.816       33.506       33.596       16.511     1122.664     1128.714      272.605        0.236        0.126       46.322       15.010        0.105      335.317        5.869      860.212
04/23/2014  01:48:00      -20.943      -21.325       11.336       25.183       40.452       14.590      634.193     1636.325      212.855        0.175        0.124       29.889       13.801        0.213      335.322        5.879      860.176
04/23/2014  01:49:00      -33.222        5.960        7.893       25.994       28.684       21.215      675.664      822.768      450.093        0.157        0.097       33.752       16.940        0.252      335.339        5.906      860.154
04/23/2014  01:50:00      -92.534       23.447      -16.267       30.607       45.356       22.114      936.785     2057.176      489.040        0.643        0.174       95.458       17.584        0.034      335.307        5.852      860.147
04/23/2014  01:51:00     -136.426       53.940      -16.651       49.229       39.330       27.007     2423.532     1546.881      729.358        1.325        0.235      146.703       12.282        0.007      335.244        5.748      860.142
04/23/2014  01:52:00      -90.442       19.704      -11.592       24.047       27.910       22.444      578.242      778.968      503.728        0.528        0.093       92.564       15.807        0.029      335.269        5.788      860.141
04/23/2014  01:53:00      -67.640      -10.189        0.530       42.546       43.272       24.466     1810.184     1872.447      598.577        0.448        0.214       68.403       28.082        0.169      335.264        5.782      860.138
04/23/2014  01:54:00      -29.431       -4.718        6.841       34.327       22.459       13.149     1178.339      504.398      172.901        0.140        0.093       29.807       15.144        0.258      335.345        5.915      860.121
04/23/2014  01:55:00      -91.690      -31.429      -17.479       68.373       44.156       29.334     4674.897     1949.785      860.503        0.859        0.374       96.927       38.150        0.155      335.308        5.854      860.125
04/23/2014  01:56:00     -194.348      -52.580      -22.567       39.277       38.392       24.398     1542.648     1473.974      595.273        2.233        0.181      201.335       15.662        0.006      335.218        5.702      860.119
04/23/2014  01:57:00     -102.014      -37.013      -13.014       49.513       51.908       23.506     2451.497     2694.431      552.510        0.882        0.285      108.521       27.194        0.063      335.195        5.666      860.105
04/23/2014  01:58:00      -89.779       13.874       -8.160       45.507       73.208       30.087     2070.868     5359.370      905.214        0.833        0.417       90.844       26.141        0.083      335.225        5.716      860.084
04/23/2014  01:59:00      -91.112       24.589      -25.363       47.152       33.554       26.069     2223.330     1125.901      679.615        0.679        0.201       94.372       20.798        0.049      335.228        5.721      860.060
04/23/2014  02:00:00     -103.550       13.583      -18.601       48.901       42.952       24.885     2391.304     1844.860      619.271        0.805        0.243      104.437       27.392        0.069      335.229        5.724      860.045
04/23/2014  02:01:00     -112.072       39.517      -19.796       32.546       36.881       20.914     1059.224     1360.175      437.405        0.868        0.143      118.835        9.801        0.007      335.201        5.677      860.035
04/23/2014  02:02:00      -58.627      -18.058      -16.004       46.828       30.738       30.072     2192.897      944.852      904.328        0.403        0.202       61.345       26.366        0.185      335.203        5.680      860.032
04/23/2014  02:03:00      -82.579      -16.252       -1.964       35.220       31.204       21.837     1240.472      973.663      476.863        0.489        0.135       84.163       19.641        0.054      335.190        5.659      860.041
04/23/2014  02:04:00      -87.633       12.930       -3.116       36.831       46.319       25.638     1356.517     2145.455      657.328        0.601        0.208       88.582       24.747        0.078      335.159        5.608      860.051
04/23/2014  02:05:00      -84.573        3.546      -10.158       40.133       34.043       17.780     1610.662     1158.958      316.137        0.518        0.154       84.647        3.428        0.002      335.207        5.686      860.057
04/23/2014  02:06:00     -114.343      -20.220      -13.402       46.637       28.162       20.221     2175.011      793.098      408.886        0.852        0.169      116.118       18.071        0.024      335.212        5.693      860.071
04/23/2014  02:07:00     -156.558      -17.281      -14.681       51.584       53.908       27.706     2660.907     2906.052      767.605        1.568        0.317      157.508       24.607        0.024      335.135        5.568      860.093
04/23/2014  02:08:00     -111.527       -2.856       -2.182       55.556       49.479       27.285     3086.444     2448.190      744.468        0.936        0.314      111.563       25.134        0.051      335.109        5.527      860.101
04/23/2014  02:09:00     -105.168      -30.148      -11.549       41.418       29.932       17.769     1715.490      895.911      315.748        0.751        0.146      109.403       13.014        0.014      335.129        5.558      860.098
04/23/2014  02:10:00      -83.884      -60.678       -2.996       37.958       26.364       18.425     1440.843      695.076      339.468        0.660        0.124      103.529       13.792        0.018      335.156        5.603      860.106
04/23/2014  02:11:00     -127.461      -47.882       -5.326       28.983       29.271       19.611      840.010      856.774      384.595        1.032        0.104      136.158       16.727        0.015      335.105        5.519      860.110
04/23/2014  02:12:00     -125.785      -40.024       -9.899       38.115       32.365       18.467     1452.770     1047.517      341.019        1.018        0.142      131.999       19.266        0.021      335.120        5.544      860.113
04/23/2014  02:13:00     -130.942      -29.534       -2.988       65.136       37.747       31.572     4242.696     1424.851      996.801        1.234        0.333      134.231       34.183        0.065      335.103        5.516      860.114
04/23/2014  02:14:00     -147.641        0.174      -13.897       63.468       39.051       26.312     4028.200     1524.987      692.340        1.412        0.312      147.641       23.924        0.026      335.084        5.484      860.113
04/23/2014  02:15:00     -157.835      -19.915      -15.084       48.259       42.312       29.089     2328.942     1790.282      846.184        1.525        0.248      159.087       23.387        0.022      335.096        5.506      860.108
04/23/2014  02:16:00     -206.111      -41.631       -9.634       65.072       38.156       26.890     4234.385     1455.909      723.096        2.536        0.321      210.273       26.125        0.015      335.085        5.483      860.103
04/23/2014  02:17:00     -169.936      -27.795      -15.294       47.958       81.766       35.860     2299.980     6685.661     1285.930        2.008        0.514      172.194       22.344        0.017      335.075        5.468      860.089
04/23/2014  02:18:00     -148.785      -80.394       -4.438       54.396       60.009       35.587     2958.949     3601.093     1266.422        1.822        0.391      169.116       29.627        0.031      335.085        5.485      860.075
04/23/2014  02:19:00     -180.851      -31.603       -4.958       58.599       45.940       30.324     3433.895     2110.504      919.568        2.010        0.323      183.591       32.115        0.031      335.083        5.481      860.056
04/23/2014  02:20:00     -187.977      -61.793       -7.397       45.107       44.015       25.860     2034.617     1937.353      668.716        2.192        0.232      197.873       19.624        0.010      335.082        5.480      860.040
04/23/2014  02:21:00     -159.864      -18.551       -3.127       76.596       47.728       34.953     5866.882     2277.987     1221.683        1.764        0.468      160.937       37.481        0.054      335.038        5.406      860.033
04/23/2014  02:22:00     -184.481      -58.532       -5.730       76.647       58.460       35.894     5874.751     3417.547     1288.358        2.403        0.529      193.544       46.850        0.059      335.095        5.500      860.023
04/23/2014  02:23:00     -160.704      -30.383        2.777       54.003       39.061       27.182     2916.363     1525.753      738.887        1.597        0.259      163.551       28.245        0.030      335.070        5.461      860.008
04/23/2014  02:24:00     -110.343      -37.409        5.296       59.990       49.784       31.321     3598.787     2478.495      981.008        1.033        0.353      116.512       28.490        0.060      335.052        5.430      859.992
04/23/2014  02:25:00      -94.661      -16.316       -2.318       49.933       32.208       24.717     2493.259     1037.339      610.941        0.669        0.207       96.057       28.603        0.089      335.060        5.446      859.975
04/23/2014  02:26:00     -132.943      -67.840       -4.005       52.205       33.182       21.555     2725.391     1101.025      464.610        1.329        0.215      149.252       17.472        0.014      335.049        5.427      859.961
04/23/2014  02:27:00     -157.866      -73.084       -5.134       41.781       37.787       24.965     1745.691     1427.870      623.230        1.704        0.190      173.962       23.213        0.018      335.050        5.428      859.946
04/23/2014  02:28:00     -168.280      -50.491       -7.440       44.658       36.252       25.709     1994.311     1314.221      660.963        1.745        0.198      175.691       23.052        0.017      335.091        5.496      859.936
04/23/2014  02:29:00     -121.097      -36.968        0.124       47.282       31.271       26.080     2235.623      977.852      680.172        0.996        0.195      126.614       25.330        0.040      335.045        5.419      859.921
04/23/2014  02:30:00     -123.237      -35.426        1.060       30.770       26.088       22.698      946.814      680.563      515.188        0.929        0.107      128.228       20.057        0.024      335.010        5.361      859.917
04/23/2014  02:31:00     -175.360      -53.336       -6.538       49.673       53.949       25.684     2467.435     2910.492      659.662        1.984        0.302      183.292       27.621        0.023      335.029        5.391      859.922
04/23/2014  02:32:00     -190.383      -65.678       -5.248       47.448       40.111       30.365     2251.311     1608.907      922.053        2.268        0.239      201.394       31.375        0.024      334.994        5.333      859.940
04/23/2014  02:33:00     -166.920      -39.550        0.205       52.582       40.193       29.289     2764.869     1615.453      857.872        1.733        0.262      171.541       28.268        0.027      334.966        5.287      859.943
04/23/2014  02:34:00     -130.403      -53.355        1.160       48.357       35.628       24.564     2338.399     1269.328      603.414        1.203        0.211      140.896       24.671        0.031      334.953        5.266      859.942
04/23/2014  02:35:00     -133.385      -40.839        3.519       43.661       39.845       25.330     1906.256     1587.615      641.634        1.180        0.207      139.497       18.359        0.017      334.928        5.227      859.942
04/23/2014  02:36:00     -153.706      -42.961        2.787       56.098       48.007       25.603     3146.988     2304.720      655.526        1.579        0.305      159.597       24.026        0.023      334.904        5.184      859.932
04/23/2014  02:37:00     -130.072      -61.040       -0.827       44.458       37.915       24.560     1976.547     1437.529      603.192        1.233        0.201      143.682       22.018        0.023      334.901        5.178      859.919
04/23/2014  02:38:00     -165.058      -38.980       -5.288       45.592       41.636       26.660     2078.653     1733.598      710.745        1.666        0.226      169.599       22.545        0.018      334.881        5.147      859.909
04/23/2014  02:39:00     -164.760      -54.609        0.597       48.326       38.231       29.292     2335.436     1461.600      858.001        1.739        0.233      173.574       29.628        0.029      334.863        5.115      859.901
04/23/2014  02:40:00     -127.613      -31.402        1.287       50.590       42.207       25.360     2559.319     1781.414      643.120        1.113        0.249      131.420       25.754        0.038      334.847        5.091      859.890
04/23/2014  02:41:00     -122.964      -54.041        2.075       48.992       26.993       23.242     2400.245      728.621      540.211        1.086        0.183      134.315       24.989        0.035      334.865        5.120      859.877
04/23/2014  02:42:00     -133.661      -55.281        1.183       46.489       44.930       21.183     2161.241     2018.718      448.720        1.277        0.231      144.641       23.365        0.026      334.847        5.090      859.864
04/23/2014  02:43:00     -145.367      -51.324        3.798       54.966       43.854       26.171     3021.278     1923.170      684.905        1.470        0.281      154.162       30.096        0.038      334.790        4.994      859.856
04/23/2014  02:44:00     -128.536      -41.227        2.299       66.024       41.970       25.888     4359.137     1761.487      670.195        1.251        0.340      134.986       31.363        0.054      334.814        5.034      859.855
04/23/2014  02:45:00     -147.720      -38.232       -4.801       40.313       45.099       22.702     1625.113     2033.938      515.362        1.374        0.209      152.588       20.708        0.018      334.813        5.033      859.860
04/23/2014  02:46:00     -162.025      -60.208       -4.936       56.978       40.405       29.032     3246.456     1632.582      842.854        1.781        0.286      172.850       28.536        0.027      334.850        5.094      859.865
04/23/2014  02:47:00     -182.449      -71.355       -1.293       38.530       37.359       24.884     1484.568     1395.664      619.192        2.094        0.175      195.906       23.915        0.015      334.838        5.073      859.870
04/23/2014  02:48:00     -154.590      -73.395       -2.152       38.848       34.550       21.245     1509.154     1193.710      451.330        1.622        0.158      171.128       16.585        0.009      334.830        5.062      859.874
04/23/2014  02:49:00     -136.554      -49.242       -6.468       54.270       38.528       25.788     2945.249     1484.370      665.007        1.310        0.255      145.161       28.597        0.039      334.763        4.947      859.872
04/23/2014  02:50:00      -93.915      -47.062        8.034       43.037       43.370       26.078     1852.185     1880.995      680.070        0.776        0.221      105.047       20.975        0.040      334.736        4.906      859.872
04/23/2014  02:51:00     -135.833      -60.081        1.358       55.309       33.585       22.335     3059.073     1127.964      498.846        1.337        0.234      148.527       27.287        0.034      334.720        4.879      859.883
04/23/2014  02:52:00     -147.725      -69.600       -1.725       56.644       46.324       27.470     3208.524     2145.902      754.618        1.639        0.305      163.300       28.913        0.031      334.724        4.884      859.903
04/23/2014  02:53:00     -159.998      -71.937       -5.170       66.062       48.992       25.567     4364.188     2400.264      653.682        1.911        0.371      175.426       25.227        0.021      334.681        4.812      859.919
04/23/2014  02:54:00     -156.497      -61.187        1.639       46.465       34.511       25.485     2158.966     1191.043      649.477        1.612        0.200      168.033       23.048        0.019      334.633        4.732      859.944
04/23/2014  02:55:00     -155.393      -62.034        4.491       66.587       37.292       26.857     4433.842     1390.687      721.297        1.728        0.327      167.317       31.133        0.035      334.683        4.816      859.977
04/23/2014  02:56:00     -139.070      -48.772       -0.946       49.051       40.397       28.063     2405.979     1631.895      787.508        1.327        0.241      147.375       30.565        0.043      334.706        4.855      860.003
04/23/2014  02:57:00     -103.554      -49.796        4.056       62.470       48.583       26.088     3902.477     2360.330      680.585        1.008        0.347      114.904       31.148        0.073      334.717        4.873      860.027
04/23/2014  02:58:00     -169.193      -63.801       -0.045       46.270       33.298       25.426     2140.905     1108.739      646.506        1.830        0.195      180.823       22.478        0.015      334.748        4.923      860.047
04/23/2014  02:59:00     -191.080      -76.107       -2.657       41.347       33.869       24.058     1709.569     1147.137      578.810        2.287        0.172      205.679       23.215        0.013      334.777        4.970      860.061
04/23/2014  03:00:00     -129.116      -36.129        8.076       60.578       40.837       26.854     3669.660     1667.654      721.113        1.205        0.303      134.075       29.175        0.047      334.739        4.910      860.084
04/23/2014  03:01:00     -153.574      -34.369        0.854       56.024       38.425       26.773     3138.637     1476.482      716.809        1.505        0.267      157.373       26.639        0.029      334.763        4.950      860.122
04/23/2014  03:02:00     -128.837      -64.878        2.750       65.100       43.990       26.672     4238.019     1935.109      711.408        1.385        0.344      144.250       26.266        0.033      334.794        5.001      860.151
04/23/2014  03:03:00     -176.395      -80.078       -6.809       47.443       35.858       24.691     2250.795     1285.780      609.635        2.086        0.207      193.721       22.279        0.013      334.824        5.049      860.172
04/23/2014  03:04:00     -198.438      -53.030        0.342       35.539       34.063       25.509     1263.013     1160.309      650.723        2.263        0.154      205.401       20.960        0.010      334.748        4.923      860.190
04/23/2014  03:05:00     -147.599      -85.760       -0.143       51.881       36.986       22.444     2691.655     1367.987      503.739        1.685        0.228      170.705       23.586        0.019      334.719        4.876      860.207
04/23/2014  03:06:00     -163.439     -108.944       -5.393       62.493       47.820       32.096     3905.322     2286.759     1030.144        2.291        0.361      196.421       27.652        0.020      334.698        4.840      860.219
04/23/2014  03:07:00     -146.562      -63.812        0.725       58.118       34.686       25.166     3377.725     1203.128      633.342        1.538        0.261      159.851       31.764        0.039      334.624        4.717      860.213
04/23/2014  03:08:00     -131.161      -49.538        0.642       43.983       33.961       22.571     1934.469     1153.380      509.458        1.163        0.180      140.204       22.399        0.026      334.588        4.660      860.198
04/23/2014  03:09:00     -133.412      -67.746       -9.769       38.390       31.202       16.891     1473.767      973.585      285.309        1.261        0.137      149.627        9.782        0.004      334.552        4.601      860.186
04/23/2014  03:10:00     -116.463      -54.322        0.814       42.620       34.622       22.286     1816.455     1198.703      496.649        1.001        0.176      128.509       24.786        0.037      334.527        4.559      860.179
04/23/2014  03:11:00     -103.947      -32.682       -1.510       29.361       28.932       18.549      862.076      837.079      344.080        0.696        0.102      108.964       17.376        0.025      334.557        4.610      860.179
04/23/2014  03:12:00      -52.919      -16.955        8.745       28.083       26.972       16.126      788.632      727.481      260.053        0.247        0.089       55.569       13.721        0.061      334.523        4.552      860.179
04/23/2014  03:13:00      -70.839      -34.291       -2.376       36.890       26.246       17.033     1360.893      688.834      290.134        0.427        0.117       78.702       20.496        0.068      334.699        4.844      860.170
04/23/2014  03:14:00      -59.335      -66.815        3.735       31.434       40.305       18.660      988.077     1624.459      348.209        0.548        0.148       89.358       18.463        0.043      334.723        4.885      860.181
04/23/2014  03:15:00      -69.894      -35.090        1.171       34.269       25.788       17.598     1174.355      664.997      309.694        0.413        0.107       78.208       16.461        0.044      334.715        4.871      860.196
04/23/2014  03:16:00      -47.890       -7.474        7.956       43.017       24.348       19.498     1850.481      592.822      380.191        0.262        0.141       48.470       21.077        0.189      334.634        4.736      860.221
04/23/2014  03:17:00      -99.897      -43.896       -4.542       28.528       29.055       16.094      813.873      844.181      259.021        0.692        0.096      109.116       15.266        0.020      334.717        4.875      860.250
04/23/2014  03:18:00      -99.272      -44.568       -8.269       23.884       30.151       18.134      570.446      909.105      328.833        0.686        0.090      108.818       14.300        0.017      334.708        4.857      860.280
04/23/2014  03:19:00      -83.913      -29.425        2.948       26.901       26.859       17.262      723.639      721.429      297.992        0.483        0.087       88.923       17.737        0.040      334.557        4.607      860.309
04/23/2014  03:20:00      -85.179      -32.948        1.194       36.571       25.914       21.526     1337.409      671.540      463.385        0.541        0.124       91.329       19.310        0.045      334.446        4.425      860.356
04/23/2014  03:21:00      -92.670      -20.003       -1.462       42.651       32.240       19.591     1819.137     1039.415      383.825        0.612        0.162       94.804       20.230        0.046      334.325        4.223      860.386
04/23/2014  03:22:00      -99.866      -44.724       -1.648       39.142       28.908       17.097     1532.102      835.664      292.318        0.732        0.133      109.424       16.173        0.022      334.382        4.318      860.397
04/23/2014  03:23:00      -89.065      -50.762        4.504       43.084       22.241       21.454     1856.261      494.660      460.284        0.667        0.141      102.515       23.263        0.051      334.394        4.339      860.393
04/23/2014  03:24:00      -89.235      -51.746       -1.700       18.861       18.650       14.259      355.730      347.805      203.315        0.577        0.045      103.153       11.784        0.013      334.439        4.413      860.384
04/23/2014  03:25:00      -74.286      -42.394       -0.814       32.484       22.281       16.191     1055.212      496.422      262.150        0.456        0.091       85.531       18.289        0.046      334.546        4.589      860.384
04/23/2014  03:26:00     -102.480      -18.210       -5.757       28.917       22.859       14.617      836.176      522.523      213.642        0.622        0.079      104.085       13.299        0.016      334.494        4.503      860.394
04/23/2014  03:27:00      -96.538      -35.586       -2.102       33.161       23.740       15.004     1099.677      563.609      225.125        0.624        0.094      102.888       17.232        0.028      334.343        4.254      860.406
04/23/2014  03:28:00     -117.120      -71.739        5.887       55.360       35.392       27.590     3064.766     1252.573      761.194        1.199        0.254      137.345       28.361        0.043      334.593        4.668      860.415
04/23/2014  03:29:00      -87.384      -17.224       -3.451       35.490       28.526       21.027     1259.566      813.742      442.127        0.523        0.126       89.065       19.468        0.048      334.331        4.233      860.434
04/23/2014  03:30:00      -59.171      -27.184        3.180       30.225       27.362       15.925      913.535      748.698      253.590        0.308        0.096       65.117       13.911        0.046      334.283        4.155      860.448
04/23/2014  03:31:00      -47.156      -68.819       -1.699       28.507       33.117       13.903      812.646     1096.765      193.291        0.453        0.105       83.425       11.265        0.018      334.498        4.510      860.453
04/23/2014  03:32:00      -33.056      -63.673       -7.387       17.710       22.055       13.261      313.639      486.402      175.859        0.309        0.049       71.742        7.046        0.010      334.642        4.749      860.453
04/23/2014  03:33:00      -63.002      -38.853       -5.358       31.560       19.756       11.783      996.025      390.314      138.831        0.352        0.076       74.019        7.955        0.012      334.606        4.689      860.455
04/23/2014  03:34:00      -74.389       -7.071       -5.478       12.698       18.362        9.061      161.248      337.172       82.109        0.310        0.029       74.724        4.454        0.004      334.386        4.324      860.473
04/23/2014  03:35:00      -40.320        5.448       -3.482       20.062       13.125        9.857      402.477      172.274       97.159        0.117        0.034       40.687       10.237        0.063      334.177        3.978      860.486
04/23/2014  03:36:00      -77.790       18.002      -10.391       11.581       11.311        9.726      134.111      127.939       94.602        0.342        0.018       79.846        4.762        0.004      334.175        3.974      860.504
04/23/2014  03:37:00      -80.840       36.446      -12.030       26.519       22.139       18.422      703.262      490.127      339.387        0.477        0.077       88.676       12.258        0.019      334.139        3.915      860.532
04/23/2014  03:38:00      -77.347       66.585      -17.860       30.772       33.226       20.157      946.929     1103.959      406.321        0.660        0.123      102.059       15.608        0.023      334.265        4.124      860.549
04/23/2014  03:39:00      -70.321       87.358      -17.672       26.800       30.999       16.532      718.244      960.925      273.308        0.742        0.098      112.145       13.623        0.015      334.444        4.421      860.568
04/23/2014  03:40:00       -1.439      106.003      -12.986       22.010       24.001       14.034      484.443      576.049      196.966        0.633        0.063      106.013       12.452        0.014      334.437        4.409      860.576
04/23/2014  03:41:00      -24.036       84.724       -4.072       13.203       35.432       16.782      174.310     1255.439      281.644        0.474        0.086       88.068       15.344        0.030      334.503        4.520      860.585
04/23/2014  03:42:00       -8.418       67.832       -6.010       26.263       23.636       14.058      689.735      558.657      197.613        0.308        0.072       68.352       11.625        0.029      334.448        4.428      860.582
04/23/2014  03:43:00       34.006       97.403      -11.000       30.216       42.496       25.279      913.017     1805.874      639.046        0.706        0.168      103.169       28.224        0.075      334.290        4.166      860.562
04/23/2014  03:44:00        8.817      145.265      -22.370       19.877       24.351       12.797      395.101      592.955      163.773        1.142        0.058      145.533        9.468        0.004      334.247        4.094      860.560
04/23/2014  03:45:00        0.151      121.628      -16.290       14.149       18.904       11.596      200.181      357.375      134.462        0.788        0.035      121.628        3.929        0.001      334.212        4.036      860.564
04/23/2014  03:46:00        5.314      106.933      -16.834       12.525       22.626        7.899      156.883      511.952       62.386        0.624        0.037      107.065        8.309        0.006      334.209        4.030      860.575
04/23/2014  03:47:00        6.588       83.643      -11.346       21.175       30.925       17.230      448.374      956.386      296.878        0.443        0.085       83.902       16.781        0.040      334.154        3.938      860.583
04/23/2014  03:48:00       13.133      123.146      -19.511       10.232       24.214        9.818      104.685      586.334       96.388        0.825        0.039      123.844        5.914        0.002      334.207        4.026      860.586
04/23/2014  03:49:00        3.386      112.036      -17.949       21.024       18.246        9.458      442.004      332.907       89.459        0.687        0.043      112.087        5.543        0.002      334.135        3.909      860.594
04/23/2014  03:50:00       -3.346       92.462      -12.446       11.200       21.654        8.718      125.438      468.882       76.007        0.469        0.034       92.522        6.888        0.006      334.160        3.948      860.590
04/23/2014  03:51:00      -20.604       11.974       -5.374       20.650       26.120       13.263      426.434      682.251      175.915        0.094        0.064       23.830        9.475        0.158      334.270        4.132      860.579
04/23/2014  03:52:00       -7.737        1.522        8.147       14.704        9.980        7.685      216.220       99.603       59.066        0.025        0.019        7.885        6.501        0.680      334.237        4.078      860.558
04/23/2014  03:53:00      -14.279        7.091       -4.137       18.877       27.747        9.872      356.324      769.885       97.458        0.075        0.061       15.943        8.337        0.273      334.333        4.239      860.559
04/23/2014  03:54:00       -8.689       -3.224        2.090       19.964        7.354        8.764      398.571       54.082       76.805        0.031        0.026        9.267       10.511        1.286      334.331        4.235      860.566
04/23/2014  03:55:00       -8.598       12.363       -2.018       14.591       12.354       14.599      212.891      152.633      213.126        0.040        0.029       15.059        9.521        0.400      334.281        4.150      860.572
04/23/2014  03:56:00      -48.695       45.540       -8.009       18.053       25.908       14.111      325.921      671.207      199.122        0.285        0.060       66.672        9.568        0.021      334.406        4.357      860.580
04/23/2014  03:57:00      -39.066       27.411        1.272       18.380       27.422       14.428      337.834      751.974      208.181        0.179        0.065       47.723       14.667        0.094      334.372        4.302      860.573
04/23/2014  03:58:00      -36.304       89.523      -12.588       45.332       65.295       29.469     2054.959     4263.479      868.411        0.834        0.359       96.604       32.150        0.111      334.381        4.316      860.561
04/23/2014  03:59:00      -49.233       48.714       -5.143       33.279       26.014       24.652     1107.515      676.727      607.745        0.361        0.120       69.260       13.530        0.038      334.307        4.193      860.543
04/23/2014  04:00:00      -58.228       61.710      -12.645       29.249       45.839       21.560      855.511     2101.205      464.830        0.539        0.171       84.845       19.993        0.056      334.405        4.356      860.532
04/23/2014  04:01:00      -44.685       63.408       -6.537       41.179       23.074       16.585     1695.669      532.411      275.063        0.428        0.125       77.571       17.449        0.051      334.493        4.502      860.521
04/23/2014  04:02:00       -7.112      119.958       -5.514       15.689       31.097       19.827      246.143      967.047      393.122        0.804        0.080      120.169       17.298        0.021      334.441        4.417      860.503
04/23/2014  04:03:00      -56.758       37.645        1.588       28.917       31.142       14.699      836.194      969.808      216.069        0.333        0.101       68.107       15.233        0.050      334.445        4.422      860.483
04/23/2014  04:04:00      -15.470       36.313        5.614       17.513       28.864       15.780      306.722      833.140      249.001        0.149        0.069       39.471       13.553        0.118      334.448        4.427      860.460
04/23/2014  04:05:00      -32.477       28.852      -10.489       27.734       39.868       12.142      769.171     1589.490      147.432        0.225        0.125       43.441       13.608        0.098      334.502        4.515      860.453
04/23/2014  04:06:00      -29.523       40.187       -5.916       33.486       24.837       20.143     1121.297      616.858      405.752        0.233        0.107       49.866       12.503        0.063      334.538        4.577      860.443
04/23/2014  04:07:00      -17.620       50.037       -4.759       24.654       28.688       12.089      607.804      822.997      146.152        0.221        0.079       53.049       13.714        0.067      334.454        4.437      860.429
04/23/2014  04:08:00      -39.211       -2.931       -5.535       17.983       17.461       11.900      323.382      304.878      141.618        0.117        0.038       39.320        5.393        0.019      334.498        4.510      860.407
04/23/2014  04:09:00      -54.525       38.983      -11.620       19.146       28.284       13.788      366.576      799.981      190.101        0.299        0.068       67.027       12.980        0.038      334.549        4.594      860.367
04/23/2014  04:10:00      -78.391       27.722      -11.904       21.677       24.112       13.441      469.902      581.392      180.648        0.414        0.062       83.149       11.490        0.019      334.541        4.582      860.343
04/23/2014  04:11:00      -88.664       -8.085       -9.511       32.764       18.851       17.768     1073.495      355.354      315.711        0.488        0.087       89.032       17.093        0.037      334.488        4.493      860.316
04/23/2014  04:12:00      -74.162       15.019      -10.826       26.032       38.422       14.924      677.649     1476.260      222.729        0.411        0.119       75.667       12.586        0.028      334.474        4.470      860.294
04/23/2014  04:13:00      -88.501      -42.713       -6.573       29.435       34.118       20.840      866.400     1164.010      434.313        0.608        0.123       98.269       21.114        0.046      334.514        4.535      860.269
04/23/2014  04:14:00      -81.640      -33.794       -6.319       18.399       32.524       17.048      338.533     1057.792      290.647        0.477        0.084       88.358       11.477        0.017      334.462        4.452      860.248
04/23/2014  04:15:00      -76.952      -48.181       -2.074       31.272       23.108       17.239      977.944      533.959      297.171        0.503        0.090       90.791       14.374        0.025      334.450        4.431      860.226
04/23/2014  04:16:00      -55.321      -49.550       -9.306       14.962       12.671        9.069      223.848      160.552       82.239        0.303        0.023       74.267        5.148        0.005      334.379        4.313      860.203
04/23/2014  04:17:00      -27.568      -31.803        7.659       30.655       15.461       18.974      939.735      239.051      360.026        0.168        0.077       42.088       19.912        0.224      334.384        4.322      860.191
04/23/2014  04:18:00      -16.825      -25.212        4.696       22.439       14.283       14.410      503.525      203.993      207.645        0.093        0.046       30.310       11.531        0.145      334.386        4.325      860.196
04/23/2014  04:19:00      -56.788       -7.997       -2.559       32.224       17.372       16.940     1038.417      301.788      286.975        0.246        0.081       57.348       19.676        0.118      334.317        4.210      860.221
04/23/2014  04:20:00      -90.193      -36.557      -14.108       14.621       12.120        9.605      213.778      146.890       92.255        0.506        0.023       97.320        8.117        0.007      334.319        4.212      860.263
04/23/2014  04:21:00      -79.347      -31.765       -7.400       11.554       16.256        7.936      133.486      264.242       62.981        0.391        0.023       85.469        7.107        0.007      334.261        4.118      860.295
04/23/2014  04:22:00      -82.141      -21.986      -16.423       11.194       14.730        9.519      125.308      216.984       90.608        0.397        0.022       85.032        5.452        0.004      334.312        4.202      860.310
04/23/2014  04:23:00      -69.593      -35.243       -9.942       16.165       17.184       12.945      261.313      295.285      167.583        0.345        0.036       78.008        8.000        0.011      334.240        4.083      860.311
04/23/2014  04:24:00      -68.878        3.239       -6.158       30.676       29.788       17.208      941.045      887.320      296.109        0.346        0.106       68.954       15.202        0.049      334.162        3.953      860.315
04/23/2014  04:25:00      -89.836        4.610       -9.961       19.445       12.926        9.199      378.094      167.088       84.614        0.441        0.031       89.955        6.357        0.005      334.189        3.997      860.315
04/23/2014  04:26:00     -104.877      -24.061      -13.836       14.762       18.430       12.036      217.910      339.683      144.872        0.624        0.035      107.602        6.217        0.003      334.206        4.024      860.321
04/23/2014  04:27:00     -100.277      -28.288      -15.835       19.285       13.530       10.685      371.897      183.069      114.173        0.589        0.033      104.191        7.941        0.006      334.174        3.971      860.327
04/23/2014  04:28:00      -73.422      -30.863       -7.615       20.014       28.606       16.371      400.548      818.314      268.022        0.394        0.074       79.645       12.669        0.025      334.129        3.900      860.331
04/23/2014  04:29:00      -54.067      -21.686       -6.465       23.556       30.900        9.360      554.896      954.832       87.606        0.252        0.080       58.253        2.945        0.003      334.156        3.941      860.336
04/23/2014  04:30:00      -48.890      -32.069       -1.620       28.283       29.638       18.877      799.922      878.409      356.329        0.273        0.102       58.469       11.027        0.036      334.079        3.815      860.346
04/23/2014  04:31:00      -67.067      -21.195      -16.802       26.448       16.121       11.035      699.506      259.883      121.782        0.316        0.054       70.337        9.666        0.019      334.112        3.868      860.364
04/23/2014  04:32:00       -8.979      -22.152        8.723       22.640       16.468       14.416      512.564      271.205      207.825        0.082        0.050       23.903       14.211        0.353      334.179        3.982      860.388
04/23/2014  04:33:00      -40.094      -40.575       -8.759       16.005       14.373        9.450      256.149      206.586       89.311        0.194        0.028       57.042        4.437        0.006      334.189        3.997      860.398
04/23/2014  04:34:00      -35.945       -6.789       -8.587       16.979       12.031       13.328      288.300      144.740      177.636        0.101        0.031       36.580        9.031        0.061      334.218        4.045      860.391
04/23/2014  04:35:00      -30.747       -6.506        2.612       17.836       13.789        8.656      318.129      190.136       74.919        0.079        0.029       31.428        5.862        0.035      334.233        4.069      860.385
04/23/2014  04:36:00      -24.296      -41.138        3.826       30.203       24.900       16.313      912.231      620.030      266.104        0.205        0.090       47.777       15.683        0.108      334.347        4.260      860.379
04/23/2014  04:37:00      -24.471      -14.517       -2.502       21.491       24.900       14.635      461.858      620.034      214.184        0.106        0.065       28.453        8.347        0.086      334.333        4.238      860.383
04/23/2014  04:38:00      -35.330       -9.345       -4.979       18.794       33.223       14.864      353.221     1103.736      220.931        0.152        0.084       36.545        7.121        0.038      334.342        4.252      860.402
04/23/2014  04:39:00      -20.864      -20.594        8.503       29.402       29.371       21.353      864.450      862.636      455.946        0.156        0.109       29.316       15.055        0.264      334.368        4.296      860.436
04/23/2014  04:40:00        6.563      -23.409        7.090       18.758       17.042       18.823      351.868      290.446      354.292        0.082        0.050       24.311       12.980        0.285      334.416        4.376      860.463
04/23/2014  04:41:00       -4.462       14.776       35.790       29.319       29.379       29.301      859.612      863.101      858.573        0.205        0.129       15.435       22.425        2.111      334.206        4.026      860.479
04/23/2014  04:42:00       12.519       45.863       86.265       52.617       72.737       48.672     2768.512     5290.644     2368.943        1.006        0.521       47.541       58.719        1.526      334.095        3.842      860.496
04/23/2014  04:43:00       64.824       -3.494       41.439       86.748       88.308       61.688     7525.144     7798.341     3805.463        1.253        0.956       64.918       69.815        1.157      334.080        3.815      860.488
04/23/2014  04:44:00       86.837      -90.677       26.674       84.267       99.303       72.482     7100.933     9861.087     5253.623        1.934        1.111      125.551       80.856        0.415      334.211        4.031      860.489
04/23/2014  04:45:00       63.602     -113.927       -0.687       69.698       64.794       40.641     4857.771     4198.235     1651.719        1.386        0.535      130.478       45.656        0.122      334.308        4.194      860.506
04/23/2014  04:46:00       77.984      -92.324       -5.551       46.432       57.275       31.948     2155.953     3280.399     1020.646        1.055        0.323      120.852       28.588        0.056      334.187        3.994      860.540
04/23/2014  04:47:00       61.339        3.589       31.193       44.280       19.936       20.324     1960.741      397.449      413.053        0.376        0.139       61.444       16.630        0.073      334.092        3.837      860.568
04/23/2014  04:48:00       18.087       14.789       37.397       26.183       30.762       20.413      685.559      946.270      416.678        0.200        0.102       23.364       16.606        0.505      334.088        3.829      860.573
04/23/2014  04:49:00       71.243       54.153       20.557       28.256       26.289       23.848      798.398      691.128      568.714        0.524        0.103       89.488        8.998        0.010      333.956        3.612      860.562
04/23/2014  04:50:00      101.544       77.388       43.925       35.258       20.909       22.889     1243.104      437.172      523.901        1.022        0.110      127.672       12.080        0.009      333.869        3.466      860.550
04/23/2014  04:51:00      107.864       75.688       37.269       21.663       19.789       20.283      469.277      391.615      411.409        1.001        0.064      131.770        8.487        0.004      333.873        3.474      860.551
04/23/2014  04:52:00       82.795       57.214       40.038       19.015       11.626       16.025      361.582      135.159      256.806        0.624        0.038      100.640        9.598        0.009      333.824        3.392      860.572
04/23/2014  04:53:00       56.118       51.315       43.989       18.102       12.586       18.944      327.676      158.415      358.858        0.428        0.042       76.043        8.598        0.013      333.809        3.366      860.580
04/23/2014  04:54:00       46.007      -35.445       18.535       40.169       48.606       24.714     1613.545     2362.558      610.776        0.415        0.229       58.077       27.250        0.220      333.916        3.545      860.598
04/23/2014  04:55:00       57.802      -34.999       19.380       42.684       41.068       35.174     1821.930     1686.591     1237.188        0.484        0.237       67.573       34.670        0.263      333.957        3.613      860.620
04/23/2014  04:56:00       28.283       -9.049       44.420       34.736       38.865       36.676     1206.605     1510.456     1345.117        0.346        0.203       29.696       29.338        0.976      333.933        3.574      860.641
04/23/2014  04:57:00       67.263      -57.231        7.370       38.838       40.587       37.513     1508.390     1647.317     1407.196        0.621        0.228       88.316       29.727        0.113      334.028        3.732      860.662
04/23/2014  04:58:00       24.294       -9.559       35.962       24.207       29.960       26.630      585.975      897.573      709.144        0.208        0.110       26.107       15.364        0.346      333.977        3.646      860.683
04/23/2014  04:59:00       58.207      -60.034       -1.704       31.806       31.735       26.369     1011.620     1007.112      695.298        0.485        0.136       83.619       15.353        0.034      334.154        3.940      860.697
04/23/2014  05:00:00       62.189      -63.773       -4.106       31.495       36.870       30.861      991.962     1359.388      952.384        0.563        0.165       89.076       27.614        0.096      334.076        3.810      860.692
04/23/2014  05:01:00       43.114      -92.748      -15.676       30.714       37.874       24.609      943.366     1434.458      605.610        0.684        0.149      102.279       20.201        0.039      334.222        4.053      860.689
04/23/2014  05:02:00        0.332      -79.218       11.339       37.131       53.763       32.329     1378.711     2890.496     1045.159        0.586        0.266       79.219       25.854        0.107      334.238        4.080      860.702
04/23/2014  05:03:00       32.590      -81.931      -15.059       32.854       38.852       22.077     1079.415     1509.473      487.386        0.554        0.154       88.175       14.541        0.027      334.181        3.985      860.722
04/23/2014  05:04:00       12.890      -31.162        2.959       26.011       36.281       17.979      676.551     1316.305      323.243        0.173        0.116       33.722       18.085        0.288      334.053        3.773      860.732
04/23/2014  05:05:00      -61.783       21.297        1.379       20.872       11.231       12.798      435.641      126.136      163.779        0.250        0.036       65.351       11.593        0.031      333.959        3.617      860.740
04/23/2014  05:06:00      -36.821       15.864       -4.643       17.434       16.305        8.873      303.961      265.859       78.724        0.114        0.032       40.093        8.518        0.045      333.977        3.649      860.747
04/23/2014  05:07:00       -6.522       13.011        7.392       12.835       22.051        9.128      164.742      486.257       83.316        0.050        0.037       14.554        5.360        0.136      333.952        3.606      860.739
04/23/2014  05:08:00       -0.646       -1.275        6.054       19.076       22.286       11.267      363.902      496.663      126.952        0.051        0.049        1.429       14.498      102.938      333.978        3.647      860.736
04/23/2014  05:09:00       31.508       10.786       15.111       31.983       21.749       20.429     1022.937      473.008      417.329        0.162        0.096       33.303       18.988        0.325      334.000        3.683      860.715
04/23/2014  05:10:00       -7.443       -1.884       23.600       10.104       18.015       11.210      102.096      324.545      125.670        0.058        0.028        7.678        6.304        0.674      333.961        3.620      860.680
04/23/2014  05:11:00       -3.517        8.001       33.647       20.514       26.659       22.124      420.814      710.713      489.482        0.141        0.081        8.740       13.249        2.298      333.967        3.628      860.654
04/23/2014  05:12:00       -2.454      -14.930       30.601       19.753       30.062       25.690      390.166      903.701      659.998        0.156        0.098       15.130       16.876        1.244      334.042        3.754      860.640
04/23/2014  05:13:00        7.314       14.573       46.667       27.607       32.194       31.338      762.148     1036.458      982.071        0.261        0.139       16.305       15.188        0.868      333.966        3.628      860.637
04/23/2014  05:14:00       11.041        7.304       53.522       25.421       41.402       29.100      646.241     1714.159      846.793        0.312        0.160       13.238       24.297        3.369      333.965        3.627      860.636
04/23/2014  05:15:00       33.955      -49.234       11.384       42.382       50.752       43.485     1796.269     2575.743     1890.914        0.498        0.313       59.807       40.638        0.462      334.099        3.848      860.630
04/23/2014  05:16:00       56.733      -79.271       -1.734       39.187       33.003       23.918     1535.645     1089.226      572.079        0.635        0.160       97.481       14.771        0.023      334.193        4.004      860.642
04/23/2014  05:17:00       25.699      -67.255       -9.458       30.755       28.026       21.892      945.885      785.429      479.267        0.374        0.111       71.997       16.970        0.056      334.237        4.077      860.667
04/23/2014  05:18:00      -11.508      -29.427        5.412       35.267       25.686       21.076     1243.780      659.775      444.182        0.169        0.117       31.597       13.458        0.181      334.161        3.952      860.709
04/23/2014  05:19:00       -2.008       -5.454       10.697       13.813       20.356       18.381      190.796      414.348      337.879        0.055        0.047        5.812       17.665        9.239      333.996        3.678      860.737
04/23/2014  05:20:00       -4.906       -9.656       18.742       19.244       33.149       28.312      370.324     1098.878      801.567        0.137        0.114       10.830       27.156        6.287      334.072        3.803      860.757
04/23/2014  05:21:00        9.987       17.692       63.645       30.553       51.900       26.670      933.481     2693.565      711.270        0.440        0.217       20.316       32.195        2.511      334.083        3.821      860.769
04/23/2014  05:22:00       -7.644       55.271       72.574       15.702       25.258       19.586      246.554      637.968      383.616        0.482        0.063       55.797       18.364        0.108      334.010        3.701      860.775
04/23/2014  05:23:00       11.661       -2.091       31.308       22.272       32.477       16.647      496.038     1054.738      277.118        0.147        0.091       11.847       19.861        2.810      333.976        3.645      860.777
04/23/2014  05:24:00       -2.305      -44.105        3.009       32.186       25.478       18.462     1035.953      649.153      340.858        0.199        0.101       44.165       11.512        0.068      334.153        3.938      860.782
04/23/2014  05:25:00      -20.487        6.790       13.124       24.798       19.376       22.094      614.942      375.442      488.125        0.106        0.074       21.583       19.235        0.794      333.922        3.556      860.795
04/23/2014  05:26:00      -27.172       21.334       -4.357       41.124       25.911       12.418     1691.180      671.378      154.212        0.186        0.126       34.546        6.835        0.039      333.774        3.309      860.818
04/23/2014  05:27:00      -73.241       -8.288      -13.444       28.505       19.694       21.721      812.541      387.843      471.785        0.364        0.084       73.708       10.282        0.019      333.691        3.171      860.833
04/23/2014  05:28:00     -120.234      -48.815      -11.885       49.083       32.078       23.928     2409.101     1029.023      572.557        1.049        0.201      129.766       21.463        0.027      333.498        2.852      860.855
04/23/2014  05:29:00     -143.573      -35.073      -21.454       23.240       32.787       20.908      540.075     1074.958      437.161        1.218        0.103      147.795       10.074        0.005      333.380        2.656      860.888
04/23/2014  05:30:00     -113.655      -43.274      -11.001       30.464       36.110       22.846      928.062     1303.939      521.934        0.883        0.138      121.615       15.347        0.016      333.419        2.721      860.911
04/23/2014  05:31:00      -91.583      -35.404       -1.489       32.625       28.706       14.493     1064.381      824.033      210.038        0.587        0.105       98.188        7.580        0.006      333.397        2.684      860.929
04/23/2014  05:32:00      -91.653      -32.858       -9.995       31.083       29.300       15.585      966.156      858.495      242.891        0.582        0.103       97.365       13.073        0.018      333.406        2.699      860.940
04/23/2014  05:33:00      -92.993      -12.529       -6.963       27.877       31.122       16.530      777.123      968.571      273.249        0.544        0.101       93.834        7.288        0.006      333.321        2.559      860.937
04/23/2014  05:34:00     -118.138       -5.206      -11.240       26.588       24.622       16.059      706.913      606.241      257.882        0.784        0.079      118.253       12.035        0.010      333.281        2.491      860.943
04/23/2014  05:35:00     -127.874       -9.943      -15.055       24.070       29.368       15.881      579.346      862.468      252.209        0.919        0.085      128.260       12.111        0.009      333.344        2.598      860.940
04/23/2014  05:36:00     -121.430        2.564       -8.613       27.205       28.928       19.162      740.098      836.812      367.186        0.838        0.097      121.457       14.568        0.014      333.269        2.473      860.946
04/23/2014  05:37:00     -121.626       11.607       -9.049       24.193       23.241       19.524      585.313      540.147      381.202        0.826        0.075      122.178       12.661        0.011      333.327        2.569      860.944
04/23/2014  05:38:00     -149.343       -2.465      -15.542       22.216       20.632       14.663      493.569      425.691      215.015        1.184        0.057      149.364        8.772        0.003      333.401        2.691      860.950
04/23/2014  05:39:00     -147.012       -0.377      -11.803       24.913       18.837       13.632      620.654      354.818      185.832        1.146        0.058      147.012        9.454        0.004      333.373        2.644      860.961
04/23/2014  05:40:00     -132.206      -16.334      -12.546       29.374       29.204       15.308      862.838      852.893      234.343        0.993        0.098      133.211        8.475        0.004      333.303        2.529      860.977
04/23/2014  05:41:00     -155.798       -4.330       -8.882       38.099       31.785       21.982     1451.538     1010.287      483.192        1.366        0.147      155.858       17.501        0.013      333.170        2.311      860.985
04/23/2014  05:42:00     -146.990       12.174       -7.617       40.439       20.583       22.348     1635.342      423.644      499.421        1.218        0.128      147.493       23.456        0.025      333.133        2.248      860.996
04/23/2014  05:43:00     -123.601        6.615       -5.841       27.411       26.014       19.212      751.374      676.728      369.117        0.858        0.090      123.778       14.754        0.014      333.158        2.289      860.998
04/23/2014  05:44:00     -113.072       -5.518      -11.489       35.406       26.734       19.350     1253.613      714.700      374.417        0.764        0.117      113.206       16.494        0.021      333.131        2.244      860.995
04/23/2014  05:45:00     -107.497        2.049       -4.682       31.431       20.157       18.150      987.926      406.289      329.427        0.665        0.086      107.517       17.978        0.028      333.159        2.290      860.986
04/23/2014  05:46:00     -103.110       -4.163       -8.870       30.719       24.017       19.008      943.664      576.834      361.322        0.630        0.094      103.194       17.411        0.028      333.207        2.370      860.984
04/23/2014  05:47:00     -100.394       -6.714       -5.039       35.060       20.046       18.100     1229.198      401.838      327.619        0.605        0.098      100.618       18.681        0.034      333.212        2.377      860.979
04/23/2014  05:48:00     -108.979      -21.868       -5.504       36.542       21.499       21.487     1335.300      462.228      461.671        0.732        0.113      111.151       20.096        0.033      333.163        2.298      860.970
04/23/2014  05:49:00      -68.680       -4.307       -3.314       40.973       33.325       19.315     1678.795     1110.580      373.084        0.395        0.158       68.815       17.590        0.065      333.068        2.143      860.965
04/23/2014  05:50:00     -114.662       34.006       -1.812       36.312       27.107       20.300     1318.553      734.784      412.095        0.839        0.123      119.598       10.396        0.008      333.087        2.173      860.952
04/23/2014  05:51:00     -137.759       34.301      -13.350       38.976       29.461       22.139     1519.094      867.944      490.136        1.160        0.144      141.965       16.220        0.013      333.117        2.222      860.935
04/23/2014  05:52:00      -90.110       19.998       -9.914       51.258       43.747       19.798     2627.413     1913.778      391.962        0.677        0.247       92.302       17.722        0.037      333.158        2.290      860.924
04/23/2014  05:53:00     -107.221       -9.652      -16.215       26.613       22.396       15.909      708.235      501.592      253.099        0.666        0.073      107.655       10.415        0.009      333.237        2.419      860.920
04/23/2014  05:54:00     -118.566      -44.930       -4.897       30.335       31.327       17.497      920.219      981.365      306.135        0.915        0.110      126.794       14.597        0.013      333.233        2.414      860.923
04/23/2014  05:55:00     -160.888        7.544       -7.675       57.985       55.060       30.662     3362.237     3031.591      940.168        1.667        0.367      161.064       27.183        0.028      333.018        2.058      860.928
04/23/2014  05:56:00     -154.177       12.721       -5.928       34.503       32.869       24.605     1190.426     1080.365      605.405        1.342        0.144      154.700       13.282        0.007      332.984        2.001      860.924
04/23/2014  05:57:00     -122.750      -10.458       -4.207       61.990       52.058       29.297     3842.760     2710.011      858.312        1.130        0.371      123.194       29.054        0.056      333.131        2.243      860.911
04/23/2014  05:58:00      -41.916      -16.050       -2.512       24.019       25.166       19.964      576.895      633.331      398.543        0.181        0.080       44.884       10.290        0.053      333.175        2.316      860.900
04/23/2014  05:59:00      -32.596       -3.235        7.828       25.480       18.510       15.688      649.217      342.613      246.106        0.119        0.062       32.756        5.090        0.024      333.169        2.307      860.895
04/23/2014  06:00:00       -5.710      -18.304        2.567       12.341        7.436       10.412      152.307       55.295      108.414        0.035        0.016       19.174        8.299        0.187      333.253        2.445      860.897
04/23/2014  06:01:00        7.130       -5.773       -1.065        8.523       12.407        8.873       72.644      153.931       78.738        0.020        0.015        9.174        4.243        0.214      333.292        2.511      860.918
04/23/2014  06:02:00      -59.109       -9.948       -9.869       21.546       15.986       10.576      464.232      255.551      111.857        0.226        0.042       59.941        9.854        0.027      333.293        2.513      860.951
04/23/2014  06:03:00      -77.767      -24.516       -8.397       22.169       21.611       13.125      491.454      467.040      172.262        0.392        0.057       81.540       11.539        0.020      333.145        2.269      860.995
04/23/2014  06:04:00      -59.706      -19.422       -9.124       13.191       15.495       11.455      174.013      240.089      131.211        0.229        0.027       62.785        4.370        0.005      333.114        2.217      861.015
04/23/2014  06:05:00      -42.630      -15.401      -10.250       10.603        9.440        8.925      112.415       89.105       79.658        0.122        0.014       45.326        6.057        0.018      333.157        2.287      861.025
04/23/2014  06:06:00      -42.527      -18.066       -8.562       16.410       11.511        7.591      269.279      132.496       57.618        0.133        0.023       46.205        3.500        0.006      333.230        2.408      861.026
04/23/2014  06:07:00      -79.647      -21.975       -7.530       16.052       12.453        9.617      257.658      155.082       92.484        0.369        0.025       82.623        5.981        0.005      333.279        2.490      861.030
04/23/2014  06:08:00      -88.862       -8.217       -1.118       38.330       35.879       18.750     1469.178     1287.311      351.558        0.554        0.155       89.241       15.486        0.030      333.091        2.180      861.045
04/23/2014  06:09:00     -112.704       -2.018       -0.730       50.773       44.243       30.066     2577.910     1957.436      903.994        0.907        0.272      112.722       28.068        0.062      332.857        1.793      861.076
04/23/2014  06:10:00      -96.456      -12.671       -5.122       66.463       27.221       27.861     4417.386      740.967      776.246        0.771        0.297       97.285       36.037        0.137      332.937        1.925      861.080
04/23/2014  06:11:00      -60.928      -16.859       -4.045       43.731       26.363       18.920     1912.402      695.020      357.948        0.349        0.148       63.218       23.266        0.135      332.946        1.940      861.071
04/23/2014  06:12:00      -48.106      -33.916       -6.946       23.429       12.352       13.463      548.902      152.575      181.243        0.220        0.044       58.860       13.869        0.056      333.022        2.064      861.062
04/23/2014  06:13:00      -43.038      -37.206       -1.531       32.387       15.051       15.394     1048.916      226.525      236.985        0.238        0.076       56.891       15.653        0.076      333.143        2.264      861.066
04/23/2014  06:14:00      -97.229      -33.675       -7.122       24.478       24.967       14.740      599.163      623.367      217.257        0.604        0.072      102.896        7.682        0.006      333.210        2.375      861.080
04/23/2014  06:15:00     -128.196      -21.989      -10.885       38.169       29.664       18.138     1456.863      879.965      329.003        0.985        0.133      130.068       18.722        0.021      333.051        2.111      861.099
04/23/2014  06:16:00     -118.638        0.097      -19.169       26.479       31.292       17.048      701.119      979.208      290.638        0.821        0.099      118.639       10.502        0.008      332.971        1.980      861.106
04/23/2014  06:17:00      -80.165      -27.307       -5.687       31.279       28.468       17.289      978.395      810.434      298.919        0.465        0.104       84.688       16.765        0.039      333.028        2.076      861.100
04/23/2014  06:18:00      -82.826       -6.859        1.778       28.108       27.185       17.347      790.078      739.016      300.908        0.437        0.092       83.109       17.049        0.042      333.113        2.215      861.080
04/23/2014  06:19:00      -67.707       -8.051       -3.241       24.767       20.858       14.961      613.404      435.052      223.846        0.297        0.064       68.184       11.282        0.027      333.139        2.259      861.069
04/23/2014  06:20:00      -42.527      -25.821       -2.360       21.698       17.885       11.548      470.815      319.875      133.357        0.170        0.046       49.752       12.578        0.064      333.279        2.489      861.056
04/23/2014  06:21:00      -69.372       -6.798       -6.652       26.595       15.515       11.459      707.289      240.720      131.305        0.299        0.054       69.705        7.127        0.010      333.318        2.554      861.058
04/23/2014  06:22:00      -89.966      -12.274       -1.127       40.407       23.046       16.395     1632.765      531.109      268.789        0.534        0.122       90.799       18.198        0.040      333.170        2.309      861.064
04/23/2014  06:23:00      -97.168        0.949      -10.750       37.323       28.648       20.985     1393.035      820.680      440.359        0.611        0.133       97.172       20.648        0.045      333.007        2.041      861.073
04/23/2014  06:24:00      -83.990       -4.853       -7.277       34.782       23.747       19.752     1209.761      563.903      390.132        0.465        0.108       84.130       17.960        0.046      332.981        1.995      861.080
04/23/2014  06:25:00      -35.880       -8.754        3.181       34.377       30.198       20.111     1181.753      911.923      404.466        0.194        0.125       36.932       12.928        0.123      332.985        2.005      861.090
04/23/2014  06:26:00      -69.678      -36.193       12.100       49.245       43.314       25.456     2425.048     1876.108      648.028        0.563        0.247       78.517       21.775        0.077      333.041        2.095      861.097
04/23/2014  06:27:00     -166.065       17.126       -8.127       73.395       48.104       34.004     5386.878     2314.042     1156.244        1.840        0.443      166.946       41.108        0.061      332.911        1.881      861.113
04/23/2014  06:28:00     -140.755       13.637      -20.482       33.297       30.915       22.716     1108.719      955.756      516.011        1.150        0.129      141.414       10.941        0.006      332.866        1.809      861.122
04/23/2014  06:29:00      -98.535        7.532       -6.954       30.896       31.020       17.092      954.581      962.259      292.138        0.601        0.110       98.823        8.690        0.008      332.822        1.735      861.134
04/23/2014  06:30:00      -68.513       -9.262       -5.068       20.721       18.933       12.594      429.360      358.460      158.614        0.288        0.047       69.136        5.597        0.007      332.989        2.012      861.134
04/23/2014  06:31:00      -75.144       -5.430       -7.373       27.045       20.463       11.215      731.447      418.736      125.786        0.350        0.064       75.339       10.600        0.020      333.028        2.075      861.137
04/23/2014  06:32:00      -77.238      -37.127        1.600       34.921       25.840       18.048     1219.446      667.708      325.731        0.478        0.111       85.698       10.979        0.016      333.128        2.239      861.140
04/23/2014  06:33:00     -117.089      -24.152       -7.894       30.357       31.883       20.739      921.528     1016.511      430.120        0.836        0.118      119.554        8.751        0.005      333.037        2.091      861.149
04/23/2014  06:34:00      -80.759      -31.476      -10.750       25.676       23.877       17.705      659.270      570.119      313.464        0.459        0.077       86.676       17.083        0.039      333.078        2.157      861.147
04/23/2014  06:35:00      -75.340        7.349       -8.104       32.624       26.589       14.918     1064.355      706.996      222.553        0.389        0.100       75.697       14.912        0.039      333.035        2.088      861.137
04/23/2014  06:36:00      -67.254      -10.962       -3.096       21.675       13.207       13.988      469.791      174.415      195.675        0.275        0.042       68.142       12.474        0.034      333.020        2.061      861.116
04/23/2014  06:37:00      -56.012       -4.064       -3.006       21.078       13.849        7.735      444.279      191.782       59.833        0.193        0.035       56.160        3.863        0.005      333.040        2.096      861.101
04/23/2014  06:38:00      -18.354      -12.245        2.365       22.724       13.175       13.505      516.381      173.568      182.374        0.068        0.044       22.064       14.130        0.410      333.187        2.336      861.105
04/23/2014  06:39:00        3.427       -4.772       11.093       18.379       11.946       14.184      337.782      142.701      201.190        0.042        0.034        5.875       14.349        5.965      333.273        2.479      861.110
04/23/2014  06:40:00      -23.180       -3.814      -13.387       16.837       17.374       11.135      283.481      301.845      123.984        0.072        0.035       23.492       10.627        0.205      333.147        2.272      861.123
04/23/2014  06:41:00      -17.999       -2.585        1.969       11.820       11.498       10.235      139.711      132.214      104.753        0.036        0.019       18.183        4.099        0.051      333.258        2.453      861.120
04/23/2014  06:42:00      -44.417        7.601       -6.131       10.773       10.259        8.710      116.066      105.243       75.866        0.118        0.015       45.063        4.026        0.008      333.230        2.406      861.129
04/23/2014  06:43:00       -6.423       19.225        3.413       15.107        7.521       10.096      228.210       56.567      101.925        0.040        0.019       20.269        5.136        0.064      333.291        2.507      861.127
04/23/2014  06:44:00       33.464       33.521       11.445       19.201       14.437       12.088      368.696      208.416      146.113        0.155        0.036       47.366        8.175        0.030      333.336        2.584      861.126
04/23/2014  06:45:00       65.211       50.785       16.985       22.165       14.938       17.532      491.292      223.131      307.359        0.407        0.051       82.653       13.461        0.027      333.427        2.733      861.123
04/23/2014  06:46:00       91.002       58.219        8.613       28.477       13.938       13.337      810.967      194.281      177.876        0.646        0.059      108.031       11.337        0.011      333.447        2.766      861.147
04/23/2014  06:47:00      142.580       96.663       23.498       51.189       43.139       40.084     2620.336     1860.979     1606.701        1.816        0.304      172.258       30.349        0.031      333.389        2.671      861.183
04/23/2014  06:48:00      146.892       91.743       18.580       50.168       38.005       38.391     2516.805     1444.342     1473.881        1.789        0.272      173.188       27.799        0.026      333.132        2.247      861.207
04/23/2014  06:49:00      113.326       75.932       25.859       38.042       28.573       30.186     1447.226      816.436      911.195        1.123        0.159      136.413       16.155        0.014      333.192        2.344      861.221
04/23/2014  06:50:00       65.611       18.703       21.853       48.297       29.730       27.670     2332.627      883.884      765.650        0.456        0.199       68.225       17.101        0.063      333.392        2.677      861.234
04/23/2014  06:51:00       47.704       35.923        9.069       20.901       10.579       13.291      436.842      111.913      176.661        0.219        0.036       59.717        8.044        0.018      333.401        2.691      861.236
04/23/2014  06:52:00       31.246       44.693        3.709       12.341       10.514        7.940      152.297      110.534       63.043        0.166        0.016       54.533        5.434        0.010      333.487        2.834      861.242
04/23/2014  06:53:00       35.009       34.492       35.011       23.414       20.497       14.729      548.230      420.134      216.934        0.241        0.059       49.146        8.026        0.027      333.676        3.147      861.248
04/23/2014  06:54:00       47.914       38.118       32.305       26.495       17.058       22.202      702.009      290.977      492.941        0.314        0.074       61.227       11.923        0.038      333.697        3.182      861.271
04/23/2014  06:55:00       44.964       41.436       43.225       21.884       19.590       12.847      478.914      383.778      165.042        0.332        0.051       61.145       10.231        0.028      333.712        3.207      861.292
04/23/2014  06:56:00       17.399       35.510       50.784       18.217       23.982       13.929      331.867      575.120      194.010        0.262        0.055       39.544       13.676        0.120      333.813        3.373      861.301
04/23/2014  06:57:00       50.270       50.316       50.200       30.727       24.371       24.220      944.119      593.957      586.632        0.485        0.106       71.125       20.605        0.084      333.695        3.179      861.316
04/23/2014  06:58:00       47.141       56.850       58.507       30.979       24.543       16.555      959.682      602.353      274.054        0.536        0.092       73.852       11.629        0.025      333.727        3.231      861.326
04/23/2014  06:59:00       26.915       39.126       50.534       39.480       25.382       21.441     1558.705      644.269      459.704        0.374        0.133       47.490       19.794        0.174      333.861        3.454      861.344
04/23/2014  07:00:00       45.144       55.096       40.920       41.272       32.307       36.364     1703.396     1043.756     1322.328        0.541        0.203       71.229       31.810        0.199      333.817        3.381      861.376
04/23/2014  07:01:00       86.049       53.327       26.816       23.572       22.803       29.592      555.617      519.979      875.705        0.646        0.098      101.233       16.492        0.027      333.722        3.224      861.387
04/23/2014  07:02:00       33.451       58.405       45.966       40.408       29.963       26.945     1632.840      897.757      726.026        0.495        0.163       67.307       22.987        0.117      333.935        3.576      861.409
04/23/2014  07:03:00       50.648       55.038       45.237       31.083       27.421       24.607      966.155      751.918      605.526        0.498        0.116       74.796       16.075        0.046      333.903        3.524      861.400
04/23/2014  07:04:00       94.179       60.327        3.596       41.429       29.306       28.363     1716.323      858.833      804.488        0.795        0.169      111.844       19.467        0.030      333.843        3.423      861.395
04/23/2014  07:05:00      118.941       54.755        5.123       41.717       35.689       34.771     1740.308     1273.675     1208.994        1.070        0.211      130.939       25.991        0.039      333.785        3.327      861.383
04/23/2014  07:06:00       87.874       69.788       14.636       41.261       32.151       32.412     1702.434     1033.682     1050.509        0.830        0.189      112.215        9.403        0.007      333.748        3.267      861.377
04/23/2014  07:07:00      133.998       65.356        1.947       29.205       21.830       22.112      852.951      476.552      488.927        1.202        0.091      149.087       14.475        0.009      333.619        3.050      861.366
04/23/2014  07:08:00       85.385       43.379        0.218       35.274       33.657       27.349     1244.242     1132.822      747.951        0.615        0.156       95.772       19.106        0.040      333.766        3.296      861.344
04/23/2014  07:09:00      101.411       41.021       12.054       44.849       36.615       25.550     2011.471     1340.650      652.823        0.806        0.200      109.393       15.376        0.020      333.791        3.339      861.348
04/23/2014  07:10:00       75.624       38.518        9.188       30.491       33.042       23.234      929.694     1091.773      539.800        0.492        0.128       84.868        5.109        0.004      333.785        3.326      861.344
04/23/2014  07:11:00       43.412       40.027       16.675       27.330       24.743       17.299      746.910      612.221      299.252        0.271        0.083       59.049       10.428        0.031      333.889        3.499      861.351
04/23/2014  07:12:00       62.210       58.380        4.960       35.812       27.401       21.907     1282.527      750.814      479.914        0.491        0.126       85.313       15.334        0.032      333.840        3.419      861.353
04/23/2014  07:13:00       56.801       56.994        2.536       32.515       21.306       22.919     1057.256      453.949      525.302        0.426        0.102       80.466       11.263        0.020      333.788        3.332      861.368
04/23/2014  07:14:00       38.281       39.243       11.129       34.734       29.505       24.169     1206.443      870.549      584.151        0.289        0.133       54.821       20.985        0.147      334.056        3.778      861.377
04/23/2014  07:15:00       60.531       55.215       12.088       39.365       28.426       27.393     1549.568      808.009      750.375        0.498        0.155       81.932       20.645        0.063      334.045        3.757      861.392
04/23/2014  07:16:00       97.955       72.604       -6.420       25.520       20.907       18.216      651.256      437.101      331.837        0.816        0.071      121.928       13.094        0.012      333.826        3.395      861.404
04/23/2014  07:17:00       80.724       55.777       15.082       37.566       27.584       31.255     1411.178      760.902      976.857        0.650        0.157       98.120       22.480        0.052      334.126        3.893      861.415
04/23/2014  07:18:00       81.218       46.845       10.637       29.932       24.089       26.981      895.916      580.297      727.988        0.555        0.110       93.759       18.958        0.041      334.088        3.831      861.409
04/23/2014  07:19:00       71.082       54.671        3.502       24.166       21.977       24.342      583.990      482.987      592.543        0.486        0.083       89.675       15.080        0.028      333.996        3.677      861.413
04/23/2014  07:20:00       76.896       56.110        9.072       25.260       25.891       25.517      638.092      670.369      651.094        0.555        0.098       95.191       16.469        0.030      334.103        3.855      861.415
04/23/2014  07:21:00       77.927       60.348       38.314       25.944       28.467       31.265      673.083      810.363      977.485        0.682        0.123       98.563        7.159        0.005      334.103        3.855      861.429
04/23/2014  07:22:00       51.346       31.576       17.599       23.029       20.659       25.730      530.316      426.813      662.041        0.278        0.081       60.278       16.604        0.076      334.125        3.891      861.440
04/23/2014  07:23:00       45.585       28.895        6.745       21.719       18.207       19.781      471.699      331.479      391.271        0.208        0.060       53.972        6.015        0.012      334.273        4.138      861.459
04/23/2014  07:24:00       39.234       61.674       -6.254       20.277       17.550       18.323      411.159      307.986      335.725        0.322        0.053       73.096       11.671        0.025      334.223        4.054      861.483
04/23/2014  07:25:00       39.144       47.988        5.298       34.115       18.039       22.030     1163.847      325.411      485.315        0.292        0.099       61.928        8.843        0.020      334.411        4.367      861.499
04/23/2014  07:26:00       78.506       42.322        5.902       23.680       21.769       19.777      560.756      473.907      391.124        0.471        0.071       89.187       12.311        0.019      334.290        4.165      861.521
04/23/2014  07:27:00       61.404       34.219       12.709       48.264       31.128       25.615     2329.378      968.959      656.118        0.453        0.198       70.295       21.766        0.096      334.493        4.502      861.547
04/23/2014  07:28:00      138.610       68.933        9.722       39.542       35.075       33.519     1563.537     1230.242     1123.532        1.399        0.196      154.805        9.991        0.004      334.163        3.953      861.550
04/23/2014  07:29:00      102.632       64.058       19.864       48.482       32.302       32.005     2350.533     1043.450     1024.309        0.972        0.221      120.983       27.790        0.053      334.153        3.938      861.552
04/23/2014  07:30:00      106.510       88.119        9.727       35.733       26.297       30.794     1276.877      691.521      948.292        1.106        0.146      138.237       20.564        0.022      334.072        3.805      861.542
04/23/2014  07:31:00      144.129       73.656        2.945       29.425       21.994       24.429      865.807      483.738      596.765        1.408        0.097      161.859        7.343        0.002      333.996        3.677      861.533
04/23/2014  07:32:00      121.476       85.908        7.128       27.533       16.348       20.377      758.077      267.264      415.207        1.181        0.072      148.784        4.874        0.001      334.006        3.694      861.534
04/23/2014  07:33:00      120.245       60.172        8.541       37.559       31.216       25.151     1410.698      974.440      632.566        1.058        0.151      134.460       19.529        0.021      334.099        3.846      861.533
04/23/2014  07:34:00      134.282       78.103        4.482       39.747       38.387       35.569     1579.839     1473.588     1265.127        1.423        0.216      155.344       19.944        0.016      334.096        3.843      861.528
04/23/2014  07:35:00       73.366       63.217       25.997       46.230       29.575       28.319     2137.245      874.708      801.974        0.693        0.191       96.845        6.533        0.005      334.465        4.453      861.550
04/23/2014  07:36:00      112.780       65.338       25.351       62.471       41.278       32.441     3902.595     1703.851     1052.443        1.214        0.333      130.339       18.180        0.019      334.330        4.231      861.558
04/23/2014  07:37:00      111.313       53.194       19.463       60.778       30.848       37.968     3693.979      951.606     1441.573        1.084        0.304      123.370       38.683        0.098      334.269        4.130      861.569
04/23/2014  07:38:00       59.048       31.839       19.339       55.591       29.669       29.015     3090.304      880.271      841.853        0.484        0.241       67.085       28.438        0.180      334.435        4.405      861.579
04/23/2014  07:39:00       62.861       61.328       12.208       53.521       42.967       42.463     2864.453     1846.140     1803.092        0.719        0.326       87.822       31.823        0.131      334.538        4.576      861.583
04/23/2014  07:40:00       76.066       51.302       13.067       34.285       36.384       37.224     1175.478     1323.777     1385.595        0.624        0.194       91.750       22.627        0.061      334.481        4.482      861.592
04/23/2014  07:41:00       90.619       58.789       11.481       38.385       29.195       33.720     1473.416      852.352     1137.061        0.763        0.173      108.018       19.292        0.032      334.385        4.322      861.594
04/23/2014  07:42:00       55.310       89.022        2.495       53.765       49.430       32.763     2890.635     2443.278     1073.442        0.870        0.320      104.805       30.173        0.083      334.424        4.386      861.599
04/23/2014  07:43:00       57.904       50.513       11.810       54.573       40.025       34.366     2978.224     1601.963     1181.021        0.590        0.288       76.840       30.898        0.162      334.673        4.801      861.605
04/23/2014  07:44:00       85.176       43.083       19.997       48.720       34.949       43.383     2373.676     1221.406     1882.111        0.749        0.274       95.452       33.209        0.121      334.421        4.384      861.619
04/23/2014  07:45:00      107.487       53.821        2.037       47.245       35.956       26.304     2232.123     1292.812      691.919        0.933        0.211      120.208       12.756        0.011      334.347        4.260      861.628
04/23/2014  07:46:00       84.123       79.372        9.259       25.696       20.909       22.955      660.264      437.181      526.917        0.754        0.081      115.658        6.908        0.004      334.311        4.201      861.643
04/23/2014  07:47:00       85.544       91.316        3.383       46.162       34.508       39.355     2130.975     1190.804     1548.789        1.027        0.244      125.126       29.347        0.055      334.604        4.687      861.637
04/23/2014  07:48:00       29.060       20.230       38.538       46.287       56.985       35.145     2142.518     3247.317     1235.158        0.468        0.331       35.408       34.664        0.958      334.792        4.998      861.642
04/23/2014  07:49:00      101.955       67.492       17.487       30.828       44.041       32.755      950.375     1939.581     1072.867        0.961        0.198      122.270       26.644        0.047      334.505        4.522      861.653
04/23/2014  07:50:00      120.782       92.262        8.805       23.379       22.691       23.495      546.578      514.869      552.024        1.240        0.081      151.989       14.049        0.009      334.243        4.086      861.655
04/23/2014  07:51:00       78.324       82.494       36.700       39.884       30.975       29.416     1590.725      959.455      865.273        0.885        0.171      113.754       22.477        0.039      334.519        4.546      861.661
04/23/2014  07:52:00       37.274       73.068       80.129       33.875       32.606       24.664     1147.547     1063.179      608.303        0.798        0.141       82.026       14.587        0.032      334.621        4.714      861.660
04/23/2014  07:53:00      122.498       87.673       50.879       37.494       34.666       36.155     1405.779     1201.734     1307.208        1.460        0.196      150.639       26.898        0.032      334.319        4.213      861.655
04/23/2014  07:54:00       77.480       55.483       38.395       32.937       27.450       29.583     1084.847      753.490      875.166        0.663        0.136       95.297       21.867        0.053      334.468        4.463      861.648
04/23/2014  07:55:00       46.957       37.042       -2.524       17.327       29.693       20.085      300.209      881.654      403.419        0.258        0.079       59.809        7.591        0.016      334.390        4.332      861.643
04/23/2014  07:56:00       -5.437       16.874       11.434       29.478       19.490       19.338      868.948      379.859      373.952        0.103        0.081       17.728       16.006        0.815      334.836        5.072      861.633
04/23/2014  07:57:00       12.867       71.276        5.737       38.107       31.765       27.630     1452.151     1009.020      763.398        0.425        0.161       72.428       21.378        0.087      334.772        4.966      861.623
04/23/2014  07:58:00       75.233       83.765       -7.852       32.428       39.319       26.749     1051.578     1545.958      715.525        0.802        0.166      112.590       22.085        0.038      334.544        4.587      861.601
04/23/2014  07:59:00       65.966       80.221       -3.608       61.712       36.795       37.774     3808.312     1353.842     1426.877        0.869        0.329      103.860       30.566        0.087      334.629        4.729      861.595
04/23/2014  08:00:00       21.038      100.314       -4.666       27.941       46.273       29.932      780.702     2141.174      895.916        0.717        0.191      102.497       29.208        0.081      334.707        4.857      861.580
04/23/2014  08:01:00       58.934       44.143       -2.402       48.768       25.537       33.515     2378.318      652.160     1123.252        0.479        0.208       73.633       17.480        0.056      334.676        4.805      861.584
04/23/2014  08:02:00       36.286       25.499        2.234       23.120       30.576       23.909      534.553      934.865      571.661        0.201        0.102       44.350       13.301        0.090      334.678        4.809      861.587
04/23/2014  08:03:00       35.218       14.668       10.954       21.105       15.512       19.560      445.417      240.625      382.595        0.132        0.053       38.151        6.464        0.029      334.846        5.087      861.583
04/23/2014  08:04:00       78.585       68.170       19.957       45.741       31.495       30.202     2092.204      991.928      912.187        0.761        0.200      104.033       17.576        0.029      334.948        5.257      861.572
04/23/2014  08:05:00       28.800       83.415       86.130       44.291       41.670       28.281     1961.656     1736.404      799.804        0.985        0.225       88.247       26.345        0.089      335.226        5.721      861.566
04/23/2014  08:06:00       70.309       74.786       32.380       48.542       38.158       40.873     2356.308     1456.026     1670.596        0.853        0.274      102.646       34.057        0.110      334.908        5.190      861.571
04/23/2014  08:07:00       58.740       64.952       51.860       46.953       41.348       42.338     2204.565     1709.623     1792.510        0.803        0.285       87.574       35.769        0.167      334.913        5.199      861.579
04/23/2014  08:08:00       18.323       21.976       17.610       23.638       32.251       26.383      558.756     1040.152      696.078        0.171        0.115       28.613       17.240        0.363      334.992        5.331      861.577
04/23/2014  08:09:00       62.193       77.260       53.459       39.527       34.435       38.831     1562.398     1185.751     1507.846        0.847        0.213       99.182       14.093        0.020      335.049        5.425      861.569
04/23/2014  08:10:00       76.834       66.778       47.098       52.953       44.689       44.977     2804.069     1997.091     2022.961        0.970        0.341      101.798       43.427        0.182      334.860        5.112      861.573
04/23/2014  08:11:00       49.212       21.991        7.799       29.306       28.018       21.179      858.865      784.993      448.529        0.253        0.105       53.902       15.965        0.088      334.901        5.179      861.573
04/23/2014  08:12:00       81.344       82.620        5.229       48.896       44.109       31.395     2390.863     1945.645      985.632        0.940        0.266      115.943       28.307        0.060      334.853        5.099      861.569
04/23/2014  08:13:00       58.961       28.107       11.011       37.172       37.047       29.410     1381.770     1372.448      864.948        0.400        0.181       65.318       13.195        0.041      335.175        5.633      861.576
04/23/2014  08:14:00       37.612       28.503        5.101       33.505       30.064       28.050     1122.604      903.819      786.813        0.253        0.141       47.192       15.051        0.102      335.260        5.776      861.568
04/23/2014  08:15:00       30.824       68.714       72.030       38.457       32.191       24.871     1478.933     1036.229      618.559        0.700        0.157       75.311       16.297        0.047      335.251        5.762      861.572
04/23/2014  08:16:00       73.654       74.096       49.463       38.819       32.464       36.821     1506.885     1053.924     1355.760        0.864        0.196      104.475       22.204        0.045      335.023        5.381      861.571
04/23/2014  08:17:00      101.526       46.042       20.892       36.969       40.179       32.882     1366.722     1614.338     1081.239        0.846        0.203      111.478       15.414        0.019      335.145        5.585      861.572
04/23/2014  08:18:00       93.191       71.081        7.128       54.384       35.670       34.802     2957.649     1272.358     1211.164        0.961        0.272      117.205       22.490        0.037      335.126        5.554      861.577
04/23/2014  08:19:00       60.056       55.934       56.559       62.822       42.928       28.067     3946.627     1842.783      787.771        0.825        0.329       82.069       27.035        0.109      335.504        6.183      861.584
04/23/2014  08:20:00       80.372       58.373       42.238       51.819       41.196       41.612     2685.158     1697.115     1731.558        0.888        0.306       99.333       24.517        0.061      335.153        5.599      861.587
04/23/2014  08:21:00      140.206       85.267       17.676       49.336       34.795       34.689     2434.009     1210.705     1203.344        1.604        0.242      164.098       18.650        0.013      335.125        5.550      861.581
04/23/2014  08:22:00       96.609       96.535       28.552       68.656       47.404       49.926     4713.704     2247.157     2492.601        1.446        0.473      136.573       45.494        0.111      335.018        5.374      861.570
04/23/2014  08:23:00       57.853       68.941       40.207       54.926       39.637       43.559     3016.852     1571.078     1897.396        0.810        0.324       89.999       40.041        0.198      335.281        5.810      861.565
04/23/2014  08:24:00       38.644       75.711        6.742       51.227       54.902       44.114     2624.157     3014.226     1946.056        0.743        0.379       85.003       35.813        0.178      335.370        5.959      861.556
04/23/2014  08:25:00       87.796       85.656       52.707       72.224       53.551       43.720     5216.340     2867.674     1911.402        1.391        0.500      122.658       21.149        0.030      335.394        5.998      861.543
04/23/2014  08:26:00       96.207       88.752       73.219       70.436       53.818       43.483     4961.288     2896.339     1890.761        1.612        0.487      130.892       36.419        0.077      335.133        5.565      861.565
04/23/2014  08:27:00       64.037       58.428       52.951       71.051       43.884       39.760     5048.257     1925.776     1580.880        0.943        0.428       86.686       40.939        0.223      335.347        5.920      861.565
04/23/2014  08:28:00      114.833      104.098       66.636       70.545       41.028       51.345     4976.575     1683.261     2636.306        1.888        0.465      154.993       42.385        0.075      335.369        5.957      861.569
04/23/2014  08:29:00      111.096       93.647       59.846       55.580       41.388       59.715     3089.112     1712.927     3565.904        1.653        0.418      145.300       31.274        0.046      335.257        5.770      861.573
04/23/2014  08:30:00       88.182       81.718       46.404       64.781       30.193       44.936     4196.539      911.643     2019.201        1.187        0.356      120.224       37.187        0.096      335.229        5.724      861.560
04/23/2014  08:31:00       27.068       64.162       47.394       42.293       25.728       32.062     1788.684      661.941     1028.001        0.529        0.174       69.638       28.797        0.171      335.230        5.727      861.554
04/23/2014  08:32:00       81.167       72.427       31.642       73.101       47.918       49.627     5343.729     2296.175     2462.860        1.147        0.505      108.783       46.898        0.186      335.552        6.261      861.551
04/23/2014  08:33:00      121.522       74.682       16.430       57.685       54.030       37.952     3327.581     2919.230     1440.361        1.415        0.384      142.636       32.056        0.051      335.361        5.944      861.565
04/23/2014  08:34:00       95.393       56.325       21.711       71.825       50.707       44.839     5158.807     2571.176     2010.538        1.124        0.487      110.781       28.253        0.065      335.525        6.217      861.568
04/23/2014  08:35:00       97.058       77.345       12.275       63.617       45.540       42.675     4047.140     2073.900     1821.119        1.175        0.397      124.106       29.457        0.056      335.245        5.750      861.587
04/23/2014  08:36:00       99.947       31.318       23.099       76.110       58.091       43.311     5792.762     3374.585     1875.832        1.127        0.552      104.738       34.390        0.108      335.711        6.526      861.581
04/23/2014  08:37:00      101.074       77.214       48.781       63.481       46.718       53.789     4029.862     2182.572     2893.261        1.383        0.455      127.193       35.448        0.078      335.589        6.323      861.583
04/23/2014  08:38:00       68.748       71.684       72.045       63.259       67.134       39.388     4001.664     4506.984     1551.389        1.256        0.503       99.322       31.279        0.099      335.483        6.146      861.594
04/23/2014  08:39:00       48.968      -47.586       30.312       43.635       47.507       35.850     1904.041     2256.887     1285.213        0.551        0.272       68.281       32.610        0.228      335.275        5.803      861.605
04/23/2014  08:40:00       22.253       45.166        6.102       40.872       35.010       25.703     1670.559     1225.721      660.652        0.306        0.178       50.350       15.090        0.090      335.640        6.409      861.606
04/23/2014  08:41:00       57.053       63.384       21.829       55.614       42.357       34.602     3092.887     1794.099     1197.326        0.692        0.304       85.279       25.626        0.090      335.549        6.257      861.599
04/23/2014  08:42:00      110.216       81.090        2.753       30.600       36.084       31.042      936.388     1302.063      963.622        1.097        0.160      136.832       20.820        0.023      335.133        5.564      861.592
04/23/2014  08:43:00       40.715      110.382       -4.606       49.575       48.948       34.051     2457.649     2395.942     1159.492        0.994        0.301      117.651       29.029        0.061      335.330        5.893      861.594
04/23/2014  08:44:00       32.130       70.549      -11.015       26.336       55.389       30.968      693.594     3067.904      959.009        0.542        0.236       77.521       18.860        0.059      335.472        6.130      861.611
04/23/2014  08:45:00       -6.599       19.596       22.170       21.205       30.070       22.763      449.642      904.228      518.144        0.140        0.094       20.678       18.943        0.839      336.093        7.164      861.610
04/23/2014  08:46:00      -18.263       10.437       11.049       20.722       18.703       21.723      429.388      349.808      471.900        0.091        0.063       21.035       15.288        0.528      335.790        6.659      861.619
04/23/2014  08:47:00       10.510       31.244       32.805       32.879       34.129       47.086     1081.058     1164.776     2217.061        0.331        0.223       32.964       27.442        0.693      335.851        6.759      861.641
04/23/2014  08:48:00       71.059       49.377       52.064       72.180       34.131       40.130     5210.020     1164.952     1610.384        0.909        0.399       86.530       41.235        0.227      335.763        6.614      861.653
04/23/2014  08:49:00      139.306       75.327        2.489       45.609       46.300       37.788     2080.143     2143.710     1427.965        1.537        0.283      158.368       29.068        0.034      335.305        5.850      861.667
04/23/2014  08:50:00       -2.722       36.107      -28.224       59.338       52.217       25.340     3521.012     2726.602      642.131        0.450        0.344       36.210       24.692        0.465      335.122        5.549      861.689
04/23/2014  08:51:00      -10.535       21.951       12.061       77.775       31.341       27.758     6049.027      982.284      770.483        0.427        0.390       24.348       36.141        2.203      335.562        6.281      861.681
04/23/2014  08:52:00      123.512      114.491        3.910       64.400       42.466       40.404     4147.418     1803.354     1632.461        1.798        0.379      168.415       22.574        0.018      335.591        6.327      861.687
04/23/2014  08:53:00       81.028       95.594       38.133       42.575       32.419       39.821     1812.657     1050.982     1585.743        1.080        0.222      125.315       20.221        0.026      335.614        6.365      861.685
04/23/2014  08:54:00       57.651       57.234       -1.807       50.731       49.177       38.207     2573.665     2418.390     1459.808        0.653        0.323       81.236       22.238        0.075      335.593        6.330      861.686
04/23/2014  08:55:00      -52.048       31.891        2.322       29.215       16.077       13.024      853.488      258.463      169.614        0.251        0.064       61.041        9.742        0.025      335.379        5.972      861.677
04/23/2014  08:56:00       17.662       44.471       22.138       45.050       48.281       41.573     2029.506     2331.064     1728.332        0.443        0.304       47.850       35.199        0.541      336.040        7.076      861.677
04/23/2014  08:57:00       16.319       73.400       14.135       60.964       68.592       45.215     3716.590     4704.906     2044.425        0.816        0.523       75.192       37.230        0.245      335.869        6.789      861.656
04/23/2014  08:58:00       32.136       60.952        9.146       33.829       47.930       34.238     1144.427     2297.316     1172.229        0.472        0.231       68.905       29.468        0.183      335.912        6.864      861.632
04/23/2014  08:59:00       18.659      -21.626       -5.640       56.944       89.516       42.117     3242.657     8013.159     1773.862        0.694        0.651       28.563       42.481        2.212      336.310        7.525      861.608
04/23/2014  09:00:00       81.537     -111.296      -19.706       48.966       58.154       39.681     2397.658     3381.851     1574.604        1.339        0.368      137.967       27.970        0.041      335.995        7.000      861.612
04/23/2014  09:01:00       43.248       38.154       54.087       34.120       69.598       38.944     1164.201     4843.895     1516.640        0.689        0.376       57.672       44.026        0.583      336.033        7.065      861.618
04/23/2014  09:02:00      106.561       93.978       35.516       70.247       51.876       43.804     4934.638     2691.167     1918.812        1.549        0.477      142.081       26.082        0.034      335.926        6.885      861.616
04/23/2014  09:03:00       98.580       90.353       40.492       55.343       39.974       45.056     3062.819     1597.890     2030.004        1.310        0.335      133.722       30.335        0.051      335.715        6.532      861.613
04/23/2014  09:04:00      148.226      112.715       72.100       54.253       42.829       53.962     2943.344     1834.316     2911.851        2.378        0.384      186.214       43.822        0.055      335.529        6.222      861.613
04/23/2014  09:05:00       49.589       72.357       91.887       81.352       70.212       52.173     6618.218     4929.709     2722.042        1.520        0.713       87.719       56.009        0.408      335.986        6.985      861.615
04/23/2014  09:06:00       85.537      120.250       96.165       97.104       52.961       73.985     9429.125     2804.898     5473.714        2.436        0.885      147.570       64.092        0.189      335.979        6.971      861.623
04/23/2014  09:07:00      172.814      135.871       37.333       51.929       43.903       48.182     2696.623     1927.516     2321.531        2.833        0.347      219.831       26.588        0.015      335.591        6.323      861.654
04/23/2014  09:08:00       60.810       73.350       12.377       61.677       47.068       41.709     3804.100     2215.382     1739.609        0.849        0.388       95.279       29.962        0.099      335.717        6.536      861.672
04/23/2014  09:09:00       29.912      140.726      -11.156       43.500       79.152       39.712     1892.246     6265.049     1577.038        1.528        0.487      143.869       43.696        0.092      335.797        6.670      861.665
04/23/2014  09:10:00       78.887      145.814       -0.496       69.052       72.797       51.980     4768.151     5299.425     2701.885        2.012        0.638      165.786       49.096        0.088      335.890        6.824      861.669
04/23/2014  09:11:00       59.387       95.426        3.619       41.204       62.736       37.617     1697.797     3935.854     1415.051        0.985        0.352      112.396       27.784        0.061      336.137        7.237      861.667
04/23/2014  09:12:00       91.175       69.637       15.942       62.595       54.768       42.657     3918.191     2999.501     1819.600        1.108        0.437      114.727       32.708        0.081      335.995        7.001      861.662
04/23/2014  09:13:00      111.024       82.721        1.156       56.795       49.302       43.423     3225.622     2430.645     1885.600        1.335        0.377      138.453       26.716        0.037      335.778        6.639      861.664
04/23/2014  09:14:00       96.458       55.938       11.229       63.874       44.988       40.627     4079.910     2023.919     1650.584        1.016        0.388      111.504       26.295        0.056      335.994        6.998      861.664
04/23/2014  09:15:00       14.717       73.537       33.009       39.733       69.053       60.025     1578.683     4768.307     3602.966        0.833        0.497       74.995       30.597        0.166      336.629        8.059      861.672
04/23/2014  09:16:00       23.235       71.298       90.876       63.384       66.010       42.894     4017.499     4357.312     1839.892        1.205        0.511       74.989       32.374        0.186      336.349        7.590      861.673
04/23/2014  09:17:00       80.461       31.773       76.200       72.489       96.516       50.306     5254.612     9315.369     2530.683        1.519        0.855       86.507       41.234        0.227      336.277        7.469      861.664
04/23/2014  09:18:00       94.295       81.046       46.218       91.100       63.111       59.277     8299.246     3982.981     3513.712        1.669        0.790      124.338       35.829        0.083      336.341        7.577      861.662
04/23/2014  09:19:00      101.712      102.912      109.605       78.162       58.197       55.265     6109.346     3386.909     3054.261        2.275        0.628      144.694       45.101        0.097      336.263        7.445      861.668
04/23/2014  09:20:00       96.494       98.755       74.506       73.405       71.585       56.224     5388.326     5124.384     3161.103        1.914        0.684      138.071       37.812        0.075      336.095        7.166      861.688
04/23/2014  09:21:00       97.577      111.954       85.765       87.338       56.553       56.751     7627.962     3198.292     3220.663        2.173        0.702      148.509       55.836        0.141      336.092        7.160      861.697
04/23/2014  09:22:00      119.689      113.864       46.186       67.120       50.136       57.768     4505.041     2513.583     3337.108        1.989        0.518      165.198       40.191        0.059      336.054        7.097      861.697
04/23/2014  09:23:00       95.545       96.537        5.056       65.646       38.213       37.496     4309.450     1460.239     1405.965        1.282        0.359      135.825       17.011        0.016      336.016        7.034      861.696
04/23/2014  09:24:00       37.454       91.291       -3.473       53.754       49.614       44.388     2889.537     2461.541     1970.305        0.853        0.366       98.676       26.727        0.073      336.293        7.497      861.693
04/23/2014  09:25:00       64.912       56.152        6.021       51.117       53.854       41.229     2612.982     2900.280     1699.792        0.731        0.361       85.829       33.525        0.153      336.381        7.644      861.686
04/23/2014  09:26:00      169.925       89.673        7.528       65.069       52.516       42.415     4233.954     2757.892     1799.025        2.288        0.440      192.134       23.175        0.015      335.871        6.792      861.692
04/23/2014  09:27:00      101.227       74.079       -0.985       49.518       39.744       56.396     2452.077     1579.566     3180.532        1.147        0.361      125.438       27.971        0.050      335.946        6.919      861.687
04/23/2014  09:28:00       24.989      116.717       -2.988       46.653       65.474       25.957     2176.542     4286.867      673.764        1.070        0.357      119.362       17.922        0.023      335.803        6.680      861.687
04/23/2014  09:29:00       52.502       50.934        2.491       26.986       36.587       36.926      728.222     1338.580     1363.551        0.439        0.172       73.148       25.326        0.120      336.101        7.177      861.673
04/23/2014  09:30:00       37.405      -83.868       -4.842       71.124       87.308       51.091     5058.587     7622.666     2610.284        1.187        0.765       91.831       29.281        0.102      336.465        7.784      861.668
04/23/2014  09:31:00       34.823     -125.736      -16.263       60.864       67.049       49.157     3704.396     4495.612     2416.424        1.395        0.531      130.469       36.338        0.078      336.204        7.349      861.675
04/23/2014  09:32:00       57.146      -53.498       14.752       54.443       84.006       49.961     2964.041     7057.021     2496.147        0.943        0.626       78.279       47.497        0.368      336.529        7.892      861.683
04/23/2014  09:33:00      112.430     -115.820      -17.984       54.201       46.499       40.397     2937.738     2162.180     1631.927        1.655        0.337      161.415       28.111        0.030      336.209        7.358      861.695
04/23/2014  09:34:00       71.164       56.464       45.453       47.607       35.696       49.721     2266.451     1274.186     2472.165        0.816        0.301       90.843       13.416        0.022      336.248        7.424      861.709
04/23/2014  09:35:00       46.772      -88.840        0.508       88.118      118.508       55.793     7764.755    14044.234     3112.876        1.750        1.246      100.400       55.462        0.305      336.448        7.755      861.702
04/23/2014  09:36:00       59.553      -39.447       45.860       64.826      104.757       57.477     4202.431    10974.090     3303.582        1.284        0.924       71.433       55.934        0.613      336.495        7.836      861.710
04/23/2014  09:37:00       14.806       -9.725       60.326       39.219       63.882       43.458     1538.155     4080.876     1888.571        0.573        0.375       17.715       36.327        4.205      336.859        8.443      861.722
04/23/2014  09:38:00       28.268       50.351       41.258       49.454       40.041       53.260     2445.705     1603.304     2836.621        0.596        0.344       57.744       32.691        0.321      336.360        7.609      861.758
04/23/2014  09:39:00       73.119       59.180       21.957       46.406       35.938       33.419     2153.513     1291.574     1116.837        0.695        0.228       94.067       12.244        0.017      336.176        7.302      861.738
04/23/2014  09:40:00       30.304       47.060       46.239       44.401       53.284       30.810     1971.434     2839.199      949.250        0.551        0.288       55.973       23.532        0.177      336.720        8.212      861.737
04/23/2014  09:41:00       16.069       73.184       86.302       32.845       50.828       32.201     1078.786     2583.503     1036.888        0.888        0.235       74.928       27.986        0.140      337.080        8.813      861.716
04/23/2014  09:42:00       79.705      -81.410       37.113       77.068      115.814       70.622     5939.478    13412.905     4987.531        1.934        1.217      113.932       85.430        0.562      336.715        8.201      861.709
04/23/2014  09:43:00       51.491        7.477       85.253       68.502      105.282       77.963     4692.544    11084.371     6078.162        1.591        1.093       52.031       70.573        1.840      336.917        8.540      861.700
04/23/2014  09:44:00       72.949      -23.077       76.859       75.291      104.736       78.800     5668.769    10969.559     6209.407        1.730        1.142       76.512       77.022        1.013      337.072        8.798      861.702
04/23/2014  09:45:00      102.789      138.261      125.357       75.243       73.009       61.669     5661.515     5330.302     3803.064        3.009        0.740      172.284       51.517        0.089      336.246        7.416      861.708
04/23/2014  09:46:00      141.298       42.948       38.659       88.271       65.105       45.791     7791.852     4238.640     2096.771        1.871        0.706      147.681       38.278        0.067      336.483        7.812      861.698
04/23/2014  09:47:00      132.951      136.252       77.063       85.302       57.785       63.282     7276.458     3339.093     4004.632        2.840        0.731      190.369       56.205        0.087      336.430        7.723      861.684
04/23/2014  09:48:00       56.745       16.127       64.813       67.707      100.230       85.793     4584.218    10045.976     7360.402        1.483        1.100       58.992       77.932        1.745      336.894        8.502      861.687
04/23/2014  09:49:00        8.830      -18.461       68.484       46.280       99.634       63.006     2141.848     9926.991     3969.724        1.057        0.802       20.464       66.304       10.497      337.009        8.694      861.701
04/23/2014  09:50:00       25.446       36.838       69.626       58.025       88.559       44.733     3366.873     7842.631     2001.003        1.003        0.661       44.772       55.577        1.541      336.809        8.361      861.694
04/23/2014  09:51:00       42.145      -16.166       51.896       54.006       65.169       45.998     2916.662     4247.036     2115.817        0.700        0.464       45.139       38.273        0.719      337.118        8.877      861.684
04/23/2014  09:52:00       29.384      -54.485       25.609       50.838       79.242       50.281     2584.496     6279.311     2528.209        0.794        0.570       61.904       53.969        0.760      337.212        9.034      861.674
04/23/2014  09:53:00       23.805       84.458      106.842       48.975       69.525       48.320     2398.538     4833.795     2334.836        1.434        0.478       87.749       40.194        0.210      337.235        9.072      861.666
04/23/2014  09:54:00       38.167       33.720       76.686       56.116       70.988       40.564     3149.050     5039.236     1645.422        0.915        0.492       50.929       35.665        0.490      337.170        8.963      861.684
04/23/2014  09:55:00       12.708       39.927       68.700       28.550       31.634       24.322      815.083     1000.693      591.559        0.444        0.120       41.900       18.310        0.191      336.914        8.535      861.692
04/23/2014  09:56:00      -48.088        5.326       23.695       46.754       38.993       32.261     2185.966     1520.466     1040.790        0.382        0.237       48.382       31.535        0.425      336.724        8.219      861.691
04/23/2014  09:57:00      -74.359      -43.427        3.441       85.358       56.086       35.205     7285.962     3145.662     1239.403        0.955        0.584       86.112       15.874        0.034      336.306        7.519      861.677
04/23/2014  09:58:00       -7.876      -50.782      -26.720       44.879       78.202       36.913     2014.098     6115.553     1362.561        0.642        0.475       51.389       22.466        0.191      336.267        7.452      861.684
04/23/2014  09:59:00      -21.688       58.133      -16.309       33.641       52.944       23.554     1131.728     2803.065      554.797        0.430        0.224       62.046       17.963        0.084      336.238        7.405      861.671
04/23/2014  10:00:00      -38.676       54.342      -39.636       33.965       41.504       28.453     1153.650     1722.563      809.555        0.485        0.184       66.700       22.818        0.117      336.219        7.374      861.666
04/23/2014  10:01:00     -183.918       32.580      -25.168       37.675       36.680       23.515     1419.398     1345.406      552.977        1.942        0.166      186.781       20.394        0.012      336.077        7.137      861.662
04/23/2014  10:02:00     -111.389       56.424      -10.541       56.692       28.939       28.042     3214.028      837.455      786.336        1.027        0.242      124.865       15.129        0.015      336.410        7.694      861.645
04/23/2014  10:03:00      -24.242        9.049       15.606       23.875       23.975       18.948      570.031      574.796      359.045        0.121        0.075       25.876        7.737        0.089      336.949        8.594      861.659
04/23/2014  10:04:00      -53.950       29.183       -7.923       21.914       24.022       22.336      480.223      577.048      498.915        0.269        0.078       61.337        9.000        0.022      336.630        8.060      861.666
04/23/2014  10:05:00       -7.853      -90.042        9.200       96.165       58.416       34.134     9247.784     3412.374     1165.102        1.104        0.691       90.383       21.300        0.056      336.801        8.346      861.688
04/23/2014  10:06:00       32.927      -59.437       11.206       89.250       64.249       67.944     7965.624     4127.976     4616.400        1.072        0.836       67.948       31.465        0.214      337.216        9.041      861.686
04/23/2014  10:07:00       73.089     -118.019      -23.306       79.821      102.631       57.016     6371.433    10533.062     3250.876        1.998        1.008      138.819       61.567        0.197      337.079        8.809      861.691
04/23/2014  10:08:00       31.534      -91.926       -0.936       45.048       94.155       51.462     2029.322     8865.256     2648.294        1.149        0.677       97.184       56.310        0.336      336.776        8.304      861.705
04/23/2014  10:09:00       38.937      -26.057       32.911       47.008       51.191       42.430     2209.761     2620.487     1800.287        0.495        0.332       46.852       29.843        0.406      337.420        9.383      861.718
04/23/2014  10:10:00        9.746       -1.298       20.307       29.092       44.240       40.681      846.350     1957.176     1654.918        0.248        0.223        9.832       16.311        2.753      337.586        9.660      861.723
04/23/2014  10:11:00       52.765       81.433      -15.662       34.006       41.134       31.737     1156.416     1692.047     1007.225        0.676        0.193       97.033       18.243        0.035      336.526        7.887      861.718
04/23/2014  10:12:00       59.190       15.464        9.972       43.563       60.229       49.242     1897.742     3627.578     2424.788        0.589        0.398       61.177       27.153        0.197      336.951        8.599      861.732
04/23/2014  10:13:00       56.489       50.167       15.899       51.401       46.113       42.843     2642.058     2126.363     1835.486        0.628        0.330       75.550       21.195        0.079      336.740        8.245      861.729
04/23/2014  10:14:00        1.785       73.697        9.926       28.968       56.441       33.510      839.140     3185.627     1122.923        0.534        0.257       73.719       29.606        0.161      337.251        9.100      861.716
04/23/2014  10:15:00       -9.336      -83.737        9.180       54.545       63.098       36.715     2975.159     3981.342     1347.960        0.774        0.415       84.256       33.075        0.154      337.342        9.252      861.736
04/23/2014  10:16:00     -108.639      -79.207       11.801       87.048       68.632       40.394     7577.419     4710.292     1631.638        1.606        0.696      134.448       39.353        0.086      337.075        8.803      861.735
04/23/2014  10:17:00     -172.644     -108.234       11.002       95.097       53.047       36.043     9043.532     2814.033     1299.087        2.740        0.658      203.766       42.200        0.043      336.765        8.282      861.730
04/23/2014  10:18:00     -125.619      -71.590      -12.890       70.748       41.024       29.313     5005.300     1682.987      859.262        1.431        0.377      144.587       28.160        0.038      336.627        8.056      861.718
04/23/2014  10:19:00      -88.975      -80.857       -2.788       34.497       33.872       20.820     1190.071     1147.315      433.489        0.862        0.139      120.226       18.706        0.024      336.529        7.892      861.697
04/23/2014  10:20:00      -74.983      -51.590        7.681       45.148       28.171       23.923     2038.299      793.617      572.318        0.587        0.170       91.016       17.393        0.037      336.809        8.361      861.668
04/23/2014  10:21:00      -64.676      -42.082        3.678       38.604       34.994       28.843     1490.261     1224.602      831.930        0.476        0.177       77.161       32.006        0.172      337.054        8.770      861.649
04/23/2014  10:22:00       -3.130     -122.954      -18.406       85.374       77.194       47.924     7288.755     5958.866     2296.706        1.550        0.777      122.994       30.180        0.060      337.166        8.955      861.631
04/23/2014  10:23:00       34.633     -107.782        3.658       70.847       96.582       59.870     5019.284     9328.114     3584.388        1.538        0.897      113.210       59.671        0.278      337.504        9.523      861.612
04/23/2014  10:24:00       93.106     -149.523       11.371       65.496       80.615       51.123     4289.717     6498.734     2613.541        2.228        0.670      176.142       42.067        0.057      337.174        8.969      861.623
04/23/2014  10:25:00       47.008     -147.548       -3.986       64.121       92.400       51.808     4111.501     8537.808     2684.061        1.966        0.767      154.856       44.681        0.083      337.547        9.592      861.612
04/23/2014  10:26:00      143.945     -205.127      -37.421       89.620      110.939       58.868     8031.795    12307.548     3465.490        4.400        1.190      250.594       63.661        0.065      337.412        9.367      861.575
04/23/2014  10:27:00       28.737        1.727       56.324       89.939       75.812       57.440     8088.941     5747.450     3299.358        1.057        0.857       28.789       53.519        3.456      337.920       10.219      861.585
04/23/2014  10:28:00       25.888       34.055       62.210       48.815       47.185       36.350     2382.884     2226.402     1321.315        0.581        0.297       42.778       33.671        0.620      337.917       10.216      861.591
04/23/2014  10:29:00       74.426      -83.089       15.277       50.823       81.570       41.119     2583.026     6653.617     1690.745        1.180        0.546      111.548       35.751        0.103      337.489        9.498      861.576
04/23/2014  10:30:00       39.732      -60.604       10.837       50.951      123.793       43.370     2595.955    15324.738     1880.942        1.258        0.990       72.467       29.203        0.162      337.739        9.917      861.576
04/23/2014  10:31:00      104.706     -198.895      -42.154       85.402       71.767       46.312     7293.469     5150.539     2144.755        3.344        0.729      224.772       31.162        0.019      337.072        8.797      861.573
04/23/2014  10:32:00       39.651      -65.639        9.030       70.133       82.279       54.925     4918.574     6769.757     3016.803        1.033        0.735       76.685       58.170        0.575      337.589        9.665      861.585
04/23/2014  10:33:00       34.692       10.996       44.196       33.529       60.037       39.266     1124.173     3604.397     1541.787        0.477        0.314       36.393       33.975        0.872      337.556        9.610      861.576
04/23/2014  10:34:00      112.598      -74.832       26.722       97.769      174.548       86.380     9558.846    30467.160     7461.445        3.323        2.374      135.196      108.975        0.650      337.450        9.431      861.564
04/23/2014  10:35:00      113.299     -212.594      -24.747       88.743      159.627       55.682     7875.322    25480.671     3100.491        4.754        1.823      240.900       65.930        0.075      337.214        9.036      861.575
04/23/2014  10:36:00       86.923      -68.399       57.034      112.445      188.773      123.246    12643.774    35635.359    15189.531        3.947        3.173      110.607      147.009        1.767      337.509        9.531      861.548
04/23/2014  10:37:00       47.594       -0.610       70.084       83.507       92.380       65.540     6973.479     8534.039     4295.538        1.349        0.990       47.598       65.526        1.895      337.868       10.133      861.556
04/23/2014  10:38:00      109.113     -176.865      -12.046       96.248       83.533       51.258     9263.761     6977.687     2627.393        3.110        0.943      207.815       57.942        0.078      336.925        8.551      861.557
04/23/2014  10:39:00       48.774      -38.088       44.630       73.235      145.024       90.632     5363.426    21031.830     8214.194        2.021        1.730       61.883      102.723        2.755      337.728        9.898      861.528
04/23/2014  10:40:00       98.971     -141.544       -6.483      100.124      115.889       76.796    10024.773    13430.281     5897.659        2.961        1.468      172.713       80.630        0.218      337.469        9.462      861.517
04/23/2014  10:41:00       78.970      -46.200       23.802       91.717      100.035       76.585     8411.967    10006.971     5865.198        1.661        1.214       91.492       69.573        0.578      337.633        9.739      861.504
04/23/2014  10:42:00       22.582       20.382       62.304       43.140       47.044       40.542     1861.093     2213.139     1643.649        0.526        0.286       30.420       27.941        0.844      337.920       10.219      861.494
04/23/2014  10:43:00       46.160      -93.451        1.280       69.807       74.932       49.884     4873.082     5614.785     2488.367        1.192        0.649      104.230       37.309        0.128      337.538        9.580      861.482
04/23/2014  10:44:00       61.813      -36.595       51.585       77.344      133.496       79.972     5982.031    17821.120     6395.587        1.900        1.510       71.833       88.293        1.511      337.865       10.128      861.469
04/23/2014  10:45:00      244.688      143.884       78.352      112.958       69.583       75.849    12759.454     4841.726     5753.034        5.503        1.168      283.857       60.666        0.046      337.459        9.445      861.443
04/23/2014  10:46:00      160.975       67.971       50.981      134.546       87.750       56.141    18102.742     7700.033     3151.847        3.104        1.448      174.737       61.096        0.122      337.538        9.580      861.412
04/23/2014  10:47:00      183.462      -96.588       47.589      146.100      190.334      108.515    21345.123    36227.050    11775.575        5.729        3.467      207.335      118.210        0.325      337.562        9.615      861.405
04/23/2014  10:48:00      100.433       22.370       69.347      124.514      112.494       65.585    15503.642    12654.856     4301.342        2.392        1.623      102.894       51.233        0.248      337.565        9.625      861.450
04/23/2014  10:49:00       41.724     -125.787       12.025       73.851      142.802       52.272     5453.902    20392.371     2732.382        2.314        1.429      132.527       69.838        0.278      337.297        9.176      861.468
04/23/2014  10:50:00      169.885     -185.506       -1.226      133.886       97.527       72.297    17925.546     9511.450     5226.833        4.796        1.633      251.542       79.632        0.100      337.486        9.490      861.451
04/23/2014  10:51:00      108.636     -125.452       31.440      105.482      171.986      115.631    11126.492    29579.103    13370.526        4.129        2.704      165.952      134.493        0.657      337.657        9.777      861.447
04/23/2014  10:52:00      140.060     -135.646        7.491       71.396       78.058       47.981     5097.431     6092.985     2302.187        2.578        0.675      194.979       33.291        0.029      337.447        9.425      861.450
04/23/2014  10:53:00      141.207       64.399       70.082       87.402       78.670       65.928     7639.058     6189.025     4346.560        2.358        0.909      155.199       45.784        0.087      337.743        9.922      861.439
04/23/2014  10:54:00       49.268       40.272       53.655       65.759       72.520       54.968     4324.186     5259.103     3021.445        0.976        0.630       63.633       46.810        0.541      337.820       10.053      861.420
04/23/2014  10:55:00       53.504       67.744       24.136       59.989       58.577       43.111     3598.683     3431.276     1858.520        0.846        0.444       86.325       38.477        0.199      337.815       10.044      861.413
04/23/2014  10:56:00       56.525       51.464       38.605       59.524       58.843       62.176     3543.112     3462.536     3865.806        0.910        0.544       76.444       30.328        0.157      338.064       10.461      861.404
04/23/2014  10:57:00       82.045       64.170       52.116       79.104       71.333       67.384     6257.382     5088.381     4540.664        1.472        0.794      104.159       47.199        0.205      337.330        9.231      861.421
04/23/2014  10:58:00       14.535       62.934        6.809       33.696       40.718       35.086     1135.423     1657.986     1231.000        0.412        0.201       64.591       32.675        0.256      337.592        9.671      861.403
04/23/2014  10:59:00      104.274       29.609       62.965       84.976       78.815       63.430     7220.915     6211.766     4023.359        1.658        0.873      108.396       54.066        0.249      337.787        9.996      861.401
04/23/2014  11:00:00      140.990      106.850       52.779       80.708       75.632       80.315     6513.843     5720.154     6450.555        2.638        0.934      176.904       42.776        0.058      337.365        9.287      861.394
04/23/2014  11:01:00       85.820       85.555       42.101      111.637      122.176       76.067    12462.725    14927.084     5786.223        2.481        1.659      121.181       51.463        0.180      337.822       10.055      861.369
04/23/2014  11:02:00       64.967      118.266      164.706       79.777      110.864       80.921     6364.394    12290.800     6548.151        3.526        1.260      134.935       81.831        0.368      337.839       10.083      861.368
04/23/2014  11:03:00      128.875      -26.284       91.742      147.834      103.779       75.124    21854.811    10770.157     5643.569        3.198        1.913      131.528       69.511        0.279      337.853       10.106      861.354
04/23/2014  11:04:00       92.335       42.211       98.345       97.437      137.508       77.864     9494.031    18908.338     6062.830        2.722        1.723      101.526       83.776        0.681      337.918       10.215      861.360
04/23/2014  11:05:00      114.518       24.526       79.230       87.629      104.600       71.339     7678.928    10941.108     5089.205        2.185        1.185      117.115       75.527        0.416      337.889       10.168      861.349
04/23/2014  11:06:00       94.952      120.583       85.221       88.631       56.419       64.706     7855.406     3183.148     4186.837        2.302        0.761      153.480       62.132        0.164      337.401        9.349      861.360
04/23/2014  11:07:00      106.654      120.723       81.123       71.854       67.557       71.999     5162.967     4564.012     5183.787        2.372        0.746      161.087       58.532        0.132      337.351        9.264      861.359
04/23/2014  11:08:00       87.011        0.467       42.651       93.356      141.977       72.476     8715.299    20157.560     5252.760        2.175        1.706       87.012       80.881        0.864      337.577        9.644      861.337
04/23/2014  11:09:00       50.887      -11.284       75.118       73.991       96.195       70.399     5474.651     9253.566     4956.078        1.402        0.984       52.123       66.013        1.604      338.178       10.652      861.312
04/23/2014  11:10:00       48.272      -49.461       53.857       66.220      110.173       76.668     4385.049    12138.100     5877.916        1.503        1.120       69.112       74.510        1.162      338.241       10.758      861.308
04/23/2014  11:11:00       77.033     -153.964       11.308       54.824       58.258       50.856     3005.633     3393.984     2586.373        1.937        0.449      172.159       38.197        0.049      337.999       10.351      861.292
04/23/2014  11:12:00       23.002      -84.161       23.521       49.377      106.486       39.135     2438.077    11339.315     1531.533        1.173        0.765       87.248       57.282        0.431      337.717        9.879      861.284
04/23/2014  11:13:00       48.387      -41.942        6.525       73.426      116.968       42.449     5391.316    13681.585     1801.894        1.250        1.044       64.035       47.913        0.560      338.082       10.492      861.262
04/23/2014  11:14:00      135.247     -125.721        8.228      116.226      160.848       86.065    13508.383    25871.970     7407.162        4.047        2.339      184.655       95.314        0.266      338.050       10.435      861.236
04/23/2014  11:15:00      129.067        3.484       81.903      103.220      141.046       68.962    10654.468    19893.953     4755.739        2.933        1.765      129.114       84.741        0.431      338.072       10.473      861.240
04/23/2014  11:16:00       41.097       92.239      135.348       76.853      126.397       88.142     5906.358    15976.266     7768.956        2.908        1.483      100.981       98.240        0.946      338.132       10.573      861.224
04/23/2014  11:17:00       63.593       21.699       84.678       87.092      110.393       68.503     7585.051    12186.697     4692.614        1.807        1.223       67.193       75.830        1.274      338.149       10.603      861.207
04/23/2014  11:18:00      123.638      -82.130       33.069      113.275      151.703       87.512    12831.141    23013.768     7658.340        3.331        2.175      148.431       93.442        0.396      338.319       10.888      861.197
04/23/2014  11:19:00      103.854       47.908       91.330       96.171      101.002       71.502     9248.839    10201.383     5112.603        2.299        1.228      114.372       69.602        0.370      338.206       10.699      861.228
04/23/2014  11:20:00       73.883       57.438       81.032      115.754       58.856       60.079    13399.049     3464.043     3609.534        1.789        1.024       93.583       62.689        0.449      338.147       10.600      861.229
04/23/2014  11:21:00       67.010      138.194      136.969       77.354       59.285       31.698     5983.668     3514.680     1004.793        2.642        0.525      153.584       27.300        0.032      337.894       10.173      861.252
04/23/2014  11:22:00       94.830      103.003       55.865       58.889       45.736       53.253     3467.866     2091.776     2835.893        1.556        0.420      140.009       41.237        0.087      337.367        9.292      861.253
04/23/2014  11:23:00       47.877      115.529        3.101       57.408       60.390       46.588     3295.688     3646.955     2170.483        1.238        0.456      125.057       37.094        0.088      337.553        9.604      861.233
04/23/2014  11:24:00       31.255       31.181       23.182       49.050       59.573       42.586     2405.908     3548.960     1813.530        0.513        0.388       44.149       27.073        0.376      338.300       10.858      861.206
04/23/2014  11:25:00       57.646       84.593       80.182       73.345       85.675       54.573     5379.448     7340.145     2978.263        1.630        0.785      102.367       28.808        0.079      338.426       11.068      861.181
04/23/2014  11:26:00      118.920      107.237       68.158       39.373       34.052       55.694     1550.256     1159.524     3101.843        1.805        0.291      160.130       26.611        0.028      337.449        9.431      861.208
04/23/2014  11:27:00       50.663       46.792       52.867       44.020       46.834       28.518     1937.786     2193.452      813.270        0.625        0.247       68.965       20.562        0.089      337.676        9.811      861.211
04/23/2014  11:28:00       94.490      125.488      -19.637       60.555       56.171       46.124     3666.861     3155.159     2127.426        1.700        0.447      157.084       33.750        0.046      337.525        9.558      861.199
04/23/2014  11:29:00       91.023       92.684      -24.798       24.696       46.468       26.668      609.898     2159.289      711.202        1.048        0.174      129.906       20.814        0.026      337.341        9.250      861.201
04/23/2014  11:30:00       37.347       25.009        1.407       48.321       29.598       31.887     2334.962      876.031     1016.785        0.312        0.211       44.947       24.443        0.296      337.760        9.952      861.183
04/23/2014  11:31:00        3.409       16.056        1.480       22.655       19.000       22.114      513.240      360.996      489.042        0.082        0.068       16.414        8.767        0.285      338.112       10.543      861.158
04/23/2014  11:32:00       56.497       54.461       29.792       44.922       32.781       31.463     2017.988     1074.603      989.940        0.556        0.204       78.472       21.029        0.072      338.064       10.462      861.151
04/23/2014  11:33:00      110.297       44.068       21.436       62.225       99.446       57.872     3871.946     9889.586     3349.180        1.584        0.856      118.774       56.754        0.228      338.008       10.367      861.151
04/23/2014  11:34:00      133.118      -77.884       53.644      112.182      159.092       87.049    12584.754    25310.381     7577.468        3.606        2.274      154.228      113.206        0.539      338.221       10.724      861.124
04/23/2014  11:35:00      141.958     -146.872       22.192      103.963      222.707       89.224    10808.235    49598.280     7960.907        5.528        3.418      204.263      128.922        0.398      337.950       10.271      861.121
04/23/2014  11:36:00       77.233       43.713       94.513      103.287       74.734       56.741    10668.266     5585.217     3219.494        1.814        0.974       88.746       53.976        0.370      338.041       10.422      861.118
04/23/2014  11:37:00      107.820       38.953       59.814       95.085       94.744       61.700     9041.215     8976.405     3806.895        1.927        1.091      114.641       63.772        0.309      338.098       10.516      861.090
04/23/2014  11:38:00      133.537      -25.869       12.522      102.946      207.134       95.350    10597.938    42904.348     9091.538        4.061        3.130      136.019      117.226        0.743      338.043       10.426      861.053
04/23/2014  11:39:00      110.856     -271.147      -39.033      103.545      124.178       78.982    10721.616    15420.247     6238.215        5.985        1.619      292.933       87.460        0.089      337.808       10.029      861.072
04/23/2014  11:40:00       67.096      -16.806       83.354       93.446      155.283      101.349     8732.112    24112.679    10271.679        2.742        2.156       69.168      116.400        2.832      338.202       10.692      861.059
04/23/2014  11:41:00       70.363      -29.250       25.673       53.737       65.766       56.335     2887.687     4325.151     3173.683        0.842        0.519       76.201       51.002        0.448      338.305       10.867      861.068
04/23/2014  11:42:00       27.999       38.009       64.601       45.176       91.667       63.099     2040.907     8402.819     3981.449        1.041        0.721       47.209       69.346        2.158      338.232       10.745      861.047
04/23/2014  11:43:00       49.427      -12.565       27.373       53.205      113.344       57.745     2830.762    12846.891     3334.463        1.118        0.951       50.999       61.389        1.449      337.979       10.320      861.055
04/23/2014  11:44:00      -20.245       25.803       -2.435       32.794       27.180       33.776     1075.456      738.752     1140.845        0.202        0.148       32.797       22.160        0.457      338.277       10.820      861.048
04/23/2014  11:45:00       10.068       54.272       72.011       55.777       57.062       57.397     3111.053     3256.076     3294.376        0.895        0.483       55.198       34.358        0.387      338.694       11.520      861.045
04/23/2014  11:46:00       64.173       67.640       94.233       81.453      135.079       91.882     6634.568    18246.291     8442.282        2.544        1.666       93.238       95.021        1.039      338.426       11.067      861.059
04/23/2014  11:47:00       79.802        6.677       42.362       50.878       85.223       42.855     2588.540     7263.022     1836.508        0.995        0.584       80.081       47.500        0.352      338.048       10.434      861.097
04/23/2014  11:48:00       46.026      -54.852       14.067       52.877       99.305       42.553     2796.026     9861.514     1810.727        0.989        0.723       71.604       38.913        0.295      338.002       10.356      861.101
04/23/2014  11:49:00       32.561     -111.482      -18.372       54.080       57.672       27.160     2924.664     3326.036      737.643        1.041        0.349      116.139       27.071        0.054      337.928       10.233      861.096
04/23/2014  11:50:00        0.348       20.005       30.494       18.908       26.678       29.508      357.520      711.739      870.713        0.163        0.097       20.008       16.337        0.667      339.141       12.271      861.082
04/23/2014  11:51:00       47.916       48.087       21.317       38.989       45.493       33.591     1520.114     2069.658     1128.338        0.489        0.236       67.884       26.018        0.147      338.545       11.270      861.080
04/23/2014  11:52:00       84.730       56.467       10.697       45.923       39.670       40.651     2108.959     1573.711     1652.515        0.791        0.267      101.822       28.221        0.077      338.233       10.744      861.051
04/23/2014  11:53:00       19.015      112.236      -17.077       44.712       49.141       32.881     1999.183     2414.802     1081.175        0.937        0.275      113.835       25.168        0.049      338.598       11.358      861.037
04/23/2014  11:54:00       82.646       20.277       29.662       69.005       75.163       42.009     4761.683     5649.451     1764.776        1.015        0.609       85.097       16.122        0.036      338.983       12.005      861.029
04/23/2014  11:55:00      205.560      140.376       42.127       78.539       52.392       57.143     6168.388     2744.905     3265.355        3.795        0.609      248.918       20.973        0.007      338.008       10.364      861.015
04/23/2014  11:56:00      135.765       96.148       -4.449       35.156       39.823       32.367     1235.931     1585.896     1047.638        1.578        0.193      166.363       20.896        0.016      338.021       10.389      861.013
04/23/2014  11:57:00       55.039       35.052       12.243       47.585       59.962       51.863     2264.348     3595.387     2689.742        0.648        0.427       65.253       32.218        0.244      338.175       10.648      860.992
04/23/2014  11:58:00      175.136      115.961       24.702       92.693       59.229       61.437     8591.964     3508.070     3774.555        3.030        0.794      210.047       36.558        0.030      338.260       10.789      861.001
04/23/2014  11:59:00      107.082      102.319       20.226      111.253       57.610       57.084    12377.303     3318.867     3258.528        2.065        0.948      148.108       43.229        0.085      338.261       10.789      860.988
04/23/2014  12:00:00       91.472       90.614        7.811       55.668       49.651       47.764     3098.885     2465.220     2281.440        1.224        0.392      128.756       31.389        0.059      338.599       11.360      860.984
04/23/2014  12:01:00      169.591      114.850       32.911       62.217       47.518       40.667     3870.900     2257.926     1653.784        2.541        0.389      204.821       21.820        0.011      338.407       11.036      860.996
04/23/2014  12:02:00      145.542       91.978       36.888      105.623       88.823       68.279    11156.295     7889.440     4662.016        2.735        1.185      172.170       49.664        0.083      338.789       11.677      860.960
04/23/2014  12:03:00       78.933       41.908       72.134      100.359       93.655       64.811    10071.955     8771.254     4200.476        1.811        1.152       89.368       53.358        0.356      339.247       12.450      860.947
04/23/2014  12:04:00      176.108      194.936      169.887      160.273      125.645      122.163    25687.524    15786.608    14923.877        7.713        2.820      262.705      107.605        0.168      338.469       11.139      860.957
04/23/2014  12:05:00      137.946      114.808       92.325      102.688       90.666       71.450    10544.781     8220.356     5105.137        3.230        1.194      179.471       47.833        0.071      338.364       10.963      860.968
04/23/2014  12:06:00       88.671      117.224      110.735      106.759       74.885       85.044    11397.487     5607.751     7232.432        2.905        1.212      146.983       80.045        0.297      338.554       11.281      860.963
04/23/2014  12:07:00      135.973       15.961        7.344       95.462      123.723       67.748     9113.071    15307.284     4589.746        2.390        1.451      136.907       44.897        0.108      338.448       11.104      860.969
04/23/2014  12:08:00       77.224      -41.040       41.202       80.246      137.360       63.271     6439.356    18867.800     4003.237        1.932        1.466       87.452       48.572        0.308      338.998       12.030      860.929
04/23/2014  12:09:00      144.266     -138.245       20.773       78.539      115.000       53.021     6168.389    13225.011     2811.245        3.128        1.110      199.811       54.700        0.075      338.562       11.296      860.889
04/23/2014  12:10:00       71.009      -92.074       37.076       87.092      172.486       77.719     7584.944    29751.471     6040.308        2.913        2.169      116.275       81.821        0.495      339.231       12.421      860.832
04/23/2014  12:11:00       66.475     -140.775        5.890       78.736      123.323       66.835     6199.333    15208.662     4466.977        2.507        1.294      155.681       65.008        0.174      339.002       12.036      860.851
04/23/2014  12:12:00       46.758     -105.056       24.469       72.986       96.849       47.339     5326.984     9379.791     2240.970        1.538        0.847      114.991       45.147        0.154      338.848       11.778      860.860
04/23/2014  12:13:00      106.041       63.657       62.008       85.355       85.639       57.893     7285.517     7334.013     3351.551        1.855        0.899      123.681       28.193        0.052      338.783       11.668      860.860
04/23/2014  12:14:00      121.785      116.147       51.231      106.915       63.030       76.544    11430.875     3972.754     5859.007        2.610        1.063      168.290       73.091        0.189      338.644       11.434      860.857
04/23/2014  12:15:00       91.525       54.647       29.867       64.694       56.148       44.129     4185.377     3152.548     1947.330        1.077        0.464      106.598       32.630        0.094      338.958       11.965      860.842
04/23/2014  12:16:00       94.939       45.263       73.884       78.266       66.093       59.580     6125.497     4368.296     3549.744        1.528        0.702      105.177       43.938        0.175      338.720       11.563      860.839
04/23/2014  12:17:00       59.551      -16.496       34.024       50.334       75.658       50.724     2533.462     5724.085     2572.944        0.790        0.542       61.793       50.520        0.668      338.954       11.957      860.829
04/23/2014  12:18:00       46.824       14.514       51.381       40.826       36.303       30.725     1666.763     1317.883      944.041        0.449        0.196       49.022       27.123        0.306      338.724       11.569      860.810
04/23/2014  12:19:00       11.859       21.692       37.535       26.280       38.170       33.931      690.664     1456.952     1151.292        0.266        0.165       24.722       30.484        1.520      338.973       11.989      860.783
04/23/2014  12:20:00       68.862       34.505       72.362       94.000       70.214       46.108     8836.079     4930.036     2125.907        1.353        0.795       77.023       36.047        0.219      339.263       12.477      860.774
04/23/2014  12:21:00      119.863       38.726       46.795      114.688      131.089       74.741    13153.364    17184.342     5586.171        2.698        1.796      125.964       76.273        0.367      338.763       11.634      860.755
04/23/2014  12:22:00       82.901       36.096       30.870       64.394       68.444       53.011     4146.614     4684.527     2810.151        1.038        0.582       90.419       44.639        0.244      339.179       12.337      860.759
04/23/2014  12:23:00      -34.818      -30.977       39.220       53.389       62.265       35.308     2850.427     3876.971     1246.666        0.584        0.399       46.603       30.269        0.422      339.796       13.375      860.752
04/23/2014  12:24:00       70.370      103.478       31.659       69.020       76.354       64.622     4763.721     5829.882     4175.999        1.571        0.738      125.138       28.216        0.051      338.940       11.932      860.728
04/23/2014  12:25:00       37.406       89.660       40.421       65.182       46.050       56.563     4248.715     2120.568     3199.357        1.032        0.478       97.150       20.183        0.043      339.420       12.742      860.712
04/23/2014  12:26:00       90.344       99.316       97.135      111.478      116.594       84.787    12427.307    13594.113     7188.894        3.033        1.661      134.260       81.589        0.369      338.824       11.736      860.688
04/23/2014  12:27:00      156.964       94.533       39.916      148.057      106.182       71.424    21920.984    11274.682     5101.438        3.672        1.915      183.232       72.870        0.158      339.187       12.347      860.668
04/23/2014  12:28:00      208.473      149.270       26.642       97.009       78.301       70.977     9410.828     6131.039     5037.678        4.351        1.029      256.404       36.654        0.020      338.634       11.415      860.634
04/23/2014  12:29:00      245.912      151.042       20.625       81.743       69.084       58.155     6681.980     4772.665     3381.952        4.927        0.742      288.593       47.545        0.027      338.593       11.347      860.639
04/23/2014  12:30:00      160.403      115.130       13.088       77.922       53.997       57.149     6071.782     2915.623     3266.039        2.570        0.613      197.444       30.967        0.025      338.642       11.429      860.618
04/23/2014  12:31:00      138.412       82.512       29.731       78.004       67.772       58.974     6084.611     4593.034     3477.980        2.050        0.708      161.141       33.504        0.043      339.005       12.043      860.595
04/23/2014  12:32:00       65.650       73.268       83.582       85.072       70.241       53.740     7237.214     4933.858     2888.013        1.586        0.753       98.377       44.596        0.205      339.526       12.918      860.558
04/23/2014  12:33:00       82.539      117.947       84.681      103.764       90.288       73.584    10766.905     8152.013     5414.565        2.611        1.217      143.959       56.950        0.156      339.278       12.500      860.513
04/23/2014  12:34:00      104.372       80.027       69.707       89.777       82.523       78.170     8059.888     6810.013     6110.490        2.156        1.049      131.521       61.734        0.220      338.880       11.832      860.499
04/23/2014  12:35:00       92.086       29.646       88.024      102.375      143.365       79.041    10480.689    20553.594     6247.474        2.719        1.864       96.740       87.955        0.827      339.326       12.581      860.453
04/23/2014  12:36:00       63.582       35.531       79.803      106.044       84.323       72.315    11245.263     7110.412     5229.438        1.762        1.179       72.836       73.553        1.020      339.610       13.060      860.471
04/23/2014  12:37:00      105.954       60.650       72.221      102.309      133.662       81.253    10467.139    17865.598     6602.065        2.752        1.747      122.085       78.230        0.411      339.268       12.483      860.465
04/23/2014  12:38:00       58.938       56.414       85.148       73.810       82.300       55.052     5447.911     6773.359     3030.777        1.458        0.763       81.586       48.235        0.350      339.464       12.814      860.453
04/23/2014  12:39:00       87.466     -130.156      -11.074       98.771      122.345       67.123     9755.793    14968.388     4505.536        2.697        1.461      156.815       72.947        0.216      339.141       12.270      860.450
04/23/2014  12:40:00       62.910       52.317       43.578       79.688       98.166       67.931     6350.126     9636.603     4614.667        1.459        1.030       81.822       67.731        0.685      339.233       12.427      860.448
04/23/2014  12:41:00       67.785      147.112       -9.925       88.701       69.593       44.188     7867.912     4843.171     1952.621        2.050        0.733      161.978       38.600        0.057      338.832       11.750      860.422
04/23/2014  12:42:00       -7.713      242.602      -24.106       37.022       67.748       29.735     1370.614     4589.804      884.157        3.317        0.342      242.724       29.384        0.015      338.685       11.501      860.386
04/23/2014  12:43:00       62.901       78.893       45.530       57.919       64.163       60.552     3354.642     4116.879     3666.580        1.169        0.557      100.899       42.270        0.176      339.490       12.859      860.379
04/23/2014  12:44:00        9.099       55.859       34.311       38.124       44.495       50.669     1453.437     1979.819     2567.300        0.519        0.300       56.595       21.735        0.147      339.719       13.245      860.361
04/23/2014  12:45:00       85.908       43.187       21.031       81.268       73.893       40.244     6604.485     5460.134     1619.613        1.168        0.684       96.153       35.528        0.137      339.380       12.674      860.347
04/23/2014  12:46:00       86.682       -7.599       51.708      127.618       68.994       58.740    16286.314     4760.195     3450.330        1.737        1.225       87.014       48.426        0.310      339.670       13.164      860.335
04/23/2014  12:47:00      124.895      -46.258       58.911      132.862       97.444       64.454    17652.344     9495.290     4154.354        2.625        1.565      133.186       63.239        0.225      339.580       13.010      860.316
04/23/2014  12:48:00      137.439     -201.171      -16.810      122.589      166.577       81.855    15028.154    27748.041     6700.286        5.455        2.474      243.638      110.408        0.205      339.292       12.524      860.299
04/23/2014  12:49:00      156.516      -92.819      -10.799      126.879      196.574      121.613    16098.221    38641.329    14789.714        5.137        3.476      181.969      148.861        0.669      339.150       12.284      860.310
04/23/2014  12:50:00       94.147     -197.729       -5.767       85.947      112.832       74.424     7386.826    12731.110     5538.988        3.682        1.283      218.999       84.269        0.148      338.809       11.710      860.353
04/23/2014  12:51:00      116.342     -161.061      -34.019       75.585       89.505       57.803     5713.044     8011.091     3341.190        2.885        0.853      198.686       49.099        0.061      339.082       12.169      860.361
04/23/2014  12:52:00       71.921     -156.941       -5.544       55.614       59.355       43.505     3092.873     3523.052     1892.722        1.917        0.425      172.636       33.296        0.037      338.898       11.861      860.355
04/23/2014  12:53:00       49.369      -95.675       12.927       61.909      114.748       62.312     3832.741    13167.063     3882.796        1.632        1.044      107.661       65.847        0.374      339.263       12.475      860.328
04/23/2014  12:54:00       51.798      -79.289       36.505       72.045      135.212       73.582     5190.494    18282.277     5414.245        1.959        1.444       94.708       94.097        0.987      339.186       12.345      860.316
04/23/2014  12:55:00      -45.655      -84.572        2.414       78.699       57.465       40.570     6193.502     3302.178     1645.929        1.019        0.557       96.108       38.298        0.159      339.303       12.543      860.307
04/23/2014  12:56:00       21.108      -94.048        4.142       59.393       64.130       39.756     3527.587     4112.628     1580.570        0.926        0.461       96.388       27.372        0.081      339.832       13.436      860.279
04/23/2014  12:57:00      -54.111      -95.877       -6.670       74.405       89.948       57.833     5536.104     8090.617     3344.695        1.456        0.849      110.092       66.287        0.363      339.530       12.926      860.266
04/23/2014  12:58:00     -110.548      -86.324       -9.636       94.361       62.893       42.419     8904.073     3955.587     1799.387        1.721        0.733      140.259       34.253        0.060      339.194       12.359      860.280
04/23/2014  12:59:00     -240.233      -93.663       -6.326       70.882       70.784       40.174     5024.259     5010.369     1613.934        3.908        0.582      257.846       38.940        0.023      338.941       11.930      860.293
04/23/2014  13:00:00     -262.971       23.573      -28.039       53.269       55.039       28.116     2837.563     3029.332      790.497        3.858        0.333      264.026       26.829        0.010      338.786       11.670      860.301
04/23/2014  13:01:00     -194.437      -61.031      -23.757       46.987       44.049       28.302     2207.764     1940.318      800.981        2.352        0.247      203.790       21.255        0.011      338.803       11.702      860.271
04/23/2014  13:02:00      -94.000      -86.925       -7.767       43.921       36.188       22.845     1929.084     1309.580      521.897        1.011        0.188      128.031       18.805        0.022      338.830       11.748      860.255
04/23/2014  13:03:00      -41.806      -60.042       -2.533       60.223       32.157       29.416     3626.826     1034.097      865.329        0.544        0.276       73.163       20.425        0.078      339.179       12.336      860.221
04/23/2014  13:04:00      -36.856      -25.343       11.942       45.254       35.284       30.108     2047.946     1244.977      906.466        0.317        0.210       44.729       30.435        0.463      339.833       13.439      860.193
04/23/2014  13:05:00     -104.522      -10.747       11.573       65.636       75.302       40.068     4308.146     5670.326     1605.409        1.138        0.579      105.073       39.021        0.138      339.563       12.982      860.188
04/23/2014  13:06:00      -52.889      -33.163       -2.036       44.353       42.577       26.007     1967.191     1812.807      676.367        0.418        0.223       62.426       24.009        0.148      339.307       12.552      860.187
04/23/2014  13:07:00      -48.226       23.632        4.895       69.421       64.652       37.187     4819.215     4179.871     1382.838        0.664        0.519       53.705       29.447        0.301      339.426       12.753      860.175
04/23/2014  13:08:00       76.638      111.433       -1.517       45.920       66.163       38.272     2108.637     4377.550     1464.753        1.312        0.398      135.243       36.031        0.071      339.633       13.101      860.153
04/23/2014  13:09:00       22.537      162.195      -23.872       69.909       61.018       38.473     4887.222     3723.143     1480.167        1.874        0.505      163.754       30.797        0.035      339.897       13.544      860.146
04/23/2014  13:10:00       66.136       74.645       17.250       80.511       56.527       54.040     6482.099     3195.258     2920.341        1.142        0.630       99.729       39.527        0.157      339.743       13.285      860.140
04/23/2014  13:11:00       78.983      128.411        2.196       62.668       60.453       44.572     3927.226     3654.603     1986.690        1.615        0.478      150.757       35.776        0.056      339.321       12.575      860.129
04/23/2014  13:12:00        9.671       98.681        0.018       40.380       78.741       31.531     1630.553     6200.166      994.228        0.933        0.441       99.154       31.915        0.104      339.587       13.023      860.119
04/23/2014  13:13:00       23.048       44.143       34.118       54.461       40.227       38.401     2965.960     1618.239     1474.668        0.485        0.303       49.798       28.270        0.322      340.162       13.993      860.128
04/23/2014  13:14:00      161.693       98.356        4.871       63.211       67.972       44.755     3995.590     4620.149     2002.994        2.323        0.531      189.258       29.847        0.025      339.152       12.288      860.131
04/23/2014  13:15:00       50.250       21.737       87.898       65.445       58.372       40.586     4283.092     3407.330     1647.235        1.003        0.467       54.750       46.708        0.728      339.696       13.207      860.110
04/23/2014  13:16:00        8.420      -64.473        7.806       42.902       43.440       32.567     1840.540     1887.059     1060.619        0.454        0.239       65.020       22.107        0.116      339.696       13.207      860.113
04/23/2014  13:17:00      -61.540      213.590      -25.657       63.419      136.082       47.042     4021.970    18518.244     2212.943        3.740        1.238      222.279       62.936        0.080      339.772       13.333      860.097
04/23/2014  13:18:00     -110.642      153.786       -9.200       89.875       97.017       60.145     8077.508     9412.224     3617.371        2.854        1.055      189.451       60.771        0.103      339.568       12.990      860.098
04/23/2014  13:19:00     -107.371       78.629      -26.451       75.639       55.120       36.056     5721.216     3038.197     1300.004        1.423        0.503      133.083       46.071        0.120      339.387       12.686      860.086
04/23/2014  13:20:00       47.337      109.482       10.041       62.127      102.566       52.285     3859.793    10519.761     2733.714        1.572        0.856      119.277       59.690        0.250      340.068       13.832      860.069
04/23/2014  13:21:00      -33.688      184.718      -17.592       61.039      106.934       42.588     3725.709    11434.903     1813.709        2.627        0.849      187.765       56.715        0.091      339.557       12.971      860.081
04/23/2014  13:22:00     -132.205      121.292      -38.482       35.526       59.135       27.136     1262.128     3496.965      736.373        1.958        0.275      179.415       21.965        0.015      339.337       12.601      860.082
04/23/2014  13:23:00      -78.451      136.475       -7.286       47.989       54.772       40.775     2302.910     2999.930     1662.605        1.590        0.348      157.417       39.775        0.064      339.675       13.171      860.065
04/23/2014  13:24:00        3.264      136.885        2.757       59.258      142.834       48.787     3511.456    20401.632     2380.164        2.252        1.315      136.924       70.996        0.269      340.195       14.049      860.058
04/23/2014  13:25:00      109.339      120.736       42.865      104.936       76.969       70.697    11011.636     5924.189     4998.003        2.515        1.097      162.887       34.178        0.044      339.848       13.460      860.049
04/23/2014  13:26:00      131.719       81.289       66.410       80.623       67.397       51.632     6500.048     4542.345     2665.901        2.104        0.685      154.783       32.335        0.044      339.390       12.688      860.027
04/23/2014  13:27:00      184.101      149.239       98.877      142.812       76.190      104.209    20395.351     5804.921    10859.428        5.149        1.853      236.993       96.682        0.166      339.399       12.703      859.998
04/23/2014  13:28:00      105.411       99.150       63.196       71.187       79.827       82.782     5067.644     6372.393     6852.807        2.161        0.915      144.714       53.335        0.136      339.538       12.938      859.992
04/23/2014  13:29:00      105.685      165.517      116.607      131.927      104.977       95.978    17404.636    11020.133     9211.810        4.489        1.882      196.380       94.642        0.232      339.633       13.097      859.974
04/23/2014  13:30:00      117.675      177.967      134.205      117.840       83.125       98.303    13886.245     6909.741     9663.546        4.699        1.523      213.354       92.435        0.188      339.575       12.998      859.963
04/23/2014  13:31:00       46.773      -11.404       76.483       88.460      138.074      103.793     7825.207    19064.362    10773.059        2.291        1.883       48.143       96.403        4.010      339.870       13.498      859.939
04/23/2014  13:32:00      -81.590      165.997       -5.974       70.524       85.260       51.394     4973.635     7269.270     2641.294        2.456        0.744      184.965       49.636        0.072      340.027       13.763      860.013
04/23/2014  13:33:00     -111.443        5.417      -13.521       96.492       92.108       50.488     9310.696     8483.820     2549.032        1.648        1.017      111.575       37.735        0.114      340.064       13.826      859.993
04/23/2014  13:34:00      -48.241      119.088        3.183       63.262       63.479       42.120     4002.064     4029.577     1774.078        1.316        0.490      128.488       32.602        0.064      339.982       13.689      860.007
04/23/2014  13:35:00       59.406       65.370       11.014       53.293       32.760       41.533     2840.151     1073.220     1725.028        0.678        0.282       88.331       30.454        0.119      339.915       13.576      860.015
04/23/2014  13:36:00       15.112       56.484        8.177       33.815       57.894       33.588     1143.471     3351.714     1128.131        0.455        0.281       58.470       34.765        0.354      340.339       14.291      860.022
04/23/2014  13:37:00      142.536      145.051        6.815       80.280       62.110       50.139     6444.847     3857.680     2513.903        2.711        0.641      203.363       46.012        0.051      339.853       13.469      860.034
04/23/2014  13:38:00       40.156       45.395       32.943       70.235       77.094       43.810     4932.916     5943.418     1919.353        0.877        0.640       60.607       34.312        0.321      340.188       14.039      860.037
04/23/2014  13:39:00       34.564      -21.429       29.452       57.236       61.544       47.863     3276.008     3787.702     2290.820        0.594        0.468       40.668       40.756        1.004      340.408       14.409      860.063
04/23/2014  13:40:00       69.200       65.592        2.041       68.504       50.664       38.125     4692.790     2566.811     1453.503        0.890        0.436       95.346       23.605        0.061      340.222       14.093      860.075
04/23/2014  13:41:00       96.880      -62.012       44.587       86.505      181.144       92.886     7483.085    32813.268     8627.836        3.206        2.446      115.028      103.342        0.807      340.098       13.882      860.068
04/23/2014  13:42:00      128.334       98.731       63.763       83.100       54.674       53.610     6905.582     2989.269     2874.042        2.152        0.638      161.917       32.651        0.041      339.711       13.232      860.091
04/23/2014  13:43:00      206.454      116.629       48.123       68.527       63.269       62.170     4695.941     4003.015     3865.116        3.555        0.628      237.120       26.386        0.012      339.407       12.715      860.082
04/23/2014  13:44:00       59.718       37.496       32.462       56.236       39.628       44.747     3162.489     1570.354     2002.311        0.638        0.337       70.513       29.934        0.180      340.026       13.764      860.079
04/23/2014  13:45:00       81.629       83.144        6.972       45.329       58.031       39.089     2054.714     3367.565     1527.922        1.029        0.348      116.517       26.962        0.054      340.009       13.733      860.094
04/23/2014  13:46:00       90.423       62.328       31.031       56.380       59.960       49.234     3178.658     3595.186     2424.012        1.111        0.460      109.823       12.217        0.012      339.728       13.260      860.097
04/23/2014  13:47:00       36.535        6.762       30.135       34.510       39.440       38.333     1190.946     1555.498     1469.447        0.325        0.211       37.155       23.033        0.384      340.352       14.313      860.083
04/23/2014  13:48:00       57.602       49.741       68.979       81.331       66.834       52.633     6614.677     4466.746     2770.251        1.220        0.693       76.106       45.171        0.352      340.071       13.838      860.091
04/23/2014  13:49:00       29.470       57.635       81.717       54.772       56.921       42.466     2999.975     3240.045     1803.338        0.945        0.402       64.733       32.303        0.249      339.969       13.667      860.087
04/23/2014  13:50:00       50.335       71.245       67.218       67.795       80.692       61.123     4596.150     6511.171     3736.046        1.348        0.742       87.233       41.928        0.231      339.975       13.676      860.065
04/23/2014  13:51:00       63.658       70.958       32.150       42.578       67.422       57.904     1812.874     4545.756     3352.844        0.991        0.486       95.328       17.137        0.032      339.780       13.349      860.054
04/23/2014  13:52:00       23.944       79.964       -9.071       60.078       47.709       33.419     3609.326     2276.125     1116.840        0.702        0.350       83.472       34.958        0.175      339.856       13.478      860.044
04/23/2014  13:53:00       71.390       67.667       14.604       73.120       46.710       35.807     5346.600     2181.781     1282.143        0.935        0.441       98.364       33.735        0.118      340.208       14.072      860.022
04/23/2014  13:54:00       32.160       69.129      -16.944       34.056       76.335       27.285     1159.830     5827.100      744.446        0.691        0.387       76.244       16.511        0.047      340.137       13.950      860.009
04/23/2014  13:55:00       19.752      -78.547        4.119       50.588      100.509       56.296     2559.111    10102.155     3169.237        1.120        0.792       80.993       67.665        0.698      340.564       14.673      860.014
04/23/2014  13:56:00      109.965     -192.999      -36.885       96.534      111.066       66.433     9318.834    12335.723     4413.297        3.838        1.303      222.128       76.296        0.118      340.210       14.072      859.987
04/23/2014  13:57:00       65.145      -77.636       21.373       58.829       96.821       68.352     3460.798     9374.361     4672.005        1.411        0.875      101.347       74.990        0.548      340.354       14.316      859.981
04/23/2014  13:58:00      148.285       89.660       12.080       74.834       57.864       46.194     5600.141     3348.245     2133.901        2.063        0.554      173.284       19.408        0.013      340.140       13.954      859.991
04/23/2014  13:59:00      193.064      107.729        1.546       78.038       86.793       62.185     6089.885     7533.108     3866.938        3.318        0.874      221.087       40.957        0.034      340.064       13.824      859.964
04/23/2014  14:00:00       83.407       92.932        6.240      105.266       63.871       44.831    11080.974     4079.458     2009.855        1.640        0.859      124.872       58.030        0.216      339.745       13.289      859.980
04/23/2014  14:01:00       16.902       -0.432       -7.373       32.118       34.943       39.078     1031.572     1221.011     1527.088        0.206        0.189       16.908       22.348        1.747      340.414       14.419      859.960
04/23/2014  14:02:00       53.077       55.798       71.385       80.088       46.847       51.497     6414.096     2194.667     2651.957        1.114        0.563       77.010       46.043        0.357      340.422       14.432      859.957
04/23/2014  14:03:00       10.172       16.281       37.965       24.404       44.384       25.246      595.578     1969.947      637.348        0.251        0.160       19.197       21.788        1.288      340.873       15.195      859.960
04/23/2014  14:04:00       27.744      -37.562        4.489       41.773       54.545       40.915     1744.958     2975.192     1674.063        0.430        0.320       46.697       38.017        0.663      340.696       14.896      859.966
04/23/2014  14:05:00       49.884       31.797       85.422       61.063       76.179       53.644     3728.664     5803.290     2877.648        1.160        0.620       59.157       50.984        0.743      340.519       14.596      859.960
04/23/2014  14:06:00       -5.083      117.254       -6.173       55.966       70.336       39.748     3132.236     4947.089     1579.894        1.173        0.483      117.364       44.498        0.144      340.329       14.276      859.950
04/23/2014  14:07:00       85.537       78.402       28.857       65.380       57.527       41.422     4274.547     3309.301     1715.765        1.180        0.465      116.032       30.158        0.068      340.496       14.556      859.941
04/23/2014  14:08:00      -10.026      113.399        5.744       68.409       59.548       50.356     4679.833     3546.022     2535.761        1.188        0.538      113.842       38.537        0.115      340.701       14.903      859.936
04/23/2014  14:09:00      -32.960      191.819      -12.310       47.630       81.692       46.743     2268.657     6673.619     2184.883        2.458        0.556      194.630       46.310        0.057      340.092       13.873      859.943
04/23/2014  14:10:00      -12.743      101.000        7.500       47.858       74.642       45.266     2290.415     5571.420     2049.012        1.016        0.496      101.800       40.623        0.159      340.677       14.863      859.944
04/23/2014  14:11:00       72.558       51.536       28.037       51.000       36.133       41.164     2600.949     1305.581     1694.469        0.715        0.280       88.998       26.177        0.087      340.817       15.100      859.918
04/23/2014  14:12:00       -1.376      141.670       17.563      126.065      109.841       61.070    15892.293    12065.097     3729.516        2.603        1.584      141.676       58.427        0.170      340.734       14.957      859.910
04/23/2014  14:13:00     -168.115      250.414      -35.171       68.580       78.326       46.540     4703.157     6134.940     2165.963        5.260        0.650      301.612       40.037        0.018      340.176       14.014      859.937
04/23/2014  14:14:00      -68.515      138.641       -6.006       70.571      105.963       52.796     4980.254    11228.189     2787.408        2.147        0.950      154.647       68.384        0.196      340.630       14.783      859.930
04/23/2014  14:15:00      -98.148      160.066      -25.504       67.495       95.789       47.043     4555.547     9175.503     2213.055        2.592        0.797      187.761       32.192        0.029      340.200       14.055      859.942
04/23/2014  14:16:00     -115.054      104.456      -12.665      100.137      134.031       50.703    10027.420    17964.284     2570.792        2.743        1.528      155.398       47.259        0.092      340.429       14.441      859.940
04/23/2014  14:17:00      -71.582      -21.103       15.228      116.712       51.064       53.229    13621.758     2607.488     2833.297        1.243        0.953       74.628       64.343        0.743      340.926       15.283      859.957
04/23/2014  14:18:00       18.861       32.051       51.338       33.753       36.707       29.692     1139.268     1347.435      881.605        0.369        0.168       37.189       21.531        0.335      341.154       15.670      859.950
04/23/2014  14:19:00      -11.447      -42.195       -2.485       66.145       49.283       27.979     4375.173     2428.859      782.828        0.475        0.379       43.720       21.565        0.243      340.727       14.947      859.955
04/23/2014  14:20:00      -10.035      -13.373        9.868       62.202       41.625       33.008     3869.135     1732.640     1089.522        0.353        0.335       16.719       27.009        2.610      340.908       15.254      859.925
04/23/2014  14:21:00      -97.566        0.300       -6.613       72.580       35.330       23.661     5267.850     1248.183      559.838        0.832        0.354       97.566       32.901        0.114      340.328       14.274      859.914
04/23/2014  14:22:00       80.620       96.563       -1.300       64.808       62.874       40.884     4200.136     3953.169     1671.541        1.282        0.491      125.793       30.407        0.058      340.404       14.401      859.910
04/23/2014  14:23:00       15.512      208.069      -31.456       67.305       61.088       39.838     4529.903     3731.797     1587.096        2.718        0.492      208.646       23.144        0.012      340.408       14.404      859.866
04/23/2014  14:24:00       43.185      237.942      -26.069       75.998       70.237       45.751     5775.667     4933.302     2093.141        3.598        0.640      241.829       36.620        0.023      340.677       14.860      859.846
04/23/2014  14:25:00      139.127       72.745       21.972       62.435       66.555       56.286     3898.115     4429.609     3168.079        1.831        0.575      156.997       42.079        0.072      340.946       15.318      859.850
04/23/2014  14:26:00       77.009       53.240       73.905      101.268      108.614       86.036    10255.291    11796.895     7402.124        2.183        1.473       93.621       83.024        0.786      340.404       14.399      859.812
04/23/2014  14:27:00       39.397      156.325      177.573       73.103      138.412       91.195     5343.988    19157.919     8316.542        4.516        1.641      161.213       99.250        0.379      340.723       14.940      859.767
04/23/2014  14:28:00      107.262     -105.196       49.244       95.133      135.692       75.894     9050.348    18412.409     5759.888        2.910        1.661      150.238       95.021        0.400      340.383       14.363      859.779
04/23/2014  14:29:00      119.098       15.471       82.650       92.376      109.650       64.577     8533.364    12023.204     4170.250        2.299        1.236      120.098       49.842        0.172      340.655       14.825      859.744
04/23/2014  14:30:00       95.589      123.750       15.733      104.302      129.355       65.847    10878.941    16732.608     4335.836        2.832        1.597      156.370       54.245        0.120      340.670       14.850      859.706
04/23/2014  14:31:00      165.819      149.320        3.022       98.695       56.137       53.797     9740.613     3151.371     2894.111        3.279        0.789      223.143       31.570        0.020      340.407       14.404      859.704
04/23/2014  14:32:00      169.277      133.390       34.723      117.580       74.015       74.418    13825.003     5478.240     5538.035        3.624        1.242      215.517       31.725        0.022      340.397       14.386      859.691
04/23/2014  14:33:00       60.367      -21.183       42.943       85.519      152.510       69.497     7313.482    23259.154     4829.850        2.066        1.770       63.976       84.011        1.724      340.541       14.631      859.655
04/23/2014  14:34:00       61.639       20.723       90.365       75.589      104.415       50.004     5713.742    10902.405     2500.421        1.575        0.956       65.030       45.173        0.483      340.788       15.049      859.652
04/23/2014  14:35:00      150.203       59.220       36.693       92.061       59.834       57.610     8475.279     3580.088     3318.892        2.139        0.769      161.455       55.161        0.117      340.395       14.384      859.670
04/23/2014  14:36:00      111.127       66.376       23.022       61.570       44.196       36.609     3790.903     1953.321     1340.208        1.218        0.354      129.441       21.218        0.027      340.282       14.195      859.657
04/23/2014  14:37:00       -0.127       41.318        5.358       64.381       61.781       32.837     4144.975     3816.928     1078.252        0.539        0.452       41.318       34.893        0.713      340.715       14.927      859.663
04/23/2014  14:38:00      -23.993       66.035      -19.957       84.684      139.154       45.985     7171.360    19363.816     2114.593        1.699        1.432       70.258       57.271        0.664      340.528       14.609      859.663
04/23/2014  14:39:00      185.474      122.374       36.226       76.558       55.214       54.495     5861.111     3048.584     2969.655        3.128        0.594      222.207       20.691        0.009      340.338       14.286      859.647
04/23/2014  14:40:00      170.628      107.691       34.035       92.827       60.295       41.952     8616.771     3635.459     1759.934        2.794        0.701      201.770       25.208        0.016      340.364       14.330      859.618
04/23/2014  14:41:00       95.510      113.036      -10.406       79.381       63.004       55.715     6301.381     3969.552     3104.142        1.769        0.669      147.984       46.775        0.100      340.406       14.404      859.592
04/23/2014  14:42:00       -2.032       76.068        7.755       76.763       88.916       51.962     5892.611     7905.991     2700.084        1.117        0.825       76.095       49.840        0.429      340.854       15.161      859.589
04/23/2014  14:43:00      -29.061       31.322        4.733       50.821       47.138       46.235     2582.807     2222.032     2137.665        0.439        0.347       42.728       38.013        0.792      341.371       16.037      859.585
04/23/2014  14:44:00      -77.573       45.837       -7.837       57.582       46.422       32.525     3315.727     2155.017     1057.905        0.735        0.326       90.103       34.747        0.149      341.022       15.447      859.582
04/23/2014  14:45:00      -28.561       33.604       14.547       59.706       44.554       31.600     3564.757     1985.086      998.536        0.435        0.327       44.102       36.779        0.695      340.882       15.211      859.566
04/23/2014  14:46:00       41.194      100.495        6.062       59.366       67.765       51.547     3524.321     4592.047     2657.056        1.130        0.539      108.610       51.821        0.228      340.528       14.611      859.560
04/23/2014  14:47:00      -35.669       25.376       25.805       89.956       42.008       35.386     8092.125     1764.660     1252.201        0.684        0.555       43.775       31.459        0.516      340.928       15.287      859.543
04/23/2014  14:48:00     -137.488       36.049      -19.686       34.558       25.827       19.168     1194.278      667.057      367.429        1.141        0.111      142.136       12.892        0.008      340.359       14.325      859.531
04/23/2014  14:49:00      -68.545       -1.331       -6.879       35.801       40.195       20.245     1281.702     1615.664      409.870        0.403        0.165       68.558       22.789        0.110      340.585       14.706      859.496
04/23/2014  14:50:00      -36.732      -25.189        0.711       41.034       37.564       27.291     1683.800     1411.069      744.782        0.291        0.192       44.539       18.414        0.171      341.048       15.491      859.472
04/23/2014  14:51:00      -17.153        9.328        5.758       40.698       24.293       26.077     1656.354      590.172      680.025        0.167        0.146       19.525       26.837        1.889      341.444       16.162      859.468
04/23/2014  14:52:00       -6.316      138.158       -4.970       60.604       83.365       39.739     3672.859     6949.641     1579.211        1.567        0.610      138.302       37.127        0.072      340.933       15.295      859.457
04/23/2014  14:53:00      -10.334      153.229       -7.915       56.830       45.007       35.749     3229.603     2025.611     1277.970        1.509        0.327      153.577       28.650        0.035      341.096       15.572      859.441
04/23/2014  14:54:00     -106.113      162.166      -15.219       45.945       67.423       45.647     2110.936     4545.887     2083.689        2.326        0.437      193.798       40.672        0.044      340.872       15.191      859.444
04/23/2014  14:55:00      -67.832       87.601      -16.288       69.875       61.554       34.574     4882.485     3788.841     1195.368        1.120        0.493      110.793       35.275        0.101      340.735       14.961      859.441
04/23/2014  14:56:00       26.720        6.509      -14.000       24.811       49.600       22.214      615.573     2460.200      493.440        0.226        0.178       27.501       13.096        0.227      340.725       14.944      859.420
04/23/2014  14:57:00      -65.741      110.296      -19.786       48.715       49.541       30.882     2373.122     2454.348      953.673        1.133        0.289      128.402       29.859        0.054      341.079       15.544      859.412
04/23/2014  14:58:00      -13.339       80.403       -9.952       25.215       95.779       22.066      635.815     9173.621      486.905        0.852        0.515       81.502       28.301        0.121      340.714       14.924      859.411
04/23/2014  14:59:00       75.806       51.511        4.649       45.694       31.022       27.774     2087.938      962.389      771.396        0.612        0.191       91.651       22.413        0.060      340.804       15.078      859.386
04/23/2014  15:00:00       45.669       36.914       44.587       73.201       54.809       48.392     5358.380     3004.045     2341.787        0.807        0.535       58.722       27.835        0.225      341.285       15.892      859.344
04/23/2014  15:01:00      -47.649        4.652       17.749       50.093       41.167       33.100     2509.305     1694.724     1095.579        0.395        0.265       47.876       30.731        0.412      341.472       16.209      859.317
04/23/2014  15:02:00      -68.976       37.765      -11.225       49.585       79.241       24.012     2458.667     6279.130      576.562        0.781        0.466       78.638       21.457        0.074      341.433       16.142      859.305
04/23/2014  15:03:00       18.415      186.422      -12.695       99.203      127.768       51.522     9841.261    16324.567     2654.530        3.203        1.441      187.329       63.675        0.116      341.155       15.669      859.291
04/23/2014  15:04:00       15.765      175.697      -25.566       58.980      111.824       48.198     3478.626    12504.626     2323.030        2.504        0.915      176.403       63.564        0.130      340.849       15.153      859.275
04/23/2014  15:05:00       22.536      229.342      -37.456       81.682       81.651       35.444     6671.941     6666.848     1256.291        3.455        0.730      230.447       41.793        0.033      341.035       15.466      859.262
04/23/2014  15:06:00       31.530      192.336      -32.678       55.205       61.045       38.821     3047.549     3726.527     1507.089        2.367        0.414      194.903       40.586        0.043      340.854       15.161      859.267
04/23/2014  15:07:00       58.491      222.368      -39.451       39.479       49.600       33.625     1558.584     2460.196     1130.623        2.979        0.257      229.932       20.479        0.008      340.728       14.947      859.243
04/23/2014  15:08:00      -39.978      181.038      -36.417       38.359       54.688       24.622     1471.417     2990.770      606.255        2.038        0.253      185.400       21.941        0.014      340.723       14.939      859.219
04/23/2014  15:09:00        5.554       74.266      -13.509       90.307       51.155       42.019     8155.299     2616.808     1765.575        0.913        0.627       74.473       37.525        0.254      340.925       15.283      859.203
04/23/2014  15:10:00       45.833       91.333       -1.699       72.417       67.755       36.515     5244.292     4590.686     1333.327        1.080        0.558      102.188       22.944        0.050      341.222       15.785      859.169
04/23/2014  15:11:00      -28.860      103.600       -9.792       91.079       55.661       35.279     8295.344     3098.133     1244.606        1.215        0.632      107.545       32.510        0.091      341.290       15.900      859.157
04/23/2014  15:12:00      -39.506       42.331       16.060       66.600       50.289       30.203     4435.606     2528.951      912.240        0.574        0.394       57.902       34.650        0.358      341.121       15.616      859.156
04/23/2014  15:13:00      -30.326        3.996        5.670       60.190       31.208       24.543     3622.811      973.926      602.380        0.308        0.260       30.588       16.689        0.298      341.261       15.851      859.144
04/23/2014  15:14:00     -181.595      -42.878      -11.367       84.553       77.711       33.437     7149.178     6038.958     1118.021        2.462        0.715      186.588       32.850        0.031      341.335       15.975      859.136
04/23/2014  15:15:00     -324.755     -138.723      -22.697      143.751      126.686       54.118    20664.450    16049.264     2928.792        8.243        1.982      353.143       66.435        0.035      341.440       16.151      859.096
04/23/2014  15:16:00     -228.470     -168.626      -14.222      143.496      125.739       69.216    20591.096    15810.208     4790.797        6.101        2.060      283.960       60.304        0.045      341.349       15.997      859.115
04/23/2014  15:17:00     -185.219     -151.961       -3.727      138.192       97.738       62.564    19097.072     9552.650     3914.289        4.498        1.628      239.580       60.896        0.065      341.225       15.787      859.150
04/23/2014  15:18:00     -199.356      -58.485        4.479      105.176       85.271       45.438    11061.925     7271.109     2064.572        3.179        1.020      207.758       50.203        0.058      341.186       15.721      859.135
04/23/2014  15:19:00      -90.147     -284.695       -5.235       47.308       66.916       30.709     2238.008     4477.729      943.013        4.843        0.383      298.627       15.621        0.003      340.678       14.859      859.153
04/23/2014  15:20:00      -41.222     -165.298      -11.896       92.477       85.830       56.371     8551.937     7366.798     3177.715        2.413        0.955      170.361       42.191        0.061      341.485       16.229      859.123
04/23/2014  15:21:00      -39.724      -87.701      -10.839       61.788       90.735       44.413     3817.757     8232.797     1972.501        1.170        0.701       96.278       44.052        0.209      341.598       16.422      859.120
04/23/2014  15:22:00     -202.619      -69.953        6.675      105.179       79.325       44.173    11062.713     6292.518     1951.236        3.265        0.965      214.355       41.987        0.038      341.593       16.411      859.136
04/23/2014  15:23:00     -195.494     -119.008       -0.113      124.534       77.066       51.805    15508.659     5939.229     2683.777        3.825        1.207      228.868       62.167        0.074      341.241       15.815      859.151
04/23/2014  15:24:00     -159.600     -107.932       18.025      120.982       94.419       63.335    14636.644     8915.005     4011.347        3.250        1.378      192.670       64.400        0.112      341.279       15.880      859.130
04/23/2014  15:25:00     -100.401      -35.958      -12.800      100.045       70.077       46.410    10009.076     4910.839     2153.888        1.430        0.854      106.646       25.675        0.058      341.563       16.361      859.123
04/23/2014  15:26:00     -241.174      102.164      -19.689      119.466       58.357       49.092    14272.237     3405.589     2410.002        4.453        1.004      261.921       51.294        0.038      341.457       16.181      859.134
04/23/2014  15:27:00      -99.599       62.270       -2.797       97.973       58.461       41.081     9598.624     3417.747     1687.645        1.425        0.735      117.463       40.318        0.118      341.837       16.827      859.133
04/23/2014  15:28:00      -57.463      174.832      -12.526       45.720       87.262       41.411     2090.283     7614.646     1714.904        2.272        0.571      184.033       36.482        0.039      341.171       15.697      859.148
04/23/2014  15:29:00      -49.723      181.824      -14.484       63.562       70.492       40.331     4040.162     4969.188     1626.552        2.319        0.532      188.501       40.007        0.045      341.146       15.654      859.140
04/23/2014  15:30:00     -182.034      144.066      -46.642       41.005       45.553       28.216     1681.411     2075.098      796.154        3.031        0.228      232.145       14.184        0.004      340.906       15.248      859.150
04/23/2014  15:31:00      -17.499      -21.592      -31.176      111.045      121.788       41.564    12331.015    14832.412     1727.602        1.531        1.445       27.793       44.236        2.533      340.837       15.135      859.139
04/23/2014  15:32:00       28.894       92.737       28.689       47.067       56.395       58.710     2215.332     3180.361     3446.880        0.955        0.442       97.134       28.014        0.083      341.123       15.618      859.091
04/23/2014  15:33:00      -17.687      149.691      -22.544       27.706       30.776       19.954      767.604      947.188      398.154        1.267        0.106      150.733       16.007        0.011      340.932       15.295      859.097
04/23/2014  15:34:00      -26.913       47.546        8.515       62.200       74.584       33.055     3868.870     5562.769     1092.616        0.679        0.526       54.634       31.630        0.335      341.555       16.348      859.078
04/23/2014  15:35:00      -90.074       86.489       -9.376       72.505       93.330       29.870     5257.019     8710.398      892.222        1.527        0.743      124.875       34.968        0.078      341.293       15.905      859.074
04/23/2014  15:36:00      -68.747       13.174      -11.944       60.666       40.624       22.892     3680.420     1650.326      524.044        0.545        0.293       69.998       27.761        0.157      341.199       15.747      859.049
04/23/2014  15:37:00      -66.338       77.814       -7.279       49.316       52.980       34.931     2432.082     2806.835     1220.160        0.848        0.323      102.254       29.692        0.084      341.690       16.577      859.022
04/23/2014  15:38:00      -64.580      161.853      -17.910       53.198       98.770       30.655     2830.037     9755.595      939.721        2.210        0.676      174.261       36.472        0.044      341.357       16.011      859.021
04/23/2014  15:39:00      -20.709      189.682        7.085       59.038      126.856       59.338     3485.528    16092.552     3520.968        2.977        1.155      190.809       61.230        0.103      341.650       16.508      859.018
04/23/2014  15:40:00     -120.506      177.828      -26.750       64.127       69.525       42.534     4112.248     4833.678     1809.118        2.881        0.538      214.813       32.128        0.022      341.385       16.059      859.030
04/23/2014  15:41:00     -102.016       37.435      -25.630       43.708       54.879       29.826     1910.388     3011.753      889.612        0.914        0.291      108.668       27.707        0.065      340.968       15.353      859.041
04/23/2014  15:42:00      -23.703       37.485      -25.148       54.246       46.403       20.811     2942.677     2153.226      433.103        0.406        0.276       44.350       16.415        0.137      341.158       15.677      859.059
04/23/2014  15:43:00      -50.576       23.428      -13.986       24.654       41.504       27.901      607.839     1722.551      778.441        0.320        0.155       55.738       21.333        0.146      341.326       15.961      859.037
04/23/2014  15:44:00      -90.707       26.379       -2.881       60.312       46.974       29.067     3637.541     2206.539      844.890        0.781        0.334       94.465       25.932        0.075      341.625       16.468      859.007
04/23/2014  15:45:00      -66.181        1.737        0.714       68.998       31.820       30.801     4760.708     1012.523      948.706        0.555        0.336       66.204       31.228        0.223      341.540       16.326      859.001
04/23/2014  15:46:00      -18.148       -9.218       17.287       94.265       54.320       44.897     8885.929     2950.705     2015.782        0.728        0.693       20.355       55.860        7.531      341.712       16.616      858.982
04/23/2014  15:47:00      -55.294       99.199      -13.443       53.237       79.231       40.836     2834.169     6277.579     1667.553        1.193        0.539      113.569       50.459        0.197      341.405       16.094      858.981
04/23/2014  15:48:00      -11.286       83.275      -11.145       22.377       33.623       26.558      500.739     1130.519      705.319        0.476        0.117       84.036       17.058        0.041      341.291       15.903      858.965
04/23/2014  15:49:00      -31.915        8.980        8.797       43.616       21.726       24.314     1902.323      472.007      591.148        0.207        0.148       33.154       20.677        0.389      341.799       16.762      858.958
04/23/2014  15:50:00     -112.097       31.671       -5.230       65.610       59.170       39.807     4304.699     3501.069     1584.617        1.149        0.470      116.485       35.961        0.095      341.981       17.070      858.961
04/23/2014  15:51:00     -155.252     -106.585        7.402      112.987      172.501       66.517    12766.031    29756.767     4424.576        4.122        2.347      188.317       84.483        0.201      341.696       16.584      858.940
04/23/2014  15:52:00      -74.577     -240.942       -9.869       93.431      113.820       59.961     8729.367    12954.912     3595.340        4.449        1.264      252.220       70.327        0.078      341.492       16.239      858.952
04/23/2014  15:53:00     -135.637      -93.445       20.564      130.231       77.495       51.901    16960.042     6005.445     2693.669        2.660        1.283      164.710       62.203        0.143      341.843       16.837      858.911
04/23/2014  15:54:00     -221.967     -111.723        8.578      127.733       81.836       53.076    16315.654     6697.133     2817.096        4.382        1.291      248.498       57.117        0.053      341.444       16.158      858.906
04/23/2014  15:55:00      -60.924     -121.427       -0.681      111.098       73.984       45.025    12342.849     5473.618     2027.263        1.915        0.992      135.854       32.678        0.058      341.631       16.476      858.911
04/23/2014  15:56:00        9.213     -160.922      -38.203       82.874       77.951       56.500     6868.076     6076.324     3192.248        2.179        0.807      161.185       37.126        0.053      342.262       17.547      858.886
04/23/2014  15:57:00      -57.613      -86.549      -22.106       67.653       91.428       50.811     4576.958     8359.147     2581.755        1.341        0.776      103.971       44.738        0.185      341.898       16.929      858.884
04/23/2014  15:58:00       36.943     -182.447      -22.350      117.697      104.320       53.096    13852.653    10882.585     2819.198        3.135        1.378      186.150       49.902        0.072      341.858       16.862      858.871
04/23/2014  15:59:00       67.569     -196.273       -5.017      132.847      104.469       67.963    17648.429    10913.818     4618.946        3.814        1.659      207.578       55.747        0.072      341.711       16.611      858.859
04/23/2014  16:00:00      144.649     -267.787      -72.784       87.427      128.612       62.745     7643.556    16540.998     3936.964        6.302        1.406      304.357       52.003        0.029      341.190       15.729      858.830
04/23/2014  16:01:00      135.934     -219.522      -23.524       62.494       86.595       64.517     3905.538     7498.700     4162.444        4.139        0.778      258.202       54.524        0.045      341.265       15.852      858.851
04/23/2014  16:02:00       11.224      -29.580       47.909       39.155       53.369       52.252     1533.123     2848.303     2730.317        0.520        0.356       31.638       25.159        0.632      341.897       16.928      858.822
04/23/2014  16:03:00       61.741     -119.745      -29.300      102.141      132.498       81.204    10432.760    17555.681     6594.043        2.679        1.729      134.725       70.113        0.271      341.602       16.428      858.787
04/23/2014  16:04:00      141.801      -71.167       61.661      107.060      161.645      110.453    11461.897    26129.111    12199.911        3.937        2.490      158.658      115.888        0.534      341.578       16.387      858.748
04/23/2014  16:05:00       71.777      -17.948       77.724       75.287       95.599       80.211     5668.143     9139.233     6433.730        1.637        1.062       73.987       61.206        0.684      341.546       16.333      858.757
04/23/2014  16:06:00       77.384     -108.589       24.813       87.398       94.206       69.941     7638.340     8874.687     4891.690        1.990        1.070      133.341       66.926        0.252      341.494       16.244      858.768
04/23/2014  16:07:00       41.902      -75.265       25.576       91.471      122.050       67.413     8366.893    14896.195     4544.574        1.794        1.390       86.142       37.794        0.192      341.678       16.557      858.759
04/23/2014  16:08:00       89.247       67.619       64.743       71.239       46.500       45.897     5074.990     2162.270     2106.571        1.303        0.467      111.971       23.233        0.043      341.682       16.564      858.782
04/23/2014  16:09:00       36.675      -43.887       -3.696       53.957       64.863       41.308     2911.384     4207.190     1706.387        0.605        0.441       57.194       34.001        0.353      341.540       16.323      858.794
04/23/2014  16:10:00       34.979      -92.836      -12.219       37.414       45.135       23.354     1399.802     2037.170      545.388        0.699        0.199       99.207       18.689        0.035      341.220       15.781      858.814
04/23/2014  16:11:00       22.515     -110.842      -21.511       53.601       59.366       40.281     2873.108     3524.280     1622.549        1.064        0.401      113.106       31.983        0.080      341.838       16.828      858.819
04/23/2014  16:12:00      -30.198      -67.692       11.687       76.053       63.287       45.907     5784.013     4005.214     2107.427        0.876        0.595       74.122       28.622        0.149      342.111       17.292      858.796
04/23/2014  16:13:00     -122.420      -43.792       17.951      152.492       87.993       52.732    23253.668     7742.680     2780.691        2.550        1.689      130.017       68.307        0.276      342.194       17.432      858.764
04/23/2014  16:14:00     -302.744        9.605      -20.094      131.375      127.910       61.407    17259.313    16360.919     3770.774        6.476        1.870      302.896       66.823        0.049      341.610       16.439      858.786
04/23/2014  16:15:00     -157.093      -48.828       -2.261      106.241       61.014       47.594    11287.248     3722.665     2265.181        2.217        0.864      164.507       61.744        0.141      341.567       16.368      858.764
04/23/2014  16:16:00       -6.127      -22.688       16.809       53.770       36.502       27.932     2891.217     1332.368      780.191        0.292        0.250       23.500       24.351        1.074      342.097       17.269      858.713
04/23/2014  16:17:00        2.634        9.931        9.608       33.556       38.028       26.873     1125.995     1446.162      722.133        0.175        0.165       10.275       20.199        3.865      342.348       17.696      858.729
04/23/2014  16:18:00        1.612      -56.924       24.842       44.026       49.661       36.074     1938.266     2466.212     1301.324        0.478        0.285       56.947       26.796        0.221      342.546       18.031      858.742
04/23/2014  16:19:00       18.705      -76.101       -6.822       57.324       86.694       39.422     3286.031     7515.885     1554.109        0.927        0.618       78.366       37.463        0.229      342.188       17.422      858.750
04/23/2014  16:20:00      -92.585     -127.933       -4.757      141.665       68.941       48.982    20068.897     4752.908     2399.264        2.609        1.361      157.921       32.873        0.043      342.054       17.194      858.799
04/23/2014  16:21:00     -240.120     -177.313        5.273      175.046       96.918       68.857    30641.190     9393.104     4741.223        6.694        2.239      298.492       70.603        0.056      342.106       17.279      858.758
04/23/2014  16:22:00     -336.481      -72.135      -23.072      165.537      150.858       70.405    27402.574    22758.209     4956.809        8.703        2.756      344.127       79.873        0.054      342.029       17.151      858.751
04/23/2014  16:23:00     -422.590     -202.875      -10.867      178.396      178.049       80.219    31825.164    31701.451     6435.050       14.490        3.498      468.765       68.183        0.021      342.005       17.109      858.727
04/23/2014  16:24:00     -310.518      -74.783       -9.014      211.299      126.216       73.711    44647.248    15930.362     5433.362        8.404        3.301      319.396       89.436        0.078      341.935       16.990      858.785
04/23/2014  16:25:00     -304.631     -213.415      -17.193      164.648      135.873       78.498    27108.917    18461.579     6161.870        9.518        2.587      371.949       70.292        0.036      341.871       16.880      858.784
04/23/2014  16:26:00     -250.466      -85.726       22.648      206.439      124.295       70.687    42617.166    15449.163     4996.682        6.682        3.153      264.730       86.575        0.107      342.155       17.365      858.806
04/23/2014  16:27:00     -299.111     -172.003       -2.621      181.990      129.162       65.051    33120.456    16682.763     4231.628        8.654        2.702      345.039       70.987        0.042      341.765       16.702      858.827
04/23/2014  16:28:00     -295.455      -84.767      -15.885      205.654      155.002       71.557    42293.511    24025.621     5120.444        8.307        3.572      307.374       96.256        0.098      341.753       16.683      858.840
04/23/2014  16:29:00     -239.219     -155.356        9.951      199.142      185.604       75.661    39657.525    34448.915     5724.580        8.063        3.992      285.239       93.999        0.109      341.778       16.725      858.841
04/23/2014  16:30:00     -386.541     -217.293       -1.796      194.198      101.022       73.352    37712.772    10205.442     5380.443       12.496        2.665      443.430       77.584        0.031      341.464       16.192      858.827
04/23/2014  16:31:00     -388.694     -228.366       -3.013      202.262      126.508       77.343    40910.024    16004.192     5981.892       13.306        3.145      450.815       78.737        0.031      341.489       16.233      858.830
04/23/2014  16:32:00     -335.599     -259.883        4.421      196.753      130.754       87.407    38711.656    17096.675     7639.990       12.180        3.172      424.459       85.700        0.041      341.791       16.747      858.839
04/23/2014  16:33:00     -242.985     -181.257        7.361      153.538      133.697       78.944    23573.960    17874.922     6232.120        6.981        2.384      303.143       76.954        0.064      341.727       16.637      858.871
04/23/2014  16:34:00     -170.445       38.791        2.932       96.356      102.010       51.357     9284.557    10405.959     2637.520        2.644        1.116      174.804       43.445        0.062      341.661       16.527      858.857
04/23/2014  16:35:00     -294.338     -229.629      -15.891      152.560      123.119       74.622    23274.596    15158.209     5568.419        9.180        2.200      373.315       80.808        0.047      341.544       16.327      858.865
04/23/2014  16:36:00     -338.482     -258.388        0.926      130.777      121.954       72.932    17102.568    14872.662     5319.017       10.931        1.865      425.833       73.019        0.029      341.511       16.271      858.864
04/23/2014  16:37:00     -259.596     -180.330       -2.182      111.239      116.913       56.737    12374.119    13668.675     3219.129        6.458        1.463      316.084       51.663        0.027      341.492       16.240      858.869
04/23/2014  16:38:00     -232.487      -94.785      -12.591       74.610       73.876       33.202     5566.681     5457.652     1102.400        3.766        0.606      251.066       37.568        0.022      341.162       15.681      858.867
04/23/2014  16:39:00     -175.208      -72.526      -10.506       72.754       92.919       40.003     5293.203     8634.025     1600.263        2.579        0.776      189.626       34.843        0.034      341.515       16.280      858.876
04/23/2014  16:40:00      -98.679      -11.492       26.115      114.456      128.159       60.978    13100.078    16424.611     3718.338        2.189        1.662       99.346       65.678        0.437      341.743       16.667      858.913
04/23/2014  16:41:00      -87.956      -51.878       -4.470      110.949       90.808       52.039    12309.594     8246.169     2708.057        1.685        1.163      102.115       38.322        0.141      341.681       16.563      858.907
04/23/2014  16:42:00     -100.308     -202.287       -8.938      102.381      132.787       58.412    10481.838    17632.491     3411.963        4.129        1.576      225.791       55.922        0.061      341.347       15.994      858.918
04/23/2014  16:43:00     -134.697     -226.951        9.649      122.419      100.077       54.137    14986.492    10015.422     2930.764        4.883        1.397      263.913       45.605        0.030      341.411       16.101      858.913
04/23/2014  16:44:00     -255.746     -237.923        0.772      135.823      126.675       68.015    18447.888    16046.503     4625.995        8.056        1.956      349.304       47.437        0.018      341.537       16.315      858.891
04/23/2014  16:45:00     -177.475     -238.606        8.541      149.965      201.186       75.314    22489.619    40475.842     5672.130        7.856        3.432      297.372       96.259        0.105      341.797       16.756      858.896
04/23/2014  16:46:00     -113.028     -159.804       17.841      130.453      146.331       56.784    17018.051    21412.795     3224.443        4.013        2.083      195.736       75.333        0.148      341.647       16.503      858.913
04/23/2014  16:47:00      -95.694      -83.457       -5.027      112.013       71.817       45.444    12546.861     5157.732     2065.119        1.795        0.988      126.974       49.869        0.154      341.874       16.888      858.904
04/23/2014  16:48:00       17.228     -166.528      -16.145      107.825      143.379       87.434    11626.299    20557.562     7644.665        3.405        1.991      167.417       81.408        0.236      341.870       16.880      858.858
04/23/2014  16:49:00      -39.108     -238.127       -3.988       65.812       84.291       49.025     4331.261     7104.930     2403.489        3.604        0.692      241.317       30.456        0.016      341.878       16.894      858.850
04/23/2014  16:50:00      -40.269     -130.404       -0.224       60.697      116.219       37.770     3684.158    13506.916     1426.549        1.862        0.931      136.480       40.565        0.088      341.903       16.938      858.861
04/23/2014  16:51:00     -302.643     -213.749      -10.768      179.995      118.753       64.597    32398.101    14102.386     4172.747        9.403        2.534      370.516       52.845        0.020      341.926       16.975      858.915
04/23/2014  16:52:00     -457.603     -193.653      -20.747      249.049      170.632       86.379    62025.290    29115.115     7461.332       17.295        4.930      496.892      103.967        0.044      341.594       16.410      858.891
04/23/2014  16:53:00     -407.772     -129.185       -9.802      225.387      191.358       83.758    50799.182    36617.715     7015.481       13.873        4.722      427.746       96.366        0.051      341.603       16.427      858.910
04/23/2014  16:54:00     -414.512     -213.199      -12.025      232.250      209.934       98.451    53940.155    44072.118     9692.528       16.254        5.385      466.127      119.393        0.066      341.627       16.467      858.918
04/23/2014  16:55:00     -309.932     -193.508       11.029      242.238      153.262       84.132    58679.171    23489.331     7078.162       11.142        4.462      365.381       97.535        0.071      341.554       16.345      858.966
04/23/2014  16:56:00     -341.143     -227.198        2.301      200.724      139.038       84.782    40290.100    19331.442     7187.912       11.739        3.340      409.875       99.606        0.059      341.529       16.300      858.980
04/23/2014  16:57:00     -403.591     -266.569      -12.575      193.046      146.733       73.393    37266.659    21530.648     5386.581       14.913        3.209      483.678       82.217        0.029      341.161       15.677      858.989
04/23/2014  16:58:00     -173.872      -88.695        2.572      120.418       90.030       44.231    14500.468     8105.426     1956.396        3.133        1.228      195.188       44.269        0.051      341.286       15.891      858.999
04/23/2014  16:59:00      -72.301      -48.566       10.691       69.265       41.287       31.185     4797.588     1704.576      972.488        0.759        0.374       87.098       29.065        0.111      341.448       16.170      858.953
04/23/2014  17:00:00     -185.528     -102.982       10.729      160.154      126.538       52.830    25649.405    16011.983     2790.985        4.479        2.223      212.194       73.841        0.121      341.645       16.499      858.954
04/23/2014  17:01:00     -153.119     -251.309        3.620      173.993      161.747       71.096    30273.531    26162.094     5054.579        7.404        3.075      294.281       78.647        0.071      341.177       15.707      858.951
04/23/2014  17:02:00     -347.625     -100.474       -8.019      178.169      138.680       62.865    31744.297    19232.142     3952.059        9.295        2.746      361.854       59.322        0.027      341.610       16.439      858.877
04/23/2014  17:03:00     -287.836     -222.159      -16.891      152.525      120.652       82.546    23263.882    14556.828     6813.789        8.855        2.232      363.599       88.046        0.059      341.623       16.461      858.926
04/23/2014  17:04:00     -274.022     -160.276       -7.265      198.726      121.243       72.839    39492.157    14699.942     5305.565        8.015        2.975      317.453       90.573        0.081      341.763       16.698      858.927
04/23/2014  17:05:00     -297.187     -116.593       -3.442      176.230      158.589       71.781    31057.188    25150.545     5152.511        8.163        3.068      319.239       83.038        0.068      341.772       16.713      858.961
04/23/2014  17:06:00     -221.925     -189.848        6.350      250.132      121.758       81.025    62566.246    14825.078     6565.021        8.463        4.198      292.050       87.018        0.089      341.540       16.320      858.942
04/23/2014  17:07:00     -309.064      -98.902      -12.035      179.079      147.184       86.476    32069.277    21663.258     7478.021        8.332        3.061      324.503       95.992        0.088      341.556       16.347      858.943
04/23/2014  17:08:00     -407.580     -206.577      -15.241      214.631      189.785       91.812    46066.530    36018.491     8429.450       14.975        4.526      456.941      106.881        0.055      341.509       16.268      858.920
04/23/2014  17:09:00     -438.440     -278.363       -0.098      281.708      179.709      105.963    79359.380    32295.214    11228.160       19.627        6.144      519.342      120.938        0.054      341.407       16.094      858.920
04/23/2014  17:10:00     -398.115     -247.966      -17.009      166.938      116.662       84.794    27868.155    13610.023     7189.969       13.446        2.433      469.023       82.800        0.031      341.331       15.966      858.986
04/23/2014  17:11:00     -375.033     -155.056      -21.769      137.777      106.592       65.249    18982.453    11361.875     4257.472        9.988        1.730      405.823       67.516        0.028      341.398       16.079      858.996
04/23/2014  17:12:00     -239.474     -110.744      -15.023      137.270      127.606       59.152    18843.152    16283.351     3498.909        5.422        1.931      263.841       64.408        0.060      341.409       16.098      859.006
04/23/2014  17:13:00     -293.331     -177.244      -16.887      123.792      128.776       68.914    15324.385    16583.180     4749.079        7.719        1.833      342.722       61.906        0.033      341.404       16.089      858.998
04/23/2014  17:14:00     -355.252     -221.870      -16.187      208.881      149.912       76.945    43631.082    22473.574     5920.591       12.384        3.601      418.843       88.832        0.045      341.363       16.020      858.972
04/23/2014  17:15:00     -461.322     -243.493      -17.911      179.015      152.790       86.221    32046.218    23344.833     7434.030       16.761        3.141      521.638       77.997        0.022      341.271       15.862      858.982
04/23/2014  17:16:00     -291.096     -137.671       -4.622      165.825      172.660       72.695    27497.959    29811.470     5284.534        8.314        3.130      322.010       80.009        0.062      341.426       16.127      858.988
04/23/2014  17:17:00     -351.571     -168.681        5.471      192.230       96.376       61.745    36952.201     9288.292     3812.394       10.106        2.503      389.943       72.643        0.035      341.588       16.402      858.983
04/23/2014  17:18:00     -172.861      -61.221        5.246      150.482       97.402       56.862    22644.747     9487.246     3233.342        3.450        1.768      183.381       65.381        0.127      341.452       16.170      858.998
04/23/2014  17:19:00     -180.012       -8.558        2.997      134.146      103.388       47.676    17995.169    10689.120     2273.016        3.172        1.548      180.215       59.731        0.110      341.525       16.295      858.983
04/23/2014  17:20:00     -265.083     -128.827       -2.273      240.130      121.018       72.624    57662.302    14645.271     5274.221        8.221        3.879      294.730       96.098        0.106      341.586       16.398      858.950
04/23/2014  17:21:00     -476.682      -91.907      -34.178      225.496      142.829       69.568    50848.581    20400.001     4839.677       15.645        3.804      485.462       71.284        0.022      341.492       16.239      858.941
04/23/2014  17:22:00     -490.738      -49.775      -28.149      208.255      155.016       78.291    43370.175    24029.933     6129.449       15.880        3.676      493.256       92.740        0.035      341.537       16.315      858.959
04/23/2014  17:23:00     -527.721       26.366      -42.348      211.038      154.065       88.774    44537.049    23736.153     7880.745       17.855        3.808      528.379      102.400        0.038      341.428       16.130      858.939
04/23/2014  17:24:00     -439.911     -120.216      -42.757      171.012       97.602       72.466    29245.217     9526.076     5251.281       12.690        2.201      456.042       54.677        0.014      341.419       16.117      858.960
04/23/2014  17:25:00     -330.996      -53.842        7.811      162.079      118.219       76.290    26269.714    13975.722     5820.201        7.928        2.303      335.347       73.524        0.048      341.590       16.405      858.960
04/23/2014  17:26:00     -310.127     -104.258      -20.737      197.229      103.664       64.509    38899.244    10746.270     4161.348        8.063        2.690      327.182       83.370        0.065      341.610       16.440      858.991
04/23/2014  17:27:00     -257.220     -104.873        5.207      183.613      132.125       77.656    33713.557    17456.978     6030.388        6.718        2.860      277.778       83.991        0.091      341.772       16.713      858.984
04/23/2014  17:28:00     -330.389     -164.147      -25.843      144.937      114.535       65.193    21006.770    13118.379     4250.145        8.756        1.919      368.919       55.682        0.023      341.414       16.106      859.011
04/23/2014  17:29:00     -239.149      -20.245       -4.241      191.318      129.829       66.127    36602.564    16855.522     4372.834        5.771        2.892      240.004       83.413        0.121      341.499       16.252      858.998
04/23/2014  17:30:00     -218.066     -166.871       15.709      209.574      159.998       99.455    43921.399    25599.271     9891.238        7.751        3.971      274.589      117.171        0.182      341.483       16.225      858.999
04/23/2014  17:31:00     -231.820      -89.335       -0.313      141.749      122.356       62.703    20092.794    14970.953     3931.604        5.035        1.950      248.438       68.687        0.076      341.482       16.221      859.009
04/23/2014  17:32:00     -342.893      -75.400      -14.069      164.416      168.966       84.394    27032.642    28549.673     7122.300        9.307        3.135      351.085       90.238        0.066      341.468       16.197      859.001
04/23/2014  17:33:00     -299.624     -225.667      -12.173      207.055      166.714       93.997    42871.613    27793.579     8835.355       11.016        3.975      375.100      112.539        0.090      341.382       16.052      859.010
04/23/2014  17:34:00     -316.226      -78.916       -3.557      180.633      183.125       89.280    32628.332    33534.886     7970.919        9.017        3.707      325.924      103.899        0.102      341.450       16.167      859.031
04/23/2014  17:35:00     -319.896      -52.943      -19.435      144.920      138.945       77.903    21001.880    19305.834     6068.820        7.594        2.319      324.247       74.514        0.053      341.419       16.114      859.059
04/23/2014  17:36:00     -276.827      -39.625       -8.530      157.266      136.347       58.934    24732.519    18590.396     3473.168        6.253        2.340      279.648       61.417        0.048      341.355       16.008      859.049
04/23/2014  17:37:00     -205.288      -63.021        1.743      163.985      113.886       75.027    26890.999    12969.962     5629.092        4.579        2.275      214.744       89.421        0.173      341.676       16.551      859.046
04/23/2014  17:38:00     -299.458      -93.834      -16.289      197.774      104.219       69.778    39114.723    10861.639     4869.006        7.678        2.742      313.815       82.591        0.069      341.568       16.367      859.056
04/23/2014  17:39:00     -234.539     -100.588       -5.848      147.987      144.743       61.524    21900.139    20950.656     3785.244        5.589        2.332      255.198       64.825        0.065      341.477       16.213      859.067
04/23/2014  17:40:00     -163.955      -47.111        3.243      118.187       75.923       63.805    13968.076     5764.340     4071.046        2.645        1.190      170.589       58.153        0.116      341.757       16.689      859.055
04/23/2014  17:41:00     -201.473     -150.640       -4.914      185.775      129.905       70.994    34512.293    16875.434     5040.185        5.986        2.821      251.562       77.481        0.095      341.513       16.274      859.063
04/23/2014  17:42:00     -410.165     -132.398      -11.540      212.066      139.863       75.498    44971.857    19561.794     5699.903       12.805        3.512      431.004       67.058        0.024      341.426       16.127      859.074
04/23/2014  17:43:00     -479.389     -177.970      -30.944      178.523      160.454       78.569    31870.341    25745.428     6173.074       16.310        3.189      511.358       81.863        0.026      341.329       15.963      859.071
04/23/2014  17:44:00     -336.403      -80.860       -9.104      216.785      127.841       72.701    46995.529    16343.257     5285.418        9.419        3.431      345.984       89.700        0.067      341.322       15.953      859.080
04/23/2014  17:45:00     -232.482      -42.541       -3.744      165.011      129.668       70.908    27228.608    16813.700     5027.968        5.246        2.454      236.342       70.953        0.090      341.383       16.054      859.079
04/23/2014  17:46:00     -279.955     -234.393      -10.269      187.310      141.457       86.441    35085.129    20010.161     7472.014        9.798        3.128      365.123       95.217        0.068      341.333       15.970      859.071
04/23/2014  17:47:00     -394.360     -139.849      -22.783      120.825      129.578       74.938    14598.587    16790.374     5615.777       10.629        1.850      418.422       67.426        0.026      341.140       15.643      859.063
04/23/2014  17:48:00     -262.262       17.810      -20.363      136.417      106.896       64.261    18609.670    11426.650     4129.493        5.183        1.708      262.866       70.855        0.073      341.286       15.890      859.078
04/23/2014  17:49:00     -247.027     -113.773        2.792      122.047      120.591       66.576    14895.436    14542.101     4432.326        5.392        1.693      271.968       72.328        0.071      341.374       16.040      859.077
04/23/2014  17:50:00     -338.154     -124.322       -2.601      128.935      133.855       69.288    16624.146    17917.242     4800.841        8.457        1.967      360.284       68.488        0.036      341.331       15.966      859.065
04/23/2014  17:51:00     -468.272      -57.861      -22.431      218.434      158.137       90.368    47713.230    25007.181     8166.348       15.199        4.044      471.833       95.116        0.041      341.217       15.775      859.068
04/23/2014  17:52:00     -398.898      -81.621      -29.786      186.640      130.997       85.966    34834.321    17160.116     7390.161       11.301        2.969      407.163       97.054        0.057      341.295       15.906      859.077
04/23/2014  17:53:00     -332.594      -68.499      -22.687      143.456      111.893       87.035    20579.544    12520.054     7575.121        7.824        2.034      339.575       84.804        0.062      341.288       15.892      859.061
04/23/2014  17:54:00     -268.831      -96.682       -8.100      159.716      129.101       66.612    25509.353    16666.944     4437.158        6.414        2.331      285.688       65.483        0.053      341.348       15.996      859.063
04/23/2014  17:55:00     -324.360      -94.370      -26.352      154.230      130.465       63.262    23787.014    17021.236     4002.133        7.980        2.241      337.809       67.414        0.040      341.473       16.207      859.055
04/23/2014  17:56:00     -271.285     -120.100      -14.497      153.836      169.814       67.637    23665.377    28836.774     4574.801        7.264        2.854      296.681       81.394        0.075      341.437       16.145      859.071
04/23/2014  17:57:00     -248.470      -20.506       -8.884      106.417       90.973       56.646    11324.493     8276.061     3208.781        4.252        1.140      249.314       50.948        0.042      341.665       16.533      859.094
04/23/2014  17:58:00     -523.723     -233.455      -32.607      205.795      171.955       82.771    42351.432    29568.512     6851.073       20.429        3.939      573.399       93.793        0.027      341.178       15.706      859.082
04/23/2014  17:59:00     -356.723     -142.660      -20.457      215.433      171.415       81.140    46411.506    29382.992     6583.774       11.518        4.119      384.191       81.067        0.045      341.253       15.836      859.066
04/23/2014  18:00:00     -355.459      -69.540      -10.417      194.765      119.985       73.944    37933.575    14396.487     5467.654        9.453        2.890      362.197       91.544        0.064      341.380       16.048      859.088
04/23/2014  18:01:00     -240.599      -67.489       -7.226      152.543       97.959       59.792    23269.258     9595.965     3575.108        4.946        1.822      249.886       61.365        0.060      341.457       16.180      859.108
04/23/2014  18:02:00     -192.481     -180.181       27.815      176.167      149.747       78.352    31034.952    22424.184     6139.053        6.493        2.980      263.656       84.518        0.103      341.278       15.877      859.095
04/23/2014  18:03:00     -252.176     -207.512        6.899      204.140      167.984      104.012    41673.054    28218.771    10818.422        9.369        4.036      326.579      120.946        0.137      341.220       15.779      859.057
04/23/2014  18:04:00     -223.724     -107.008       18.852      176.285      155.649       79.954    31076.533    24226.532     6392.659        6.176        3.085      247.998       79.666        0.103      341.357       16.010      859.099
04/23/2014  18:05:00     -290.794      -93.490       -9.575      150.064      119.189       60.129    22519.210    14206.078     3615.489        6.686        2.017      305.453       68.257        0.050      341.104       15.582      859.116
04/23/2014  18:06:00     -191.558     -100.804        0.000      128.912      107.808       64.144    16618.235    11622.491     4114.389        3.960        1.618      216.462       64.718        0.089      341.332       15.968      859.095
04/23/2014  18:07:00     -260.564      -57.088       -4.785      141.657      116.266       62.478    20066.779    13517.891     3903.549        5.432        1.874      266.745       71.732        0.072      341.431       16.136      859.115
04/23/2014  18:08:00     -184.127     -140.096        1.769      160.938      113.146       72.318    25901.164    12801.963     5229.879        4.872        2.197      231.365       74.905        0.105      341.439       16.151      859.111
04/23/2014  18:09:00     -240.046      -74.701       -8.838      133.274       96.223       68.546    17761.937     9258.786     4698.509        4.749        1.586      251.400       69.383        0.076      341.293       15.902      859.119
04/23/2014  18:10:00      -49.971      -95.353       28.043      122.627      102.540       60.001    15037.389    10514.527     3600.107        2.076        1.458      107.653       68.486        0.405      341.375       16.042      859.120
04/23/2014  18:11:00     -243.805     -206.608       -7.656      149.499      108.759       75.990    22350.079    11828.569     5774.477        7.106        1.998      319.574       67.905        0.045      341.257       15.843      859.114
04/23/2014  18:12:00     -319.070     -114.617       15.486      198.216      136.807       75.031    39289.390    18716.175     5629.617        8.940        3.182      339.032       98.731        0.085      341.189       15.725      859.134
04/23/2014  18:13:00     -281.379      -91.279       -4.640      156.219      132.885       84.975    24404.319    17658.481     7220.752        6.840        2.464      295.814       84.992        0.083      341.217       15.773      859.103
04/23/2014  18:14:00     -377.596      -71.838      -23.604      163.680      122.632       67.133    26791.006    15038.593     4506.833        9.731        2.317      384.369       64.104        0.028      341.189       15.726      859.121
04/23/2014  18:15:00     -269.873     -158.406        2.108      165.277      141.376       75.096    27316.552    19987.039     5639.472        7.543        2.647      312.928       89.117        0.081      341.154       15.668      859.106
04/23/2014  18:16:00     -355.954     -228.036      -18.532      183.932      132.333       94.788    33830.932    17512.132     8984.826       11.968        3.016      422.733      105.787        0.063      341.114       15.600      859.106
04/23/2014  18:17:00     -370.510     -256.353       -6.119      210.973      139.187       81.308    44509.603    19373.022     6610.987       13.675        3.525      450.549       92.325        0.042      341.045       15.482      859.102
04/23/2014  18:18:00     -362.648     -292.226        0.856      224.823      184.656      101.273    50545.224    34098.006    10256.269       15.589        4.745      465.736      101.822        0.048      340.948       15.318      859.084
04/23/2014  18:19:00     -402.096     -273.724       -3.743      207.821      140.967       92.861    43189.582    19871.708     8623.130       15.414        3.584      486.422       90.558        0.035      340.963       15.343      859.082
04/23/2014  18:20:00     -391.277     -179.481      -19.203      207.774      179.423      103.658    43170.241    32192.605    10744.906       13.588        4.305      430.478       95.531        0.049      341.003       15.411      859.105
04/23/2014  18:21:00     -421.284     -162.830      -19.323      215.064      134.395       73.333    46252.472    18062.004     5377.774       13.702        3.485      451.656       57.859        0.016      340.921       15.272      859.146
04/23/2014  18:22:00     -414.426     -143.412      -18.188      144.648      119.491       72.978    20922.948    14278.152     5325.775       11.658        2.026      438.538       64.540        0.022      340.969       15.353      859.134
04/23/2014  18:23:00     -338.649     -195.260        2.930      153.233      169.545       81.630    23480.454    28745.586     6663.521       10.584        2.944      390.908       78.697        0.041      341.055       15.498      859.172
04/23/2014  18:24:00     -507.916     -220.396       -4.193      210.647      195.125       91.798    44372.333    38073.603     8426.870       19.870        4.544      553.672       85.658        0.024      340.839       15.136      859.178
04/23/2014  18:25:00     -373.879     -120.048      -26.619      201.357      168.157      104.935    40544.445    28276.788    11011.392       11.735        3.992      392.679      119.390        0.092      340.966       15.348      859.199
04/23/2014  18:26:00     -458.117      -64.308       -3.402      278.482      181.199       90.538    77552.368    32833.100     8197.046       16.628        5.929      462.609      122.187        0.070      340.899       15.235      859.228
04/23/2014  18:27:00     -242.014     -113.876       -3.260      127.745      113.646       61.221    16318.814    12915.442     3747.980        5.226        1.649      267.467       54.524        0.042      341.060       15.508      859.230
04/23/2014  18:28:00     -304.312     -229.751        3.369      228.644      160.141       78.952    52278.084    25645.071     6233.464       11.476        4.208      381.302       84.504        0.049      340.986       15.382      859.209
04/23/2014  18:29:00     -350.698     -153.968        0.574      204.164      124.575       87.443    41682.805    15518.929     7646.219       10.576        3.242      383.008       98.813        0.067      340.946       15.315      859.207
04/23/2014  18:30:00     -346.001     -216.421      -25.469      132.015      121.081       70.612    17427.933    14660.588     4986.095       10.213        1.854      408.111       72.546        0.032      340.963       15.344      859.190
04/23/2014  18:31:00     -448.650      -93.985      -20.063      146.295      181.587       72.723    21402.193    32974.018     5288.563       13.508        2.983      458.389       68.403        0.022      340.894       15.227      859.170
04/23/2014  18:32:00     -357.993     -186.576       12.367      262.125      180.624      103.269    68709.674    32625.073    10664.567       13.754        5.600      403.695      125.451        0.097      340.882       15.207      859.158
04/23/2014  18:33:00     -374.479     -235.234        1.807      200.080      139.451       84.213    40031.953    19446.596     7091.772       13.106        3.329      442.232       93.310        0.045      340.934       15.294      859.143
04/23/2014  18:34:00     -419.246     -283.490        1.911      225.484      160.319       99.209    50843.209    25702.207     9842.441       17.125        4.319      506.096      116.238        0.053      340.856       15.162      859.127
04/23/2014  18:35:00     -358.258     -232.962        0.058      221.790      174.084       88.719    49190.620    30305.090     7870.997       13.498        4.368      427.341      103.712        0.059      340.865       15.178      859.146
04/23/2014  18:36:00     -288.111      -99.887        0.092      183.694      189.073       70.214    33743.343    35748.635     4930.071        8.369        3.721      304.935       75.106        0.061      340.964       15.346      859.160
04/23/2014  18:37:00     -505.286     -164.544       -6.742      293.162      171.852       86.357    85943.972    29533.083     7457.493       20.266        6.147      531.403      107.662        0.041      340.893       15.224      859.182
04/23/2014  18:38:00     -449.250     -266.181      -26.765      204.325      154.776       93.391    41748.887    23955.561     8721.827       17.390        3.721      522.186      100.278        0.037      340.754       14.989      859.189
04/23/2014  18:39:00     -409.150     -158.543      -11.682      187.908      142.856       86.735    35309.387    20407.912     7522.937       12.795        3.162      438.793       90.407        0.042      340.819       15.100      859.195
04/23/2014  18:40:00     -218.377      -78.133       17.726      186.937      133.542       77.220    34945.406    17833.349     5962.866        5.641        2.937      231.934       95.230        0.169      340.850       15.153      859.205
04/23/2014  18:41:00     -333.750     -207.179      -16.822      197.769      111.681       78.863    39112.607    12472.697     6219.447       10.619        2.890      392.825       94.470        0.058      340.809       15.083      859.200
04/23/2014  18:42:00     -323.153     -168.017       -2.583      211.814      145.549       90.329    44865.323    21184.581     8159.396       10.342        3.710      364.222       90.304        0.061      340.752       14.986      859.178
04/23/2014  18:43:00     -326.280     -222.801      -11.817      175.241      162.744       95.297    30709.334    26485.751     9081.501       11.124        3.314      395.093       98.286        0.062      340.739       14.964      859.184
04/23/2014  18:44:00     -236.332     -134.817        8.981      225.099      165.698       82.314    50669.724    27455.825     6775.604        7.949        4.245      272.081       93.229        0.117      340.777       15.029      859.187
04/23/2014  18:45:00     -333.778     -180.743        6.660      215.503      154.662       90.804    46441.549    23920.212     8245.441       11.135        3.930      379.573      103.438        0.074      340.809       15.083      859.184
04/23/2014  18:46:00     -501.701     -224.367       -9.552      172.806      164.756       80.330    29861.959    27144.678     6452.940       18.278        3.173      549.585       88.219        0.026      340.676       14.858      859.184
04/23/2014  18:47:00     -339.107     -229.561      -18.453      230.818      133.183       84.975    53276.965    17737.581     7220.800       12.312        3.912      409.502       96.922        0.056      340.731       14.951      859.178
04/23/2014  18:48:00     -329.760     -178.452       -2.959      262.893      165.149       98.729    69112.958    27274.346     9747.370       12.334        5.307      374.949      115.147        0.094      340.739       14.964      859.176
04/23/2014  18:49:00     -330.098     -270.062        4.214      227.467      178.398      100.047    51741.355    31825.818    10009.461       13.773        4.679      426.495      122.310        0.082      340.688       14.877      859.164
04/23/2014  18:50:00     -199.458     -134.146        8.414      187.857      139.320       70.054    35290.184    19410.139     4907.554        5.872        2.980      240.372       86.161        0.128      340.774       15.024      859.198
04/23/2014  18:51:00     -267.500     -202.253        5.466      214.885      191.397      104.762    46175.764    36632.749    10975.058       10.312        4.689      335.354      119.105        0.126      340.706       14.909      859.173
04/23/2014  18:52:00     -255.081      -56.488       10.803      200.630      132.937       85.847    40252.339    17672.367     7369.692        6.682        3.265      261.261       94.273        0.130      340.725       14.941      859.195
04/23/2014  18:53:00     -458.031     -267.417       -9.649      210.627      202.884       92.440    44363.542    41161.970     8545.207       18.772        4.704      530.381      103.459        0.038      340.679       14.863      859.194
04/23/2014  18:54:00     -498.995     -291.063      -26.806      221.231      143.801       93.373    48943.234    20678.683     8718.594       20.637        3.917      577.680       95.048        0.027      340.596       14.721      859.211
04/23/2014  18:55:00     -281.767     -103.314       -0.217      151.367      130.765       81.929    22911.958    17099.370     6712.294        6.839        2.336      300.111       81.355        0.073      340.648       14.810      859.244
04/23/2014  18:56:00      -90.361      -53.315        7.918      130.919       94.700       71.299    17139.820     8968.008     5083.613        2.112        1.560      104.917       69.645        0.441      340.777       15.032      859.251
04/23/2014  18:57:00     -215.482      -23.479        7.998      161.034      128.733       61.937    25932.071    16572.223     3836.158        4.668        2.317      216.757       72.803        0.113      340.742       14.971      859.261
04/23/2014  18:58:00     -133.783      -56.839        0.877      101.732       91.102       47.991    10349.499     8299.530     2303.134        2.104        1.048      145.356       52.727        0.132      340.788       15.050      859.242
04/23/2014  18:59:00     -238.313     -109.882       -8.703      195.034      157.771       68.620    38038.173    24891.815     4708.692        6.828        3.382      262.425       84.384        0.103      340.678       14.862      859.248
04/23/2014  19:00:00     -297.761     -170.360       -2.101      171.627      172.413       87.151    29455.959    29726.412     7595.370        9.222        3.339      343.051       97.676        0.081      340.658       14.827      859.244
04/23/2014  19:01:00     -341.782     -199.998      -11.501      178.420      177.312       92.246    31833.650    31439.681     8509.379       11.435        3.589      395.997       88.698        0.050      340.551       14.646      859.272
04/23/2014  19:02:00     -477.327     -106.680      -30.821      216.409      171.484       83.569    46833.052    29406.824     6983.829       16.168        4.161      489.103      100.916        0.043      340.529       14.609      859.307
04/23/2014  19:03:00     -211.420      -64.302        9.041      182.181      157.937       70.963    33189.852    24944.120     5035.817        5.603        3.158      220.982       80.118        0.131      340.584       14.704      859.326
04/23/2014  19:04:00     -242.830     -169.797       16.847      206.049      204.569       99.024    42456.393    41848.362     9805.774        9.108        4.706      296.307      116.628        0.155      340.502       14.565      859.300
04/23/2014  19:05:00     -274.850      -77.764        9.526      185.207      172.178       87.283    34301.489    29645.262     7618.279        7.661        3.578      285.639       92.967        0.106      340.524       14.601      859.300
04/23/2014  19:06:00     -251.746     -171.076        4.806      180.581      152.887       82.897    32609.371    23374.485     6871.959        7.775        3.143      304.374       83.125        0.075      340.543       14.634      859.312
04/23/2014  19:07:00     -233.148     -153.661       -1.713      165.748      156.474       86.047    27472.525    24484.147     7404.146        6.866        2.968      279.231       78.017        0.078      340.538       14.625      859.312
04/23/2014  19:08:00     -256.940     -110.468        9.602      170.265      153.108       85.935    28990.172    23442.008     7384.851        6.905        2.991      279.681       84.905        0.092      340.533       14.614      859.344
04/23/2014  19:09:00     -502.483     -258.710      -21.268      224.463      183.059       94.339    50383.680    33510.436     8899.806       20.631        4.640      565.173      103.865        0.034      340.415       14.418      859.355
04/23/2014  19:10:00     -331.712     -159.842      -14.832      195.373      130.765       85.980    38170.798    17099.594     7392.550        9.922        3.133      368.215       84.351        0.052      340.416       14.418      859.388
04/23/2014  19:11:00     -395.990      -75.197      -16.493      190.487      133.361       73.495    36285.430    17785.234     5401.445       11.109        2.974      403.066       64.327        0.025      340.443       14.462      859.409
04/23/2014  19:12:00     -228.953     -154.150      -14.100      169.198      170.236       82.626    28627.972    28980.330     6827.123        7.040        3.222      276.011       86.613        0.098      340.395       14.383      859.404
04/23/2014  19:13:00     -294.574     -164.944      -18.404      173.163      146.638       82.757    29985.531    21502.764     6848.701        8.632        2.917      337.609       85.492        0.064      340.398       14.387      859.422
04/23/2014  19:14:00     -446.286     -210.084       -8.098      243.539      148.202       77.682    59311.419    21963.807     6034.521       16.532        4.365      493.261       94.498        0.037      340.317       14.250      859.403
04/23/2014  19:15:00     -255.956     -117.479       -8.432      133.729      127.095       67.278    17883.496    16153.013     4526.370        5.897        1.928      281.629       74.736        0.070      340.390       14.375      859.412
04/23/2014  19:16:00     -327.680     -232.303        1.912      249.724      186.911      110.017    62362.105    34935.765    12103.718       13.535        5.470      401.670      126.230        0.099      340.342       14.294      859.408
04/23/2014  19:17:00     -340.222     -226.764       10.614      228.755      186.090      108.910    52329.007    34629.604    11861.414       13.303        4.941      408.868      121.697        0.089      340.302       14.225      859.388
04/23/2014  19:18:00     -410.438     -280.300      -27.441      264.575      201.162      112.791    69999.900    40466.038    12721.865       18.546        6.159      497.019      108.944        0.048      340.254       14.144      859.423
04/23/2014  19:19:00     -493.705     -104.281      -22.049      201.224      225.010       91.423    40490.959    50629.713     8358.155       17.727        4.974      504.598       80.790        0.026      340.234       14.110      859.444
04/23/2014  19:20:00     -356.587      -52.942      -10.045      233.424      194.967      100.034    54486.776    38012.119    10006.813       11.626        5.125      360.495       95.467        0.070      340.239       14.118      859.463
04/23/2014  19:21:00     -460.270     -187.034      -15.426      232.015      182.821       83.103    53830.743    33423.632     6906.101       17.060        4.708      496.820       67.698        0.019      340.166       13.996      859.454
04/23/2014  19:22:00     -390.807     -160.467      -17.444      244.141      198.842       96.979    59604.952    39537.989     9404.932       14.364        5.427      422.468      112.104        0.070      340.136       13.946      859.441
04/23/2014  19:23:00     -425.410     -151.007       -8.579      261.493      214.404      112.142    68378.477    45968.931    12575.729       16.536        6.346      451.417      128.596        0.081      340.136       13.944      859.438
04/23/2014  19:24:00     -320.340     -120.127       -5.521      213.738      121.191       82.371    45683.787    14687.195     6785.020        9.210        3.358      342.123       94.942        0.077      340.145       13.961      859.433
04/23/2014  19:25:00     -320.902     -113.486       -9.822      123.282      152.150       74.551    15198.509    23149.668     5557.890        7.992        2.195      340.378       57.677        0.029      340.155       13.977      859.441
04/23/2014  19:26:00     -367.278     -137.192      -12.309      210.468      151.342       91.823    44296.802    22904.292     8431.423       11.473        3.782      392.065       87.878        0.050      340.122       13.923      859.417
04/23/2014  19:27:00     -552.494     -156.060      -32.985      247.083      183.893       88.999    61049.840    33816.459     7920.858       21.672        5.139      574.112       89.211        0.024      340.020       13.748      859.416
04/23/2014  19:28:00     -433.102      -37.314       15.137      250.284      176.208      105.761    62642.234    31049.185    11185.384       14.702        5.244      434.706      111.001        0.065      340.020       13.748      859.407
04/23/2014  19:29:00     -398.339     -144.925      -12.576      195.893      197.761       96.017    38373.996    39109.409     9219.221       13.325        4.335      423.883       80.852        0.036      340.022       13.752      859.414
04/23/2014  19:30:00     -403.430      -43.263      -24.117      258.607      151.451       93.369    66877.706    22937.455     8717.720       13.185        4.927      405.744      109.655        0.073      340.041       13.784      859.418
04/23/2014  19:31:00     -524.573      -22.056      -27.114      217.821      153.937       89.130    47445.905    23696.654     7944.205       17.773        3.954      525.036       95.821        0.033      339.994       13.705      859.439
04/23/2014  19:32:00     -412.508      -18.503       -8.322      200.982      202.625       93.045    40393.900    41056.945     8657.396       13.032        4.505      412.923      102.305        0.061      339.967       13.660      859.447
04/23/2014  19:33:00     -294.334     -139.856      -10.376      201.709      132.600       81.151    40686.493    17582.870     6585.550        8.556        3.243      325.871      105.408        0.105      339.985       13.690      859.473
04/23/2014  19:34:00     -375.972      -79.711      -15.226      203.362      176.672       83.579    41356.274    31213.056     6985.510       11.373        3.978      384.329       91.265        0.056      339.970       13.665      859.483
04/23/2014  19:35:00     -402.230      -99.999       -1.715      229.761      173.243      102.714    52790.257    30013.063    10550.163       13.255        4.668      414.474      111.616        0.073      339.922       13.585      859.488
04/23/2014  19:36:00     -405.126      -45.270      -27.939      161.739      146.278       84.647    26159.633    21397.185     7165.199       11.083        2.736      407.647       81.553        0.040      339.931       13.601      859.485
04/23/2014  19:37:00     -380.204     -158.609       -6.453      258.187      255.341      112.491    66660.422    65199.206    12654.244       15.710        7.226      411.961      132.743        0.104      339.931       13.598      859.456
04/23/2014  19:38:00     -523.675     -124.490      -15.194      290.649      179.070      108.644    84476.905    32066.090    11803.577       20.913        6.417      538.269      154.654        0.083      339.871       13.499      859.476
04/23/2014  19:39:00     -361.014      -91.432      -30.597      167.476      168.472       87.708    28048.190    28382.828     7692.726       10.186        3.206      372.412       75.666        0.041      339.909       13.563      859.499
04/23/2014  19:40:00     -510.250     -157.936      -20.993      303.428      176.692      117.415    92068.828    31219.936    13786.337       21.138        6.854      534.133      134.336        0.063      339.833       13.433      859.509
04/23/2014  19:41:00     -247.917      -82.918       -2.590      192.849      163.964       98.830    37190.795    26884.080     9767.389        7.108        3.692      261.416      102.186        0.153      339.879       13.511      859.533
04/23/2014  19:42:00     -191.213      -38.145      -11.084      139.308      111.148       73.701    19406.621    12353.822     5431.779        3.766        1.860      194.981       57.347        0.087      339.908       13.559      859.557
04/23/2014  19:43:00     -256.752     -129.351       -5.183      210.038      165.684       92.557    44115.773    27451.201     8566.833        8.139        4.007      287.495      103.583        0.130      339.871       13.498      859.549
04/23/2014  19:44:00     -582.323      -70.658      -43.176      223.987      206.546       85.125    50170.293    42661.176     7246.312       22.300        5.004      586.594       89.300        0.023      339.818       13.409      859.543
04/23/2014  19:45:00     -370.527      -61.291      -10.322      252.974      149.791      103.672    63996.078    22437.322    10747.785       11.915        4.859      375.562      119.996        0.102      339.831       13.431      859.551
04/23/2014  19:46:00     -514.537      -91.135       -8.906      255.163      155.340       95.806    65107.958    24130.406     9178.730       18.576        4.921      522.546      114.100        0.048      339.753       13.299      859.570
04/23/2014  19:47:00     -486.053     -128.494       -7.418      221.769      220.132      119.946    49181.463    48458.036    14387.067       18.240        5.601      502.751      118.746        0.056      339.723       13.249      859.590
04/23/2014  19:48:00     -524.685     -109.087      -23.747      196.098      147.948      101.290    38454.620    21888.616    10259.638       17.917        3.530      535.905      110.477        0.042      339.724       13.252      859.602
04/23/2014  19:49:00     -448.516     -126.063      -20.722      292.654      208.496       98.875    85646.251    43470.423     9776.352       17.816        6.945      465.896      116.698        0.063      339.709       13.224      859.619
04/23/2014  19:50:00     -230.561     -110.973       -0.652      220.284      186.891      108.353    48525.004    34928.130    11740.362        8.031        4.760      255.878      115.490        0.204      339.734       13.269      859.615
04/23/2014  19:51:00     -505.110     -173.393      -32.274      232.731      223.594      101.268    54163.688    49994.419    10255.219       20.031        5.721      534.042      102.106        0.037      339.681       13.179      859.655
04/23/2014  19:52:00     -430.229     -221.451      -18.105      288.646      167.401      110.404    83316.300    28023.129    12189.106       17.897        6.176      483.877      138.484        0.082      339.660       13.142      859.670
04/23/2014  19:53:00     -190.155      -42.804       -1.228      185.929      114.795       83.214    34569.494    13177.942     6924.528        4.632        2.734      194.913       88.577        0.207      339.760       13.313      859.677
04/23/2014  19:54:00     -469.846     -124.271      -28.791      254.785      190.736      108.822    64915.481    36380.143    11842.264       17.506        5.657      486.002      112.781        0.054      339.634       13.098      859.634
04/23/2014  19:55:00     -618.172     -100.593      -41.386      273.898      218.921      115.932    75019.904    47926.266    13440.291       26.515        6.819      626.303      127.639        0.042      339.590       13.025      859.630
04/23/2014  19:56:00     -604.982      -86.287      -26.762      234.120      167.990      102.030    54812.204    28220.516    10410.164       23.379        4.672      611.105      109.505        0.032      339.580       13.009      859.665
04/23/2014  19:57:00     -441.972     -178.571      -33.892      196.362      174.805       95.609    38557.950    30556.708     9141.050       15.330        3.913      476.684      102.860        0.047      339.578       13.006      859.686
04/23/2014  19:58:00     -339.559      -20.942       -1.253      186.195      150.858       88.689    34668.677    22758.225     7865.723        9.050        3.265      340.204       87.796        0.067      339.606       13.053      859.716
04/23/2014  19:59:00     -460.398     -128.112      -11.667      265.050      174.708       99.918    70251.454    30523.025     9983.660       16.962        5.538      477.891      115.889        0.059      339.542       12.943      859.708
04/23/2014  20:00:00     -402.360      -22.680      -18.224      219.889      151.669       87.493    48351.306    23003.357     7655.015       12.086        3.950      402.999       99.838        0.061      339.546       12.950      859.721
04/23/2014  20:01:00     -338.254      -10.180        3.481      198.444      180.243       91.042    39379.884    32487.593     8288.593        9.733        4.008      338.407       91.489        0.073      339.539       12.939      859.739
04/23/2014  20:02:00     -161.887      -70.123       17.635      215.577      141.389       97.996    46473.340    19990.709     9603.308        5.374        3.803      176.421      117.759        0.446      339.547       12.953      859.720
04/23/2014  20:03:00     -459.233     -149.865       -1.783      330.395      203.961      118.842   109160.538    41600.180    14123.335       19.909        8.244      483.068      158.333        0.107      339.503       12.878      859.733
04/23/2014  20:04:00     -278.359      -65.715       -4.151      246.762      165.470       88.569    60891.345    27380.169     7844.537        8.895        4.806      286.011      114.003        0.159      339.501       12.874      859.787
04/23/2014  20:05:00     -351.666      -47.661       -2.478      164.532      134.786       75.735    27070.896    18167.244     5735.811        8.845        2.549      354.881       75.958        0.046      339.475       12.828      859.793
04/23/2014  20:06:00     -419.484      -30.206      -19.060      274.109      153.481       93.211    75135.748    23556.392     8688.328       14.229        5.369      420.570      115.880        0.076      339.479       12.836      859.799
04/23/2014  20:07:00     -438.499      -93.091       -4.506      267.727      175.619      107.186    71677.854    30841.994    11488.905       15.747        5.700      448.271      100.987        0.051      339.403       12.710      859.744
04/23/2014  20:08:00     -523.334     -119.491      -10.085      249.788      244.389      105.939    62393.991    59725.993    11223.089       21.077        6.667      536.803      109.285        0.041      339.411       12.721      859.797
04/23/2014  20:09:00     -371.954     -111.555       -9.114      278.272      176.628       98.775    77435.066    31197.392     9756.425       13.461        5.919      388.322      123.785        0.102      339.419       12.736      859.815
04/23/2014  20:10:00     -505.752      -67.298      -48.640      210.096      175.721       82.058    44140.371    30877.835     6733.470       17.220        4.088      510.210       79.126        0.024      339.388       12.683      859.860
04/23/2014  20:11:00     -388.273      -51.193      -15.450      215.185      118.548       78.913    46304.487    14053.550     6227.238       11.009        3.329      391.633      105.454        0.073      339.387       12.683      859.858
04/23/2014  20:12:00     -382.652      -44.663       -8.823      272.946      168.555       91.667    74499.732    28410.790     8402.761       12.988        5.566      385.249      130.503        0.115      339.352       12.624      859.857
04/23/2014  20:13:00     -387.877     -138.475      -12.604      177.829      179.655       91.183    31622.990    32276.009     8314.404       12.098        3.611      411.854       87.936        0.046      339.369       12.651      859.862
04/23/2014  20:14:00     -520.438      -50.449      -21.191      286.832      215.360      113.983    82272.334    46379.944    12992.162       20.772        7.082      522.877      116.513        0.050      339.333       12.591      859.877
04/23/2014  20:15:00     -446.479     -157.751       -5.334      235.466      158.935       99.911    55444.076    25260.331     9982.223       15.745        4.534      473.528      116.903        0.061      339.338       12.599      859.928
04/23/2014  20:16:00     -356.516      -57.753      -24.382      192.130      162.610       97.679    36913.833    26441.999     9541.159       10.195        3.645      361.164       95.513        0.070      339.336       12.595      859.948
04/23/2014  20:17:00     -358.478      -35.634      -23.175      228.619      170.359       85.093    52266.746    29022.058     7240.875       10.940        4.426      360.244       84.834        0.055      339.306       12.547      859.943
04/23/2014  20:18:00     -457.928     -140.873      -21.428      167.333      161.424       86.734    28000.354    26057.598     7522.848       14.578        3.079      479.107       81.143        0.029      339.279       12.498      859.971
04/23/2014  20:19:00     -472.100      -33.468      -12.603      213.685      157.979       93.465    45661.128    24957.455     8735.622       15.174        3.968      473.285       99.244        0.044      339.261       12.470      859.982
04/23/2014  20:20:00     -368.546      -75.930      -12.450      149.339      123.183       77.069    22302.276    15174.173     5939.565        9.257        2.171      376.286       80.467        0.046      339.239       12.434      859.954
04/23/2014  20:21:00     -159.495        1.570       12.065      188.397      109.723       76.745    35493.466    12039.131     5889.807        3.949        2.671      159.503       88.719        0.309      339.262       12.473      859.981
04/23/2014  20:22:00     -332.912      -50.837       -0.041      185.673      143.990       82.604    34474.426    20732.982     6823.368        8.771        3.102      336.771       82.955        0.061      339.240       12.434      860.007
04/23/2014  20:23:00     -324.577      -43.913        7.947      209.960      175.946       96.936    44083.209    30957.131     9396.594        9.587        4.222      327.534       94.013        0.082      339.255       12.461      860.037
04/23/2014  20:24:00     -273.474      -30.624       -2.221      181.082      102.896       69.682    32790.706    10587.502     4855.535        6.197        2.412      275.183       77.789        0.080      339.249       12.451      860.051
04/23/2014  20:25:00     -501.423     -128.628      -22.994      256.924      222.377       97.809    66010.021    49451.675     9566.612       19.674        6.251      517.659      108.421        0.044      339.146       12.276      860.023
04/23/2014  20:26:00     -492.522     -115.825       -5.273      225.572      179.977       89.119    50882.778    32391.725     7942.266       17.360        4.561      505.957      100.704        0.040      339.135       12.258      860.056
04/23/2014  20:27:00     -360.047      -76.149        5.689      195.957      150.593       75.407    38399.104    22678.119     5686.188       10.110        3.338      368.011       85.518        0.054      339.165       12.309      860.091
04/23/2014  20:28:00     -481.451     -151.218      -33.390      147.911      140.567       76.419    21877.562    19759.162     5839.884       15.162        2.374      504.641       64.448        0.016      339.116       12.225      860.107
04/23/2014  20:29:00     -534.663      -72.080      -28.333      192.992      161.855       76.635    37245.865    26197.137     5872.949       18.058        3.466      539.499       85.494        0.025      339.100       12.200      860.110
04/23/2014  20:30:00     -410.370      -47.578      -20.769      204.140      190.907      100.390    41673.212    36445.420    10078.189       12.963        4.410      413.119      105.634        0.065      339.108       12.213      860.076
04/23/2014  20:31:00     -612.907     -127.189      -30.375      195.008      141.130       87.574    38028.021    19917.555     7669.291       22.917        3.281      625.965       90.832        0.021      339.066       12.143      860.096
04/23/2014  20:32:00     -296.786        7.588        7.713      236.263      130.274       91.786    55820.177    16971.414     8424.579        8.469        4.061      296.883      116.083        0.153      339.124       12.240      860.126
04/23/2014  20:33:00     -366.599       11.484       -4.692      205.557      157.392       88.832    42253.529    24772.268     7891.122       10.472        3.746      366.779       84.349        0.053      339.120       12.233      860.099
04/23/2014  20:34:00     -451.076      -94.401      -11.651      186.348      151.168       76.554    34725.564    22851.720     5860.483       13.796        3.172      460.848       72.957        0.025      339.068       12.146      860.084
04/23/2014  20:35:00     -407.319      -20.254      -17.978      148.739      141.865       72.957    22123.332    20125.548     5322.652       10.710        2.379      407.823       78.990        0.038      339.054       12.121      860.107
04/23/2014  20:36:00     -400.468        2.519      -30.084      179.037      180.704       77.737    32054.220    32654.093     6043.057       11.600        3.538      400.476       65.709        0.027      339.050       12.115      860.086
04/23/2014  20:37:00     -505.314      -80.803      -38.740      221.358      140.743       87.361    48999.446    19808.593     7631.887       16.989        3.822      511.734       99.613        0.038      339.012       12.051      860.121
04/23/2014  20:38:00     -480.857      -46.721      -29.527      228.250      177.847       88.992    52097.927    31629.471     7919.502       16.294        4.582      483.122      101.734        0.044      339.001       12.034      860.135
04/23/2014  20:39:00     -473.936     -140.745      -10.992      178.634      144.361       69.471    31910.283    20840.001     4826.260       15.105        2.879      494.393       59.535        0.015      338.983       12.002      860.099
04/23/2014  20:40:00     -551.422      -73.644      -11.915      277.424      232.066      113.181    76964.106    53854.532    12809.835       22.660        7.181      556.318      134.158        0.058      338.995       12.023      860.076
04/23/2014  20:41:00     -662.557     -181.361      -35.209      218.762      199.336       96.641    47856.992    39734.951     9339.396       28.500        4.847      686.931       96.827        0.020      338.977       11.993      860.105
04/23/2014  20:42:00     -462.156      -79.629      -21.033      215.699      161.283       87.973    46526.053    26012.151     7739.282       15.031        4.014      468.966       98.464        0.044      338.979       11.996      860.117
04/23/2014  20:43:00     -670.732     -171.262      -32.929      247.946      189.131       85.451    61477.379    35770.437     7301.885       29.240        5.227      692.252      105.284        0.023      338.952       11.951      860.111
04/23/2014  20:44:00     -496.982      -76.228      -12.412      218.895      168.847       97.259    47914.935    28509.209     9459.293       16.940        4.294      502.794      106.919        0.045      338.966       11.974      860.110
04/23/2014  20:45:00     -632.434     -138.627      -26.769      295.569      189.805       95.323    87361.074    36025.953     9086.462       27.616        6.624      647.449      111.111        0.029      338.931       11.914      860.114
04/23/2014  20:46:00     -482.556      -57.495      -23.295      273.580      162.362       97.422    74845.992    26361.415     9491.130       17.368        5.535      485.969      131.996        0.074      338.956       11.956      860.122
04/23/2014  20:47:00     -495.006     -117.757      -19.295      271.167      167.352       96.229    73531.690    28006.680     9260.009       18.501        5.540      508.820      107.435        0.045      338.928       11.910      860.125
04/23/2014  20:48:00     -373.505        7.774        1.826      301.638      165.729      105.324    90985.585    27466.140    11093.042       13.453        6.477      373.586      127.029        0.116      338.968       11.978      860.127
04/23/2014  20:49:00     -591.643      -89.237      -44.424      277.512      186.846       96.532    77013.051    34911.332     9318.432       24.059        6.062      598.335      106.541        0.032      338.899       11.860      860.152
04/23/2014  20:50:00     -382.703      -76.066      -13.468      177.238      171.438       82.938    31413.159    29390.897     6878.747       11.004        3.384      390.189       89.034        0.052      338.914       11.886      860.163
04/23/2014  20:51:00     -457.908     -101.729      -25.175      171.201      187.444       87.588    29309.642    35135.255     7671.610       14.637        3.606      469.072       89.730        0.037      338.885       11.836      860.160
04/23/2014  20:52:00     -503.292     -190.253       -8.169      241.487      170.364       82.042    58315.894    29023.934     6730.924       19.180        4.704      538.052       89.257        0.028      338.841       11.764      860.157
04/23/2014  20:53:00     -586.466       -0.153      -44.970      325.144      168.916      100.379   105718.839    28532.716    10075.919       24.512        7.216      586.466      136.364        0.054      338.866       11.805      860.159
04/23/2014  20:54:00     -535.142      -65.679      -42.158      216.181      174.306       86.989    46734.315    30382.565     7567.137       18.856        4.234      539.158      102.035        0.036      338.885       11.838      860.150
04/23/2014  20:55:00     -496.373      -85.197      -25.752      207.985      191.899       86.849    43257.606    36825.284     7542.822       17.095        4.381      503.631       96.952        0.037      338.847       11.774      860.180
04/23/2014  20:56:00     -535.488     -174.703      -23.391      267.821      174.166       92.830    71728.035    30333.833     8617.454       21.423        5.534      563.266      105.126        0.035      338.835       11.752      860.195
04/23/2014  20:57:00     -654.750     -144.373      -44.197      291.074      226.867      120.500    84724.350    51468.432    14520.177       30.107        7.536      670.478      138.939        0.043      338.830       11.745      860.168
04/23/2014  20:58:00     -716.922     -110.186      -51.964      229.106      204.001       95.782    52489.705    41616.312     9174.157       31.603        5.164      725.340      107.426        0.022      338.841       11.763      860.188
04/23/2014  20:59:00     -710.233      -25.144      -58.134      246.709      206.320       91.674    60865.382    42567.962     8404.145       31.012        5.592      710.677      101.685        0.020      338.837       11.757      860.194
04/23/2014  21:00:00     -482.336     -137.740      -17.579      180.313      146.578       75.580    32512.749    21485.123     5712.333       15.581        2.986      501.618       72.444        0.021      338.839       11.760      860.221
04/23/2014  21:01:00     -516.446      -87.402      -36.120      246.204      181.503       79.827    60616.179    32943.306     6372.304       18.778        4.997      523.789       96.531        0.034      338.824       11.735      860.238
04/23/2014  21:02:00     -539.806     -197.387      -19.557      215.164      174.663       91.862    46295.520    30507.062     8438.591       20.797        4.262      574.763      100.265        0.030      338.797       11.690      860.233
04/23/2014  21:03:00     -599.436     -126.745      -28.584      262.533      236.927      106.403    68923.583    56134.495    11321.609       25.627        6.819      612.689      116.115        0.036      338.791       11.680      860.229
04/23/2014  21:04:00     -437.320      -20.769      -31.899      266.238      174.646       99.323    70882.596    30501.075     9865.132       15.195        5.562      437.813      129.218        0.087      338.790       11.678      860.232
04/23/2014  21:05:00     -652.146     -122.375      -35.226      277.818      189.761      118.019    77182.669    36009.096    13928.485       28.429        6.356      663.528      130.800        0.039      338.785       11.670      860.219
04/23/2014  21:06:00     -553.455     -159.352       -4.224      240.095      166.547       93.637    57645.546    27737.965     8767.951       21.292        4.708      575.938      108.332        0.035      338.750       11.611      860.218
04/23/2014  21:07:00     -316.738      -97.593       12.294      207.528      196.739      114.503    43067.847    38706.280    13111.023       10.242        4.744      331.432      117.811        0.126      338.769       11.642      860.203
04/23/2014  21:08:00     -373.663      -38.339       -1.483      215.206      171.342      102.365    46313.646    29358.221    10478.609       11.361        4.308      375.625      110.416        0.086      338.784       11.670      860.254
04/23/2014  21:09:00     -558.438      -65.836      -28.059      222.010      202.048      112.488    49288.585    40823.544    12653.583       20.985        5.138      562.306      115.721        0.042      338.778       11.657      860.242
04/23/2014  21:10:00     -440.926        8.560      -24.119      214.400      155.558      103.224    45967.175    24198.439    10655.146       13.793        4.041      441.009      108.127        0.060      338.808       11.708      860.249
04/23/2014  21:11:00     -583.354       -2.002      -36.790      235.731      202.973       99.999    55568.921    41198.031     9999.753       22.419        5.338      583.357       92.678        0.025      338.777       11.657      860.248
04/23/2014  21:12:00     -563.859      -74.701      -34.157      303.224      188.008      112.061    91944.748    35346.897    12557.647       23.224        6.992      568.786      118.465        0.043      338.756       11.620      860.233
04/23/2014  21:13:00     -506.316     -164.925       -6.566      247.029      172.217       92.925    61023.290    29658.742     8635.109       19.144        4.966      532.500      111.223        0.044      338.746       11.602      860.255
04/23/2014  21:14:00     -668.717     -130.673      -29.776      287.454      186.686      107.220    82629.862    34851.560    11496.220       29.704        6.449      681.365      131.904        0.037      338.721       11.562      860.261
04/23/2014  21:15:00     -376.604      -40.500        0.953      244.907      148.631       98.538    59979.323    22091.255     9709.811       11.761        4.589      378.776      119.208        0.099      338.737       11.589      860.276
04/23/2014  21:16:00     -442.369     -112.155      -13.027      220.745      181.573       98.074    48728.368    32968.822     9618.602       14.986        4.566      456.365       95.385        0.044      338.694       11.515      860.273
04/23/2014  21:17:00     -414.378      -83.048       -6.515      201.996      158.939       90.452    40802.231    25261.677     8181.624       12.643        3.712      422.618       96.125        0.052      338.719       11.558      860.299
04/23/2014  21:18:00     -533.108      -69.905      -34.364      202.553      150.257       90.328    41027.803    22577.024     8159.081       18.100        3.588      537.672      102.502        0.036      338.714       11.548      860.287
04/23/2014  21:19:00     -323.874      -82.465       -7.974      169.285      168.627       89.491    28657.486    28435.165     8008.603        8.842        3.255      334.208       71.379        0.046      338.742       11.596      860.265
04/23/2014  21:20:00     -529.279      -41.628      -21.617      250.315      180.983       98.059    62657.424    32754.681     9615.661       19.366        5.251      530.914      118.991        0.050      338.714       11.549      860.266
04/23/2014  21:21:00     -531.812     -132.426      -13.465      205.935      167.256       93.519    42409.179    27974.422     8745.737       18.982        3.956      548.052       99.918        0.033      338.697       11.521      860.268
04/23/2014  21:22:00     -674.147      -76.083      -46.602      292.406      170.672       95.704    85501.157    29128.907     9159.262       29.309        6.189      678.427      113.829        0.028      338.707       11.537      860.317
04/23/2014  21:23:00     -382.750       53.947      -25.333      118.266      109.849       67.437    13986.809    12066.765     4547.722        9.032        1.530      386.533       51.100        0.017      338.764       11.635      860.340
04/23/2014  21:24:00     -293.776      -73.821      -11.074      183.980      156.264       85.978    33848.643    24418.372     7392.138        7.875        3.283      302.909       99.839        0.109      338.715       11.552      860.316
04/23/2014  21:25:00     -505.918      -14.466      -34.070      192.473      175.159       82.017    37045.950    30680.706     6726.713       16.587        3.723      506.125       92.851        0.034      338.686       11.502      860.355
04/23/2014  21:26:00     -456.713      -77.475      -15.275      226.602      173.497       88.043    51348.621    30101.095     7751.566       15.199        4.460      463.238       99.803        0.046      338.683       11.499      860.327
04/23/2014  21:27:00     -282.078      -11.432       13.694      227.887      147.333       68.737    51932.583    21707.088     4724.838        7.911        3.918      282.309       73.362        0.068      338.707       11.538      860.353
04/23/2014  21:28:00     -531.896      -65.049      -42.107      164.312      173.398       92.053    26998.302    30066.858     8473.733       17.722        3.277      535.859       89.727        0.028      338.675       11.483      860.363
04/23/2014  21:29:00     -507.255      -86.718      -21.227      267.973      163.592       95.851    71809.457    26762.284     9187.392       18.650        5.388      514.615      113.713        0.049      338.668       11.472      860.356
04/23/2014  21:30:00     -405.972     -104.855       -2.772      256.969      160.715       93.586    66033.309    25829.335     8758.344       13.820        5.031      419.294      110.257        0.069      338.657       11.454      860.391
04/23/2014  21:31:00     -246.054     -105.749       -5.536      178.183      135.644       69.347    31749.284    18399.317     4808.950        6.335        2.748      267.816       70.281        0.069      338.661       11.460      860.371
04/23/2014  21:32:00     -461.477      -46.526      -27.124      237.914      165.303       98.048    56602.931    27325.235     9613.418       15.468        4.677      463.816      118.555        0.065      338.665       11.467      860.418
04/23/2014  21:33:00     -356.966      -92.218       -8.071      179.094      141.249       91.128    32074.787    19951.316     8304.270        9.815        3.017      368.685       97.003        0.069      338.671       11.477      860.414
04/23/2014  21:34:00     -436.272     -110.383       -8.533      260.063      216.036      118.657    67632.592    46671.471    14079.390       16.546        6.419      450.019      134.049        0.089      338.680       11.493      860.417
04/23/2014  21:35:00     -279.880      -65.096        4.953      179.424      127.238       92.187    32193.116    16189.621     8498.468        6.973        2.844      287.350       83.874        0.085      338.693       11.514      860.416
04/23/2014  21:36:00     -404.196      -40.073      -15.218      224.276      139.802       91.495    50299.531    19544.735     8371.408       12.170        3.911      406.178      109.286        0.072      338.691       11.510      860.449
04/23/2014  21:37:00     -540.650     -111.003      -22.062      166.546      191.142       84.862    27737.409    36535.273     7201.505       18.828        3.574      551.928       85.346        0.024      338.645       11.434      860.454
04/23/2014  21:38:00     -382.367     -142.508      -20.218      176.069      132.815       73.419    31000.272    17639.834     5390.300       11.047        2.702      408.060       71.327        0.031      338.641       11.428      860.500
04/23/2014  21:39:00     -439.929     -154.945      -14.103      232.930      220.596      103.313    54256.550    48662.506    10673.577       16.565        5.680      466.418      117.718        0.064      338.680       11.492      860.499
04/23/2014  21:40:00     -446.293     -275.673      -17.332      242.547      223.488       93.948    58829.137    49946.987     8826.301       19.651        5.880      524.569      123.305        0.055      338.674       11.482      860.518
04/23/2014  21:41:00     -278.924     -165.972        7.391      155.260      141.696       78.060    24105.537    20077.682     6093.387        7.783        2.514      324.569       87.831        0.073      338.673       11.481      860.536
04/23/2014  21:42:00     -442.224     -264.097       -8.896      254.095      208.846      107.237    64564.274    43616.600    11499.793       19.251        5.984      515.082      121.263        0.055      338.670       11.475      860.546
04/23/2014  21:43:00     -329.351     -239.504       -5.904      229.813      167.338      111.047    52814.123    28002.119    12331.333       12.949        4.657      407.228      134.262        0.109      338.642       11.429      860.521
04/23/2014  21:44:00     -485.428     -163.355      -34.503      223.796      163.438       88.459    50084.855    26711.873     7825.035       17.405        4.231      512.177       99.735        0.038      338.652       11.445      860.583
04/23/2014  21:45:00     -301.983     -106.949        2.646      216.793      143.414       82.469    46999.390    20567.702     6801.146        8.849        3.718      320.362       98.326        0.094      338.641       11.428      860.576
04/23/2014  21:46:00     -307.959     -192.962        1.872      135.560      125.952       71.016    18376.509    15863.811     5043.295        8.567        1.964      363.419       49.696        0.019      338.640       11.425      860.591
04/23/2014  21:47:00     -370.589      -94.267      -16.363      192.307      171.950       85.119    36981.993    29566.647     7245.231       11.013        3.690      382.391       87.807        0.053      338.700       11.527      860.584
04/23/2014  21:48:00     -193.553     -123.425        4.573      213.302      158.608       98.321    45497.949    25156.465     9666.943        6.650        4.016      229.557       99.005        0.186      338.677       11.488      860.632
04/23/2014  21:49:00     -186.409     -122.254       38.457      205.801      151.262       99.589    42353.972    22880.194     9917.878        6.315        3.758      222.923      113.265        0.258      338.642       11.429      860.620
04/23/2014  21:50:00     -234.637     -127.852       -6.064      187.936      127.472       77.605    35319.953    16249.175     6022.500        6.450        2.880      267.209       88.259        0.109      338.666       11.470      860.653
04/23/2014  21:51:00     -258.001      -39.423        2.931      196.385      130.970       84.703    38567.192    17153.220     7174.639        6.550        3.145      260.996       93.231        0.128      338.646       11.437      860.682
04/23/2014  21:52:00     -204.113      -64.729        3.661      114.817      102.399       63.370    13183.035    10485.472     4015.794        3.677        1.384      214.131       62.905        0.086      338.640       11.426      860.692
04/23/2014  21:53:00     -282.061      -45.936        8.441      206.729      135.942       71.646    42737.032    18480.179     5133.084        7.403        3.318      285.777       87.656        0.094      338.630       11.409      860.700
04/23/2014  21:54:00     -259.417      -82.429       -7.835      106.494      135.167       66.999    11341.038    18269.994     4488.906        5.412        1.705      272.198       62.724        0.053      338.613       11.381      860.699
04/23/2014  21:55:00     -392.925      -16.383       -6.607      219.515      160.017       88.932    48187.023    25605.434     7908.842       11.819        4.085      393.267       97.521        0.061      338.574       11.314      860.722
04/23/2014  21:56:00     -275.702      -24.614        4.049      154.872      138.641       85.162    23985.224    19221.451     7252.583        6.354        2.523      276.799       79.593        0.083      338.616       11.384      860.746
04/23/2014  21:57:00     -163.313      -65.540       13.793      152.040      119.548       69.096    23116.276    14291.648     4774.300        3.666        2.109      175.974       78.167        0.197      338.578       11.322      860.760
04/23/2014  21:58:00     -239.157      -54.264        5.719      248.231      159.321       74.571    61618.758    25383.324     5560.799        7.635        4.628      245.236       95.074        0.150      338.578       11.324      860.746
04/23/2014  21:59:00     -319.479      -78.528      -19.902      198.477      135.318       89.094    39393.275    18310.882     7937.729        8.712        3.282      328.989       88.430        0.072      338.591       11.343      860.780
04/23/2014  22:00:00     -242.636     -116.070        6.269      192.619      140.670       88.004    37102.227    19788.138     7744.630        6.850        3.232      268.969      113.634        0.178      338.559       11.292      860.804
04/23/2014  22:01:00     -140.150       -1.477       12.107      145.560      106.599       71.206    21187.805    11363.268     5070.267        2.870        1.881      140.158       73.747        0.277      338.574       11.317      860.823
04/23/2014  22:02:00     -414.158       31.454      -20.450      201.288      142.780       69.303    40516.678    20386.082     4802.917       11.931        3.285      415.351       95.240        0.053      338.542       11.262      860.817
04/23/2014  22:03:00     -403.377      -68.778      -18.106      241.951      167.135       86.900    58540.166    27934.229     7551.681       13.088        4.701      409.199      104.730        0.066      338.553       11.279      860.790
04/23/2014  22:04:00     -480.194     -101.984       -2.994      200.748      157.190       90.119    40299.707    24708.752     8121.514       15.705        3.656      490.905       96.120        0.038      338.545       11.268      860.848
04/23/2014  22:05:00     -239.186     -102.356       13.485      197.009      163.130       92.606    38812.519    26611.432     8575.898        7.092        3.700      260.166      107.100        0.169      338.568       11.307      860.869
04/23/2014  22:06:00     -269.006     -175.118        1.655      232.321      180.078       96.076    53972.828    32428.066     9230.683        9.931        4.782      320.984      113.383        0.125      338.561       11.294      860.862
04/23/2014  22:07:00     -294.582      -33.504       -4.857      185.943      145.445       81.797    34574.649    21154.173     6690.745        7.516        3.121      296.481       95.190        0.103      338.577       11.320      860.846
04/23/2014  22:08:00     -391.891     -159.539        5.955      181.257      174.931       93.472    32854.179    30600.680     8737.084       12.562        3.610      423.121       92.560        0.048      338.505       11.200      860.855
04/23/2014  22:09:00     -281.146      -99.716      -10.664      183.395      107.742       73.449    33633.769    11608.294     5394.692        6.986        2.532      298.306       90.366        0.092      338.528       11.239      860.881
04/23/2014  22:10:00     -257.520      -72.516       -4.780      146.917      104.652       62.357    21584.583    10952.126     3888.354        5.400        1.821      267.535       71.701        0.072      338.545       11.268      860.881
04/23/2014  22:11:00     -407.664     -137.638      -14.206      169.030      121.271       76.708    28571.004    14706.570     5884.133       11.724        2.458      430.273       75.788        0.031      338.525       11.233      860.867
04/23/2014  22:12:00     -334.161     -100.902       -4.200      235.971      178.474      100.423    55682.282    31852.846    10084.786       10.972        4.881      349.063      102.321        0.086      338.565       11.300      860.822
04/23/2014  22:13:00     -456.265     -161.951      -17.449      246.031      174.871      101.465    60531.243    30579.733    10295.140       16.804        5.070      484.155      108.352        0.050      338.522       11.228      860.843
04/23/2014  22:14:00     -536.939     -207.193       -7.685      277.829      227.728      101.898    77189.188    51859.929    10383.176       23.533        6.972      575.528      112.058        0.038      338.504       11.197      860.838
04/23/2014  22:15:00     -455.495     -280.670      -12.958      193.234      129.286       83.917    37339.412    16714.743     7042.012       17.375        3.055      535.024       89.377        0.028      338.512       11.211      860.892
04/23/2014  22:16:00     -463.320     -219.748      -11.070      203.458      174.798       97.378    41395.084    30554.191     9482.450       17.224        4.072      512.791       94.523        0.034      338.508       11.205      860.890
04/23/2014  22:17:00     -308.817     -154.991       -2.345      192.752      145.118       96.586    37153.176    21059.263     9328.944        9.346        3.377      345.529       94.683        0.075      338.504       11.198      860.902
04/23/2014  22:18:00     -513.526      -47.485      -23.329      240.186      151.354       88.251    57689.465    22908.083     7788.225       17.743        4.419      515.717      106.479        0.043      338.500       11.191      860.914
04/23/2014  22:19:00     -190.748     -107.947       11.548      152.391      116.529       69.365    23222.977    13578.899     4811.557        4.488        2.081      219.174       76.854        0.123      338.487       11.169      860.927
04/23/2014  22:20:00     -234.537      -16.590        6.087      201.110      133.265       69.037    40445.077    17759.611     4766.054        5.913        3.149      235.123       80.838        0.118      338.491       11.176      860.928
04/23/2014  22:21:00     -303.617      -48.493        1.437      175.761      137.044       78.916    30892.056    18781.037     6227.704        7.521        2.795      307.465       86.964        0.080      338.450       11.107      860.936
04/23/2014  22:22:00     -362.072      -56.551      -22.637      173.969      127.645       72.974    30265.196    16293.358     5325.169        9.334        2.594      366.462       73.777        0.041      338.505       11.198      860.953
04/23/2014  22:23:00     -490.385     -138.684      -23.797      232.973      146.828       79.271    54276.519    21558.602     6283.966       17.118        4.106      509.618       93.852        0.034      338.469       11.137      860.964
04/23/2014  22:24:00     -344.112       18.715      -17.585      146.496      150.867       75.415    21461.151    22760.840     5687.467        8.448        2.495      344.621       64.942        0.036      338.514       11.213      860.957
04/23/2014  22:25:00     -425.103     -132.677      -12.919      185.732      129.901       79.315    34496.263    16874.276     6290.947       12.806        2.883      445.326       81.958        0.034      338.455       11.115      860.943
04/23/2014  22:26:00     -438.686     -128.387      -10.689      208.807      155.453       85.186    43600.562    24165.625     7256.681       14.202        3.751      457.087      104.319        0.052      338.428       11.070      860.953
04/23/2014  22:27:00     -274.826       -3.070        6.172      176.555      122.037       71.049    31171.764    14893.110     5047.909        6.333        2.556      274.843       82.577        0.090      338.463       11.127      860.956
04/23/2014  22:28:00     -304.817      -42.282        8.864      207.998      113.518       84.637    43263.120    12886.404     7163.351        7.903        3.166      307.735       95.835        0.097      338.465       11.132      860.938
04/23/2014  22:29:00     -246.302      -90.031        2.512      140.399      120.302       78.794    19711.912    14472.458     6208.562        5.458        2.020      262.241       73.208        0.078      338.431       11.074      860.948
04/23/2014  22:30:00     -159.964      -29.537       16.454      151.645      144.785       90.724    22996.092    20962.786     8230.754        3.945        2.609      162.669       52.756        0.105      338.471       11.143      860.936
04/23/2014  22:31:00     -145.046      -32.786       28.061      206.906       97.366       75.783    42810.182     9480.112     5743.040        4.046        2.902      148.705       93.799        0.398      338.458       11.121      860.950
04/23/2014  22:32:00     -185.053      -48.719       16.687      133.970      138.347       60.697    17948.016    19140.026     3684.086        3.883        2.039      191.359       51.365        0.072      338.441       11.093      860.937
04/23/2014  22:33:00     -315.572      -61.919      -10.211      111.248      115.100       69.509    12376.119    13247.993     4831.453        6.698        1.523      321.589       62.760        0.038      338.419       11.055      860.945
04/23/2014  22:34:00     -340.071     -132.222      -16.108      163.950      160.626       82.150    26879.516    25800.820     6748.544        9.640        2.971      364.871       92.233        0.064      338.406       11.032      860.943
04/23/2014  22:35:00     -125.883      -84.569       12.505      138.340      109.271       77.136    19137.865    11940.236     5950.032        3.008        1.851      151.652       81.669        0.290      338.399       11.021      860.954
04/23/2014  22:36:00     -315.727     -115.088      -18.949      124.077      106.608       67.263    15395.206    11365.188     4524.287        7.228        1.564      336.049       64.883        0.037      338.376       10.982      860.970
04/23/2014  22:37:00     -117.471      -20.509        9.069      110.471       78.953       56.235    12203.829     6233.515     3162.392        1.795        1.080      119.248       54.756        0.211      338.413       11.046      860.972
04/23/2014  22:38:00     -276.348      -70.400      -19.543      117.867      110.159       60.897    13892.546    12134.987     3708.429        5.572        1.487      285.174       61.907        0.047      338.418       11.051      860.974
04/23/2014  22:39:00     -416.554      -42.117      -20.933      188.050      172.346       72.247    35362.698    29703.016     5219.616       12.299        3.514      418.678       83.190        0.039      338.400       11.023      860.974
04/23/2014  22:40:00     -265.864      -72.479       -7.768      130.359       85.310       60.261    16993.480     7277.715     3631.444        5.194        1.395      275.567       60.450        0.048      338.367       10.968      860.971
04/23/2014  22:41:00     -196.624     -132.418       17.417      195.566      177.306      102.055    38245.912    31437.443    10415.220        6.828        4.005      237.055      104.327        0.194      338.362       10.959      860.945
04/23/2014  22:42:00     -121.392      -70.000       27.386      154.624      119.063       76.350    23908.553    14176.035     5829.354        3.214        2.196      140.129       83.911        0.359      338.345       10.931      860.922
04/23/2014  22:43:00     -176.162      -65.960       16.979      127.996       98.433       59.864    16382.940     9689.015     3583.713        3.266        1.483      188.106       54.084        0.083      338.372       10.976      860.924
04/23/2014  22:44:00      -98.930      -40.614       19.485      129.633       82.562       57.039    16804.733     6816.430     3253.451        1.934        1.344      106.942       57.232        0.286      338.416       11.051      860.910
04/23/2014  22:45:00     -302.229      -29.000      -20.437      168.971      126.054       67.226    28551.315    15889.487     4519.395        7.077        2.448      303.617       76.117        0.063      338.399       11.021      860.905
04/23/2014  22:46:00     -251.498      -39.242       -6.819      121.198      114.301       68.908    14689.005    13064.663     4748.360        4.866        1.625      254.541       67.860        0.071      338.358       10.952      860.883
04/23/2014  22:47:00     -205.566       12.823        3.425      143.366      118.091       61.653    20553.864    13945.446     3801.044        4.036        1.915      205.966       56.545        0.075      338.355       10.949      860.894
04/23/2014  22:48:00     -322.571      -50.719      -13.121      113.743      118.227       57.266    12937.550    13977.587     3279.364        6.849        1.510      326.534       47.381        0.021      338.330       10.907      860.900
04/23/2014  22:49:00     -328.252      -28.398      -18.962      187.223      107.021       65.711    35052.354    11453.419     4317.896        7.986        2.541      329.478       69.477        0.044      338.340       10.923      860.899
04/23/2014  22:50:00     -299.879      -41.994      -11.539      189.051       99.303       64.227    35740.139     9861.002     4125.165        7.077        2.486      302.805       85.179        0.079      338.323       10.894      860.882
04/23/2014  22:51:00     -210.751      -50.982       -6.788      112.967      100.638       53.101    12761.486    10128.043     2819.751        3.638        1.285      216.830       48.902        0.051      338.334       10.913      860.855
04/23/2014  22:52:00     -265.083      -26.280        0.938      150.577      113.826       70.832    22673.368    12956.302     5017.225        5.580        2.032      266.383       69.427        0.068      338.330       10.905      860.831
04/23/2014  22:53:00     -203.935      -25.782      -15.901      143.026      100.771       68.108    20456.393    10154.723     4638.647        3.887        1.762      205.558       77.616        0.143      338.350       10.938      860.810
04/23/2014  22:54:00     -119.930       -8.225        8.766      102.395       63.359       55.431    10484.761     4014.357     3072.617        1.605        0.879      120.212       55.126        0.210      338.345       10.931      860.778
04/23/2014  22:55:00     -297.223       -8.791      -13.855      123.544      133.232       63.331    15263.080    17750.739     4010.816        6.281        1.851      297.353       63.545        0.046      338.367       10.968      860.773
04/23/2014  22:56:00     -250.267        9.051      -19.510      133.699      115.576       62.277    17875.325    13357.927     3878.421        4.910        1.756      250.431       53.569        0.046      338.407       11.034      860.772
04/23/2014  22:57:00     -406.014     -114.747      -17.031      144.603      167.031       66.310    20910.044    27899.454     4396.952       11.574        2.660      421.917       55.509        0.017      338.347       10.934      860.770
04/23/2014  22:58:00     -383.995      -75.111      -22.093      203.561      153.550       84.215    41437.198    23577.553     7092.123       11.283        3.605      391.272       99.043        0.064      338.393       11.010      860.790
04/23/2014  22:59:00     -433.871      -18.862      -43.448      128.448      103.393       63.269    16498.788    10690.138     4003.011       11.083        1.560      434.281       52.637        0.015      338.389       11.004      860.818
04/23/2014  23:00:00     -244.541      -35.410      -29.184       94.325      103.515       58.158     8897.205    10715.301     3382.322        4.245        1.150      247.091       37.164        0.023      338.443       11.095      860.832
04/23/2014  23:01:00     -317.311      -78.564      -27.161      174.406       90.246       59.621    30417.592     8144.387     3554.633        7.485        2.106      326.892       77.315        0.056      338.399       11.021      860.844
04/23/2014  23:02:00     -283.355       -9.118      -29.488      153.353      134.078       61.300    23517.161    17976.988     3757.711        6.324        2.263      283.502       81.678        0.083      338.408       11.037      860.854
04/23/2014  23:03:00     -387.443     -121.455      -27.742      150.727      121.370       58.932    22718.549    14730.613     3472.948       10.327        2.046      406.034       60.200        0.022      338.400       11.023      860.855
04/23/2014  23:04:00     -374.662      -47.133      -20.967      164.017      127.546       72.137    26901.703    16267.983     5203.703        9.569        2.419      377.615       85.245        0.051      338.405       11.030      860.860
04/23/2014  23:05:00     -353.531     -132.050      -21.593      135.281      128.928       70.097    18300.937    16622.496     4913.592        9.135        1.992      377.388       67.117        0.032      338.424       11.062      860.874
04/23/2014  23:06:00     -296.809     -131.779       -2.650      133.865      125.389       70.677    17919.800    15722.412     4995.274        7.204        1.932      324.748       70.458        0.047      338.408       11.036      860.894
04/23/2014  23:07:00     -243.275      -12.060       -8.050      119.439       74.791       49.145    14265.623     5593.635     2415.249        4.083        1.114      243.573       47.642        0.038      338.504       11.197      860.903
04/23/2014  23:08:00     -286.190       55.233      -19.471      116.548       98.274       56.734    13583.528     9657.697     3218.786        5.589        1.323      291.472       47.439        0.026      338.517       11.220      860.908
04/23/2014  23:09:00     -270.322      -13.047       -9.214      152.612      110.527       64.918    23290.472    12216.130     4214.292        5.652        1.986      270.636       70.569        0.068      338.522       11.228      860.918
04/23/2014  23:10:00     -320.265      -56.272      -33.790      172.694      112.955       68.310    29823.223    12758.891     4666.264        7.705        2.362      325.171       77.921        0.057      338.494       11.180      860.936
04/23/2014  23:11:00     -356.034       20.705      -26.810      146.300      124.525       68.436    21403.650    15506.361     4683.478        8.474        2.080      356.636       70.083        0.039      338.531       11.243      860.936
04/23/2014  23:12:00     -414.031      -71.570      -16.968      164.986      160.662       69.384    27220.398    25812.195     4814.097       11.733        2.892      420.171       70.903        0.028      338.495       11.180      860.925
04/23/2014  23:13:00     -199.558      -32.222        1.303      150.336       90.162       63.765    22600.954     8129.255     4065.958        3.782        1.740      202.143       66.934        0.110      338.553       11.280      860.930
04/23/2014  23:14:00     -368.745      -27.677      -18.771      270.166      117.846       62.851    72989.837    13887.633     3950.293       11.394        4.541      369.782       80.325        0.047      338.553       11.280      860.922
04/23/2014  23:15:00     -437.221     -110.722      -22.022      154.365      126.903       66.058    23828.622    16104.353     4363.631       12.409        2.215      451.023       67.047        0.022      338.506       11.200      860.940
04/23/2014  23:16:00     -245.462      -89.088       -2.457      147.381      111.678       69.293    21721.017    12471.994     4801.567        5.359        1.950      261.128       80.438        0.095      338.522       11.227      860.932
04/23/2014  23:17:00     -215.432      -23.811       -4.288       87.087       88.280       46.965     7584.216     7793.376     2205.695        3.229        0.879      216.743       42.754        0.039      338.612       11.378      860.923
04/23/2014  23:18:00     -391.623      -14.132      -37.916      153.771       98.792       61.414    23645.477     9759.842     3771.682        9.608        1.859      391.878       77.271        0.039      338.558       11.290      860.897
04/23/2014  23:19:00     -167.943      -50.369       -2.279      108.729       85.457       48.134    11822.045     7302.916     2316.846        2.609        1.072      175.334       50.005        0.081      338.569       11.309      860.899
04/23/2014  23:20:00     -257.428       -6.367       -5.139      137.491      110.892       58.908    18903.760    12297.112     3470.094        5.050        1.734      257.507       64.262        0.062      338.608       11.374      860.876
04/23/2014  23:21:00     -269.425       -7.014      -18.472      100.560       84.628       50.683    10112.251     7161.905     2568.730        4.641        0.992      269.516       48.304        0.032      338.591       11.343      860.844
04/23/2014  23:22:00     -326.129      -94.432       -3.682      104.341       73.756       48.940    10887.062     5439.960     2395.158        6.700        0.936      339.525       40.491        0.014      338.540       11.258      860.854
04/23/2014  23:23:00     -249.429      -60.451      -20.770       96.294       73.473       42.301     9272.613     5398.324     1789.346        4.138        0.823      256.650       44.533        0.030      338.553       11.280      860.842
04/23/2014  23:24:00     -118.716      -45.890       13.943       83.494       86.000       39.338     6971.253     7395.961     1547.510        1.615        0.796      127.276       34.811        0.075      338.589       11.342      860.831
04/23/2014  23:25:00     -338.220       -6.763      -12.514      105.050      162.847       57.235    11035.506    26519.232     3275.849        7.770        2.042      338.287       46.184        0.019      338.631       11.409      860.811
04/23/2014  23:26:00     -170.313      -57.373      -13.507       86.138       86.629       39.947     7419.834     7504.581     1595.764        2.450        0.826      179.717       41.370        0.053      338.634       11.417      860.798
04/23/2014  23:27:00     -172.845      -46.714      -13.308      107.148       38.613       33.746    11480.717     1490.981     1138.785        2.317        0.706      179.046       11.918        0.004      338.594       11.350      860.796
04/23/2014  23:28:00     -249.265      -55.405       -5.088      118.878       86.341       51.098    14132.047     7454.718     2611.020        4.471        1.210      255.348       55.412        0.047      338.575       11.318      860.766
04/23/2014  23:29:00     -231.018      -35.834      -14.162       88.963       68.302       40.473     7914.328     4665.133     1638.050        3.453        0.711      233.780       39.380        0.028      338.548       11.271      860.728
04/23/2014  23:30:00     -193.753      -44.805      -14.580       83.744      104.788       46.600     7013.053    10980.453     2171.532        2.996        1.008      198.866       42.926        0.047      338.645       11.435      860.688
04/23/2014  23:31:00     -238.274     -129.094       -4.919      125.573      138.934       61.526    15768.661    19302.600     3785.475        5.615        1.943      270.998       59.707        0.049      338.556       11.285      860.703
04/23/2014  23:32:00     -237.714      -85.377      -18.882      142.331      129.049       71.627    20258.043    16653.613     5130.454        5.309        2.102      252.582       67.481        0.071      338.536       11.252      860.683
04/23/2014  23:33:00     -177.792     -112.647       -7.255      115.719       90.760       68.837    13390.996     8237.382     4738.507        3.535        1.318      210.474       77.233        0.135      338.568       11.305      860.667
04/23/2014  23:34:00      -38.039      -50.833        5.381       84.198       65.289       44.407     7089.230     4262.718     1972.008        0.869        0.666       63.490       46.614        0.539      338.592       11.348      860.651
04/23/2014  23:35:00     -282.824      -73.039       -1.502      208.729       89.500       75.117    43567.838     8010.189     5642.638        7.126        2.861      292.103      107.898        0.136      338.529       11.240      860.640
04/23/2014  23:36:00     -282.451     -104.013       -1.450      162.165      121.261       63.778    26297.542    14704.238     4067.631        6.783        2.253      300.994       64.120        0.045      338.527       11.235      860.621
04/23/2014  23:37:00     -286.039      -78.302      -17.454      191.684       98.258       61.982    36742.843     9654.652     3841.713        6.924        2.512      296.563       73.499        0.061      338.513       11.214      860.613
04/23/2014  23:38:00     -196.231      -57.482      -11.184       70.236       64.696       36.117     4933.138     4185.584     1304.407        2.618        0.521      204.477       40.591        0.039      338.490       11.175      860.581
04/23/2014  23:39:00     -113.765        0.481       -4.302       96.279       62.192       40.338     9269.678     3867.876     1627.152        1.386        0.738      113.766       41.192        0.131      338.552       11.279      860.567
04/23/2014  23:40:00     -133.440      -29.765       -2.351       94.203       70.021       40.756     8874.169     4903.007     1661.087        1.706        0.772      136.719       42.710        0.098      338.559       11.292      860.553
04/23/2014  23:41:00     -312.126     -122.526      -22.620      123.110       84.003       60.342    15156.036     7056.525     3641.216        6.940        1.293      335.314       50.825        0.023      338.465       11.129      860.550
04/23/2014  23:42:00     -135.586     -108.275       -6.189      104.762       83.272       44.742    10975.009     6934.301     2001.834        2.502        0.996      173.514       45.110        0.068      338.487       11.168      860.543
04/23/2014  23:43:00      -93.754     -106.994      -11.800       57.691       50.746       27.759     3328.196     2575.140      770.585        1.352        0.334      142.259       26.461        0.035      338.504       11.200      860.537
04/23/2014  23:44:00     -134.124      -96.099       -6.103       66.902       58.605       33.859     4475.861     3434.528     1146.425        1.816        0.453      164.998       37.532        0.052      338.492       11.179      860.539
04/23/2014  23:45:00     -199.321      -62.299       -6.058      115.746       92.244       42.739    13397.117     8508.986     1826.609        3.368        1.187      208.830       26.740        0.016      338.454       11.114      860.543
04/23/2014  23:46:00     -134.093      -59.106       -2.619       83.081       67.980       38.847     6902.375     4621.314     1509.105        1.725        0.652      146.541       37.223        0.065      338.586       11.336      860.543
04/23/2014  23:47:00     -204.203      -39.308       -9.581       90.718       77.025       51.211     8229.737     5932.906     2622.604        3.006        0.839      207.952       52.340        0.063      338.419       11.054      860.545
04/23/2014  23:48:00      -84.490      -65.970        6.946       90.399       70.285       36.632     8172.014     4939.996     1341.889        1.299        0.723      107.195       34.791        0.105      338.512       11.215      860.570
04/23/2014  23:49:00     -100.061      -45.111       -2.328      111.180       78.139       40.622    12360.991     6105.748     1650.163        1.608        1.006      109.760       36.105        0.108      338.478       11.155      860.561
04/23/2014  23:50:00     -236.216      -95.358       -4.687      114.123      104.299       52.115    13024.132    10878.197     2716.009        4.576        1.331      254.738       48.404        0.036      338.401       11.024      860.584
04/23/2014  23:51:00     -151.564     -129.945        4.607      160.217      109.274       65.111    25669.368    11940.834     4239.446        4.086        2.092      199.643       71.850        0.130      338.448       11.104      860.609
04/23/2014  23:52:00     -369.374      -37.230      -25.143      115.502      122.574       52.896    13340.788    15024.335     2797.977        8.480        1.558      371.246       59.045        0.025      338.402       11.025      860.605
04/23/2014  23:53:00     -302.746     -117.176      -29.614      111.380       95.365       54.312    12405.589     9094.559     2949.817        6.535        1.222      324.631       52.855        0.027      338.373       10.977      860.601
04/23/2014  23:54:00     -190.706      -84.520       -4.757      118.946       89.908       58.739    14148.200     8083.362     3450.312        3.460        1.284      208.596       59.267        0.081      338.371       10.974      860.594
04/23/2014  23:55:00     -215.321      -58.986       -2.624      150.612       63.849       40.711    22684.055     4076.745     1657.353        3.913        1.421      223.255       47.480        0.045      338.370       10.974      860.582
04/23/2014  23:56:00     -221.821      -62.112        4.508      107.328      114.503       60.144    11519.230    13110.861     3617.314        4.066        1.412      230.353       51.445        0.050      338.422       11.059      860.585
04/23/2014  23:57:00     -243.971      -67.542        6.240      132.750      118.722       60.427    17622.637    14094.890     3651.399        4.974        1.768      253.148       61.965        0.060      338.386       11.000      860.595
04/23/2014  23:58:00     -336.990      -75.669      -25.287      125.490      119.436       60.334    15747.852    14264.949     3640.242        7.678        1.683      345.381       49.825        0.021      338.356       10.949      860.629
04/23/2014  23:59:00     -200.642      -16.294       -8.337      124.863       80.581       59.426    15590.845     6493.237     3531.495        3.310        1.281      201.302       61.049        0.092      338.424       11.064      860.646
